[[{"header":{"parameterUnit":"m.s-1","parameterCategory":1,"la1":30.6,"la2":28.766,"lo1":-90.7593,"lo2":-88.6598,"dy":0.0162,"dx":0.0183,"nx":116,"ny":114,"refTime":"2023-09-11T18:00:00:Z","depth":0,"parameterNumber":2,"parameterNumberName":"U-component_of_WINDS"},"data":[0.0,0.0,0.0,0.0,0.0,0.0,0.0,0.0,0.0,0.0,0.0,0.0,0.0,0.0,0.0,0.0,0.0,0.0,0.0,0.0,0.0,0.0,0.0,0.0,0.0,0.0,0.0,0.0,0.0,0.0,0.0,0.0,0.0,0.0,0.0,0.0,0.0,0.0,0.0,0.0,0.0,0.0,0.0,0.0,0.0,0.0,0.0,0.0,0.0,0.0,0.0,0.0,0.0,0.0,0.0,0.0,0.0,0.0,0.0,0.0,0.0,0.0,0.0,0.0,0.0,0.0,0.0,0.0,0.0,0.0,0.0,0.0,0.0,0.0,0.0,0.0,0.0,0.0,0.0,0.0,0.0,0.0,0.0,0.0,0.0,0.0,0.0,0.0,0.0,0.0,0.0,0.0,0.0,0.0,0.0,0.0,0.0,0.0,0.0,0.0,0.0,0.0,0.0,0.0,0.0,0.0,0.0,0.0,0.0,0.0,0.0,0.0,0.0,0.0,0.0,0.0,0.0,0.0,0.0,0.0,0.0,0.0,0.0,0.0,0.0,0.0,0.0,0.0,0.0,0.0,0.0,0.0,0.0,0.0,0.0,0.0,0.0,0.0,0.0,0.0,0.0,0.0,0.0,0.0,0.0,0.0,0.0,0.0,0.0,0.0,0.0,0.0,0.0,0.0,0.0,0.0,0.0,0.0,0.0,0.0,0.0,0.0,0.0,0.0,0.0,0.0,0.0,0.0,0.0,0.0,0.0,0.0,0.0,0.0,0.0,0.0,0.0,0.0,0.0,0.0,0.0,0.0,0.0,0.0,0.0,0.0,0.0,0.0,0.0,0.0,0.0,0.0,0.0,0.0,0.0,0.0,0.0,0.0,0.0,0.0,0.0,0.0,0.0,0.0,0.0,0.0,0.0,0.0,0.0,0.0,0.0,0.0,0.0,0.0,0.0,0.0,0.0,0.0,0.0,0.0,0.0,0.0,0.0,0.0,0.0,0.0,0.0,0.0,0.0,0.0,0.0,0.0,0.0,0.0,0.0,0.0,0.0,0.0,0.0,0.0,0.0,0.0,0.0,0.0,0.0,0.0,0.0,0.0,0.0,0.0,0.0,0.0,0.0,0.0,0.0,0.0,0.0,0.0,0.0,0.0,0.0,0.0,0.0,0.0,0.0,0.0,0.0,0.0,0.0,0.0,0.0,0.0,0.0,0.0,0.0,0.0,0.0,0.0,0.0,0.0,0.0,0.0,0.0,0.0,0.0,0.0,0.0,0.0,0.0,0.0,0.0,0.0,0.0,0.0,0.0,0.0,0.0,0.0,0.0,0.0,0.0,0.0,0.0,0.0,0.0,0.0,0.0,0.0,0.0,0.0,0.0,0.0,0.0,0.0,0.0,0.0,0.0,0.0,0.0,0.0,0.0,0.0,0.0,0.0,0.0,0.0,0.0,0.0,0.0,0.0,0.0,0.0,0.0,0.0,0.0,0.0,0.0,0.0,0.0,0.0,0.0,0.0,0.0,0.0,0.0,0.0,0.0,0.0,0.0,0.0,0.0,0.0,0.0,0.0,0.0,0.0,0.0,0.0,0.0,0.0,0.0,0.0,0.0,0.0,0.0,0.0,0.0,0.0,0.0,0.0,0.0,0.0,0.0,0.0,0.0,0.0,0.0,0.0,0.0,0.0,0.0,0.0,0.0,0.0,0.0,0.0,0.0,0.0,0.0,0.0,0.0,0.0,0.0,0.0,0.0,0.0,0.0,0.0,0.0,0.0,0.0,0.0,0.0,0.0,0.0,0.0,0.0,0.0,0.0,0.0,0.0,0.0,0.0,0.0,0.0,0.0,0.0,0.0,0.0,0.0,0.0,0.0,0.0,0.0,0.0,0.0,0.0,0.0,0.0,0.0,0.0,0.0,0.0,0.0,0.0,0.0,0.0,0.0,0.0,0.0,0.0,0.0,0.0,0.0,0.0,0.0,0.0,0.0,0.0,0.0,0.0,0.0,0.0,0.0,0.0,0.0,0.0,0.0,0.0,0.0,0.0,0.0,0.0,0.0,0.0,0.0,0.0,0.0,0.0,0.0,0.0,0.0,0.0,0.0,0.0,0.0,0.0,0.0,0.0,0.0,0.0,0.0,0.0,0.0,0.0,0.0,0.0,0.0,0.0,0.0,0.0,0.0,0.0,0.0,0.0,0.0,0.0,0.0,0.0,0.0,0.0,0.0,0.0,0.0,0.0,0.0,0.0,0.0,0.0,0.0,0.0,0.0,0.0,0.0,0.0,0.0,0.0,0.0,0.0,0.0,0.0,0.0,0.0,0.0,0.0,0.0,0.0,0.0,0.0,0.0,0.0,0.0,0.0,0.0,0.0,0.0,0.0,0.0,0.0,0.0,0.0,0.0,0.0,0.0,0.0,0.0,0.0,0.0,0.0,0.0,0.0,0.0,0.0,0.0,0.0,0.0,0.0,0.0,0.0,0.0,0.0,0.0,0.0,0.0,0.0,0.0,0.0,0.0,0.0,0.0,0.0,0.0,0.0,0.0,0.0,0.0,0.0,0.0,0.0,0.0,0.0,0.0,0.0,0.0,0.0,0.0,0.0,0.0,0.0,0.0,0.0,0.0,0.0,0.0,0.0,0.0,0.0,0.0,0.0,0.0,0.0,0.0,0.0,0.0,0.0,0.0,0.0,0.0,0.0,0.0,0.0,0.0,0.0,0.0,0.0,0.0,0.0,0.0,0.0,0.0,0.0,0.0,0.0,0.0,0.0,0.0,0.0,0.0,0.0,0.0,0.0,0.0,0.0,0.0,0.0,0.0,0.0,0.0,0.0,0.0,0.0,0.0,0.0,0.0,0.0,0.0,0.0,0.0,0.0,0.0,0.0,0.0,0.0,0.0,0.0,0.0,0.0,0.0,0.0,0.0,0.0,0.0,0.0,0.0,0.0,0.0,0.0,0.0,0.0,0.0,0.0,0.0,0.0,0.0,0.0,0.0,0.0,0.0,0.0,0.0,0.0,0.0,0.0,0.0,0.0,0.0,0.0,0.0,0.0,0.0,0.0,0.0,0.0,0.0,0.0,0.0,0.0,0.0,0.0,0.0,0.0,0.0,0.0,0.0,0.0,0.0,0.0,0.0,0.0,0.0,0.0,0.0,0.0,0.0,0.0,0.0,0.0,0.0,0.0,0.0,0.0,0.0,0.0,0.0,0.0,0.0,0.0,0.0,0.0,0.0,0.0,0.0,0.0,0.0,0.0,0.0,0.0,0.0,0.0,0.0,0.0,0.0,0.0,0.0,0.0,0.0,0.0,0.0,0.0,0.0,0.0,0.0,0.0,0.0,0.0,0.0,0.0,0.0,0.0,0.0,0.0,0.0,0.0,0.0,0.0,0.0,0.0,0.0,0.0,0.0,0.0,0.0,0.0,0.0,0.0,0.0,0.0,0.0,0.0,0.0,0.0,0.0,0.0,0.0,0.0,0.0,0.0,0.0,0.0,0.0,0.0,0.0,0.0,0.0,0.0,0.0,0.0,0.0,0.0,0.0,0.0,0.0,0.0,0.0,0.0,0.0,0.0,0.0,0.0,0.0,0.0,0.0,0.0,0.0,0.0,0.0,0.0,0.0,0.0,0.0,0.0,0.0,0.0,0.0,0.0,0.0,0.0,0.0,0.0,0.0,0.0,0.0,0.0,0.0,0.0,0.0,0.0,0.0,0.0,0.0,0.0,0.0,0.0,0.0,0.0,0.0,0.0,0.0,0.0,0.0,0.0,0.0,0.0,0.0,0.0,0.0,0.0,0.0,0.0,0.0,0.0,0.0,0.0,0.0,0.0,0.0,0.0,0.0,0.0,0.0,0.0,0.0,0.0,0.0,0.0,0.0,0.0,0.0,0.0,0.0,0.0,0.0,0.0,0.0,0.0,0.0,0.0,0.0,0.0,0.0,0.0,0.0,0.0,0.0,0.0,0.0,0.0,0.0,0.0,0.0,0.0,0.0,0.0,0.0,0.0,0.0,0.0,0.0,0.0,0.0,0.0,0.0,0.0,0.0,0.0,0.0,0.0,0.0,0.0,0.0,0.0,0.0,0.0,0.0,0.0,0.0,0.0,0.0,0.0,0.0,0.0,0.0,0.0,0.0,0.0,0.0,0.0,0.0,0.0,0.0,0.0,0.0,0.0,0.0,0.0,0.0,0.0,0.0,0.0,0.0,0.0,0.0,0.0,0.0,0.0,0.0,0.0,0.0,0.0,0.0,0.0,0.0,0.0,0.0,0.0,0.0,0.0,0.0,0.0,0.0,0.0,0.0,0.0,0.0,0.0,0.0,0.0,0.0,0.0,0.0,0.0,0.0,0.0,0.0,0.0,0.0,0.0,0.0,0.0,0.0,0.0,0.0,0.0,0.0,0.0,0.0,0.0,0.0,0.0,0.0,0.0,0.0,0.0,0.0,0.0,0.0,0.0,0.0,0.0,0.0,0.0,0.0,0.0,0.0,0.0,0.0,0.0,0.0,0.0,0.0,0.0,0.0,0.0,0.0,0.0,0.0,0.0,0.0,0.0,0.0,0.0,0.0,0.0,0.0,0.0,0.0,0.0,0.0,0.0,0.0,0.0,0.0,0.0,0.0,0.0,0.0,0.0,0.0,0.0,0.0,0.0,0.0,0.0,0.0,0.0,0.0,0.0,0.0,0.0,0.0,0.0,0.0,0.0,0.0,0.0,0.0,0.0,0.0,0.0,0.0,0.0,0.0,0.0,0.0,0.0,0.0,0.0,0.0,0.0,0.0,0.0,0.0,0.0,0.0,0.0,0.0,0.0,0.0,0.0,0.0,0.0,0.0,0.0,0.0,0.0,0.0,0.0,0.0,0.0,0.0,0.0,0.0,0.0,0.0,0.0,0.0,0.0,0.0,0.0,0.0,0.0,0.0,0.0,0.0,0.0,0.0,0.0,0.0,0.0,0.0,0.0,0.0,0.0,0.0,0.0,0.0,0.0,0.0,0.0,0.0,0.0,0.0,0.0,0.0,0.0,0.0,0.0,0.0,0.0,0.0,0.0,0.0,0.0,0.0,0.0,0.0,0.0,0.0,0.0,0.0,0.0,0.0,0.0,0.0,0.0,0.0,0.0,0.0,0.0,0.0,0.0,0.0,0.0,0.0,0.0,0.0,0.0,0.0,0.0,0.0,0.0,0.0,0.0,0.0,0.0,0.0,0.0,0.0,0.0,0.0,0.0,0.0,0.0,0.0,0.0,0.0,0.0,0.0,0.0,0.0,0.0,0.0,0.0,0.0,0.0,0.0,0.0,0.0,0.0,0.0,0.0,0.0,0.0,0.0,0.0,0.0,0.0,0.0,0.0,0.0,0.0,0.0,0.0,0.0,0.0,0.0,0.0,0.0,0.0,0.0,0.0,0.0,0.0,0.0,0.0,0.0,0.0,0.0,0.0,0.0,0.0,0.0,0.0,0.0,0.0,0.0,0.0,0.0,0.0,0.0,0.0,0.0,0.0,0.0,0.0,0.0,0.0,0.0,0.0,0.0,0.0,0.0,0.0,0.0,0.0,0.0,0.0,0.0,0.0,0.0,0.0,0.0,0.0,0.0,0.0,0.0,0.0,0.0,0.0,0.0,0.0,0.0,0.0,0.0,0.0,0.0,0.0,0.0,0.0,0.0,0.0,0.0,0.0,0.0,0.0,0.0,0.0,0.0,0.0,0.0,0.0,0.0,0.0,0.0,0.0,0.0,0.0,0.0,0.0,0.0,0.0,0.0,0.0,0.0,0.0,0.0,0.0,0.0,0.0,0.0,0.0,0.0,0.0,0.0,0.0,0.0,0.0,0.0,0.0,0.0,0.0,0.0,0.0,0.0,0.0,0.0,0.0,0.0,0.0,0.0,0.0,0.0,0.0,0.0,0.0,0.0,0.0,0.0,0.0,0.0,0.0,0.0,0.0,0.0,0.0,0.0,0.0,0.0,0.0,0.0,0.0,0.0,0.0,0.0,0.0,0.0,0.0,0.0,0.0,0.0,0.0,0.0,0.0,0.0,0.0,0.0,0.0,0.0,0.0,0.0,0.0,0.0,0.0,0.0,0.0,0.0,0.0,0.0,0.0,0.0,0.8723,0.8835,0.0,0.0,0.0,0.0,0.0,0.0,0.0,0.0,0.0,0.0,0.0,0.0,0.0,0.0,0.0,0.0,0.0,0.0,0.0,0.0,0.0,0.0,0.0,0.0,0.0,0.0,0.0,0.0,0.0,0.0,0.0,0.0,0.0,0.0,0.0,0.0,0.0,0.0,0.0,0.0,0.0,0.0,0.0,0.0,0.0,0.0,0.0,0.0,0.0,0.0,0.0,0.0,0.0,0.0,0.0,0.0,0.0,0.0,0.0,0.0,0.0,0.0,0.0,0.0,0.0,0.0,0.0,0.0,0.0,0.0,0.0,0.0,0.0,0.0,0.0,0.0,0.0,0.0,0.0,0.0,0.0,0.0,0.0,0.0,0.0,0.0,0.0,0.0,0.0,0.0,0.0,0.0,0.0,0.0,0.0,0.0,0.0,0.0,0.0,0.0,0.0,0.0,0.0,0.0,0.0,0.0,0.0,0.0,0.0,0.0,0.0,0.0,0.0,0.0,0.8384,0.8551,0.0,0.0,0.0,0.0,0.0,0.0,0.0,0.0,0.0,0.0,0.0,0.0,0.0,0.0,0.0,0.0,0.0,0.0,0.0,0.0,0.0,0.0,0.0,0.0,0.0,0.0,0.0,0.0,0.0,0.0,0.0,0.0,0.0,0.0,0.0,0.0,0.0,0.0,0.0,0.0,0.0,0.0,0.0,0.0,0.0,0.0,0.0,0.0,0.0,0.0,0.0,0.0,0.0,0.0,0.0,0.0,0.0,0.0,0.0,0.0,0.0,0.0,0.0,0.0,0.0,0.0,0.0,0.0,0.0,0.0,0.0,0.0,0.0,0.0,0.0,0.0,0.0,0.0,0.0,0.0,0.0,0.0,0.0,0.0,0.0,0.0,0.0,0.0,0.0,0.0,0.0,0.0,0.0,0.0,0.0,0.0,0.0,0.0,0.0,0.0,0.0,0.0,0.0,0.0,0.0,0.0,0.0,0.0,0.7086,0.7011,0.694,0.6972,0.7132,0.7275,0.7753,0.8078,0.8167,0.8107,0.0,0.0,0.0,0.0,0.0,0.0,0.0,0.0,0.0,0.0,0.0,0.0,0.0,0.0,0.0,0.0,0.0,0.0,0.0,0.0,0.0,0.0,0.0,0.0,0.0,0.0,0.0,0.0,0.0,0.0,0.0,0.0,0.0,0.0,0.0,0.0,0.0,0.0,-0.3354,-0.3486,-0.377,-0.4155,-0.3828,0.0,0.0,0.0,0.0,0.0,0.0,0.0,0.0,0.0,0.0,0.0,0.0,0.0,0.0,0.0,0.0,0.0,0.0,0.0,0.0,0.0,0.0,0.0,0.0,0.0,0.0,0.0,0.0,0.0,0.0,0.0,0.0,0.0,0.0,0.0,0.0,0.0,0.0,0.0,0.0,0.0,0.0,0.0,0.7204,0.7073,0.0,0.0,0.0,0.0,0.0,0.0,0.0,0.0,0.0,0.0,0.0,0.0,0.0,0.6627,0.6407,0.6429,0.6369,0.6369,0.6369,0.6297,0.6301,0.6526,0.6667,0.6741,0.6791,0.0,0.7548,0.7522,0.0,0.0,0.0,0.0,0.0,0.0,0.0,0.0,0.0,0.0,0.0,0.0,0.0,0.0,0.0,0.0,0.0,0.0,0.0,0.0,0.0,0.0,0.0,0.0,0.0,0.0,0.0,0.0,0.0,0.0,0.0,0.0,0.0,0.0,0.0,0.0,-0.3435,-0.385,-0.4348,-0.4535,-0.488,-0.534,-0.5062,-0.4842,-0.4736,-0.4904,0.0,0.0,0.0,0.0,0.0,0.0,0.0,0.0,0.0,0.0,0.0,0.0,0.0,0.0,0.0,0.0,0.0,0.0,0.0,0.0,0.0,0.0,0.0,0.0,0.0,0.0,0.0,0.0,0.0,0.0,0.0,0.0,0.0,0.0,0.0,0.0,0.0,0.0,0.0,0.7265,0.7068,0.6811,0.7034,0.71,0.0,0.0,0.0,0.0,0.0,0.0,0.0,0.0,0.0,0.6086,0.6026,0.5925,0.5778,0.5858,0.5748,0.552,0.552,0.537,0.5222,0.5284,0.5387,0.5387,0.5387,0.5503,0.5735,0.6295,0.6579,0.6579,0.0,0.0,0.0,0.0,0.7143,0.7154,0.0,0.0,0.0,0.0,0.0,0.0,0.0,0.0,0.0,0.0,0.0,0.0,0.0,0.0,0.0,-0.9942,0.0,0.0,0.0,0.0,0.0,0.0,0.0,0.0,0.0,0.0,0.0,-0.453,-0.4829,-0.5136,-0.5514,-0.5649,-0.5937,-0.6273,-0.6159,-0.5832,-0.5344,-0.5407,-0.5376,0.0,0.0,0.0,0.0,0.0,0.0,0.0,0.0,0.0,0.0,0.0,0.0,0.0,0.0,0.0,0.0,0.0,0.0,0.0,0.0,0.0,0.0,0.0,0.0,0.0,0.0,0.0,0.0,0.0,0.0,0.0,0.0,0.0,0.0,0.0,0.0,0.0,0.0,0.6981,0.6813,0.6414,0.6707,0.6745,0.0,0.0,0.0,0.0,0.0,0.0,0.585,0.5593,0.5466,0.5322,0.5271,0.5173,0.5028,0.5115,0.5004,0.4693,0.4693,0.454,0.4229,0.4229,0.4229,0.4229,0.4229,0.4229,0.4215,0.5179,0.5536,0.5536,0.5609,0.5754,0.6009,0.5849,0.5914,0.6005,0.0,0.0,0.0,0.0,0.0,0.0,0.0,0.0,0.0,0.0,0.0,0.0,0.0,0.0,-1.1568,-1.0981,-1.0417,-0.9895,0.0,0.0,0.0,0.0,0.0,0.0,0.0,0.0,0.0,-0.6268,-0.6294,-0.6462,-0.6784,-0.6794,-0.6912,-0.7031,-0.7031,-0.6647,-0.5946,-0.5845,-0.5896,-0.6059,0.0,0.0,0.0,0.0,0.0,0.0,0.0,0.0,0.0,0.0,0.0,0.0,0.0,0.0,0.0,0.0,0.0,0.0,0.0,0.0,0.0,0.0,0.0,0.0,0.0,0.0,0.0,0.0,0.0,0.0,0.0,0.0,0.0,0.0,0.0,0.0,0.0,0.0,0.0,0.5641,0.5846,0.0,0.0,0.0,0.0,0.5724,0.5114,0.4809,0.4809,0.4617,0.4365,0.4208,0.4213,0.4064,0.3912,0.3917,0.3841,0.3841,0.3841,0.3841,0.3841,0.3841,0.3841,0.3841,0.3841,0.3682,0.3602,0.4215,0.4445,0.4523,0.467,0.4675,0.453,0.4681,0.4686,0.4538,0.0,0.0,0.0,0.0,0.0,0.0,0.0,0.0,0.0,0.0,0.0,0.0,0.0,-1.2916,-1.2413,-1.1984,-1.1681,-1.1318,-1.0962,0.0,0.0,0.0,0.0,0.0,0.0,0.0,-0.7811,-0.7565,-0.7792,-0.7939,-0.7883,-0.7883,-0.7836,-0.7788,-0.7568,-0.7438,-0.7361,-0.6926,-0.669,-0.6539,-0.673,-0.6712,0.0,0.0,0.0,0.0,0.0,0.0,0.0,0.0,0.0,0.0,0.0,0.0,0.0,0.0,0.0,0.0,0.0,0.0,0.0,0.0,0.0,0.0,0.0,0.0,0.0,0.0,0.0,0.0,0.0,0.0,0.0,0.0,0.0,0.0,0.0,0.0,0.0,0.5089,0.5352,0.0,0.5061,0.513,0.5103,0.4722,0.4454,0.4246,0.4097,0.3898,0.3759,0.368,0.358,0.3451,0.3452,0.3419,0.3444,0.3284,0.3284,0.3202,0.312,0.312,0.312,0.312,0.312,0.3036,0.3036,0.32,0.3465,0.3759,0.3834,0.3915,0.3995,0.3915,0.3837,0.3759,0.0,0.0,0.0,0.0,0.0,0.0,0.0,0.0,0.0,0.0,0.0,-1.4264,-1.396,-1.3596,-1.3259,-1.2938,-1.2787,-1.2659,-1.2412,0.0,0.0,0.0,0.0,0.0,0.0,-0.9557,-0.9316,-0.8919,-0.9188,-0.9138,-0.8935,-0.8837,-0.8685,-0.854,-0.8356,-0.8391,-0.8571,-0.8356,-0.7968,-0.7448,-0.7659,-0.7527,-0.7296,0.0,0.0,0.0,0.0,0.0,0.0,0.0,0.0,0.0,0.0,0.0,0.0,0.0,0.0,0.0,0.0,0.0,0.0,0.0,0.0,0.0,0.0,0.0,0.0,0.0,0.0,0.0,0.0,0.0,0.0,0.0,0.0,0.0,0.0,0.5116,0.4997,0.4491,0.4667,0.4738,0.4282,0.4419,0.4304,0.3912,0.3756,0.3604,0.345,0.3319,0.3173,0.3173,0.3088,0.3044,0.3044,0.3088,0.3026,0.2862,0.2862,0.2862,0.2692,0.2692,0.2692,0.2692,0.2692,0.2692,0.2692,0.2692,0.289,0.3132,0.3132,0.3292,0.3374,0.3292,0.3212,0.3132,0.0,0.0,0.0,0.0,0.0,0.0,0.0,0.0,0.0,0.0,-1.5165,-1.4907,-1.4658,-1.431,-1.4019,-1.3762,-1.3782,-1.3789,-1.3671,-1.3782,0.0,0.0,0.0,0.0,-1.1453,-1.0876,-1.0532,-1.0466,-1.0312,-1.0167,-1.0012,-0.9769,-0.9465,-0.9239,-0.9439,-0.9467,-0.9397,-0.9991,-0.9633,-0.8763,-0.8763,-0.8663,-0.849,0.0,0.0,0.0,0.0,0.0,0.0,0.0,0.0,0.0,0.0,0.0,0.0,0.0,0.0,0.0,0.0,0.0,0.0,0.0,0.0,0.0,0.0,0.0,0.0,0.0,0.0,0.0,0.0,0.0,0.0,0.0,0.0,0.0,0.3894,0.4017,0.3927,0.363,0.371,0.3763,0.3763,0.3526,0.337,0.345,0.3062,0.275,0.2753,0.2653,0.2604,0.2604,0.2664,0.2695,0.2695,0.2698,0.2698,0.2698,0.2698,0.2698,0.2698,0.2698,0.2698,0.2698,0.2698,0.2698,0.2698,0.2698,0.2698,0.2698,0.2694,0.2692,0.2692,0.2692,0.2692,0.2692,0.0,0.0,0.0,0.0,0.0,0.0,0.0,0.0,0.0,0.0,-1.5448,-1.5269,-1.5072,-1.4825,-1.4655,-1.4582,-1.4676,-1.4786,-1.4836,0.0,0.0,0.0,0.0,0.0,-1.2635,-1.2339,-1.2027,-1.176,-1.156,-1.1259,-1.0956,-1.0446,-1.0165,-1.0187,-0.9904,-1.0031,-1.047,-1.0467,-1.0479,-1.0358,-0.9863,-0.94,-0.9011,0.0,0.0,0.0,0.0,0.0,0.0,0.0,0.0,0.0,0.0,0.0,0.0,0.0,0.0,0.0,0.0,0.0,0.0,0.0,0.0,0.0,0.0,0.0,0.0,0.0,0.0,0.0,0.0,0.0,0.0,0.0,0.2733,0.3044,0.3463,0.3631,0.3569,0.3263,0.3283,0.3217,0.2901,0.2823,0.2606,0.2329,0.2252,0.2189,0.2226,0.2158,0.2166,0.2166,0.2215,0.2326,0.2498,0.2539,0.2647,0.2824,0.2824,0.2824,0.2824,0.2824,0.2824,0.2824,0.2824,0.2824,0.2824,0.2824,0.2824,0.2815,0.2726,0.2692,0.2692,0.2692,0.2692,0.2692,0.0,0.0,0.0,0.0,0.0,0.0,0.0,0.0,0.0,0.0,-1.5726,-1.558,-1.5388,-1.5224,-1.5149,-1.518,-1.5404,-1.5609,-1.5752,0.0,0.0,0.0,0.0,-1.3826,-1.3779,-1.3455,-1.3112,-1.2754,-1.2501,-1.2107,-1.1669,-1.1167,-1.0897,-1.0825,-1.0644,-1.0773,-1.1204,-1.1224,-1.1261,-1.1373,-1.0863,-1.0231,-0.953,-0.9069,-0.8425,-0.7591,-0.6876,-0.6017,-0.5153,-0.4289,0.0,0.0,0.0,0.0,0.0,0.0,0.0,0.0,0.0,0.0,0.0,0.0,0.0,0.0,0.0,0.0,0.0,0.0,0.0,0.0,0.0,0.0,0.0,0.0,0.2198,0.2356,0.2746,0.2824,0.2747,0.2592,0.2613,0.2468,0.2308,0.2249,0.2194,0.1976,0.1978,0.199,0.2016,0.2036,0.2046,0.2046,0.209,0.2202,0.2291,0.232,0.2424,0.2604,0.2604,0.2604,0.2604,0.2694,0.2694,0.2784,0.2873,0.2875,0.2875,0.2875,0.2875,0.0,0.0,0.0,0.0,0.0,0.2768,0.2768,0.0,0.0,0.0,0.0,0.0,0.0,0.0,0.0,0.0,0.0,0.0,-1.5856,-1.5697,-1.5624,-1.5638,-1.5724,-1.6009,-1.6246,0.0,0.0,0.0,-1.5964,-1.5031,-1.4605,-1.4858,-1.4422,-1.3967,-1.36,-1.3304,-1.2871,-1.2353,-1.1968,-1.1653,-1.139,-1.1487,-1.1618,-1.175,-1.1997,-1.1996,-1.1802,-1.1685,-1.0996,-1.0047,-0.9652,-0.8947,-0.7987,-0.7209,-0.6412,-0.5547,-0.4619,0.0,0.0,0.0,0.0,0.0,0.0,0.0,0.0,0.0,0.0,0.0,0.0,0.0,0.0,0.0,0.0,0.0,0.0,0.0,0.0,0.0,0.0,0.0,0.0,0.1963,0.1888,0.1814,0.1815,0.1815,0.1894,0.1931,0.1876,0.1876,0.1911,0.1936,0.1941,0.1941,0.1943,0.1948,0.1985,0.0,0.0,0.0,0.2154,0.2154,0.2154,0.2154,0.2243,0.2154,0.2154,0.2154,0.2334,0.2334,0.2424,0.2604,0.2784,0.2784,0.2784,0.2784,0.2784,0.2873,0.2875,0.2875,0.2875,0.2875,0.2875,0.0,0.0,0.0,0.0,0.0,0.0,0.0,0.0,0.0,-1.5754,-1.594,-1.6095,-1.6163,-1.6258,-1.6378,-1.6538,-1.6738,-1.6738,0.0,0.0,-1.6054,-1.6312,-1.5644,-1.5448,-1.5816,-1.5499,-1.5107,-1.4777,-1.4212,-1.3742,-1.3324,-1.2501,-1.2298,-1.2615,-1.2078,-1.2134,-1.27,-1.2397,-1.2182,-1.2003,-1.1872,-1.1303,-1.0555,-0.9964,-0.9268,-0.8511,-0.7657,-0.6802,-0.5877,-0.5014,-0.422,-0.3491,-0.2753,0.0,0.0,0.0,0.0,0.0,0.0,0.0,0.0,0.0,0.0,0.0,0.0,0.0,0.0,0.0,0.0,0.0,0.0,0.0,0.0,0.1728,0.165,0.1583,0.1452,0.1455,0.1536,0.1856,0.1977,0.1921,0.1753,0.176,0.1694,0.1552,0.1554,0.1479,0.1505,0.1512,0.1516,0.1516,0.1522,0.1615,0.1885,0.1885,0.1974,0.2154,0.1974,0.0,0.1884,0.1705,0.1615,0.1615,0.1705,0.1794,0.1974,0.1974,0.2154,0.2334,0.2784,0.2875,0.2875,0.2875,0.2875,0.2875,0.0,0.0,0.0,0.0,0.0,0.0,0.0,0.0,0.0,0.0,-1.5978,-1.6266,-1.657,-1.6802,-1.7028,-1.7206,-1.7287,0.0,0.0,-1.6347,-1.6248,-1.6585,-1.6073,-1.6022,-1.6532,-1.6299,-1.592,-1.5445,-1.4994,-1.4444,-1.3894,-1.3074,-1.2897,-1.3159,-1.2602,-1.2694,-1.3216,-1.2911,-1.2605,-1.2305,-1.212,-1.1677,-1.0989,-1.0351,-0.9716,-0.9017,-0.8172,-0.7326,-0.6474,-0.5543,-0.4752,-0.4092,-0.3355,-0.282,-0.2354,0.0,0.0,0.0,0.0,0.0,0.0,0.0,0.0,0.0,0.0,0.0,0.0,0.0,0.0,0.2042,0.2042,0.0,0.1729,0.165,0.1509,0.1446,0.1301,0.1328,0.1425,0.1574,0.1687,0.1624,0.1538,0.1554,0.1483,0.1412,0.1324,0.1242,0.1255,0.1166,0.1076,0.1076,0.1076,0.1076,0.1256,0.1256,0.1345,0.1436,0.1256,0.1076,0.1076,0.0987,0.0897,0.0897,0.0987,0.1166,0.1436,0.1705,0.1885,0.2064,0.2424,0.2513,0.2513,0.2513,0.2513,0.2513,0.0,0.0,0.0,0.0,0.0,0.0,0.0,0.0,0.0,0.0,-1.5933,-1.6386,-1.6872,-1.7323,-1.7653,0.0,0.0,0.0,0.0,-1.6507,-1.6411,-1.6821,-1.6458,-1.6531,-1.7175,-1.7005,-1.6612,-1.6051,-1.5611,-1.5085,-1.4362,-1.3647,-1.3352,-1.3481,-1.3068,-1.3164,-1.3528,-1.3356,-1.2964,-1.249,-1.2305,-1.1926,-1.1303,-1.08,-1.0225,-0.9518,-0.8683,-0.7977,-0.7199,-0.6145,-0.5352,-0.4625,-0.3956,-0.3422,-0.3023,-0.2691,-0.2161,0.0,0.0,0.0,0.0,0.0,0.0,0.0,0.0,0.0,0.1493,0.165,0.1729,0.1807,0.1807,0.165,0.1572,0.1572,0.1443,0.1305,0.1229,0.1272,0.1298,0.111,0.1212,0.1311,0.1311,0.1243,0.1256,0.1256,0.1076,0.0987,0.0987,0.0718,0.0538,0.0538,0.0538,0.0538,0.0538,0.0538,0.0538,0.0448,0.0269,0.0179,0.009,0.0,-0.009,-0.009,0.0179,0.0538,0.0807,0.1345,0.1615,0.1705,0.1974,0.2064,0.2064,0.2154,0.2243,0.2243,0.0,0.0,0.0,0.0,0.0,0.0,0.0,0.0,0.0,0.0,0.0,0.0,0.0,0.0,0.0,0.0,0.0,0.0,-1.7044,-1.6664,-1.6617,-1.6972,-1.6739,-1.7028,-1.7881,-1.7707,-1.7338,-1.6866,-1.6238,-1.5591,-1.4971,-1.414,-1.3744,-1.3738,-1.3487,-1.3423,-1.358,-1.3374,-1.2964,-1.2482,-1.2243,-1.1872,-1.156,-1.1303,-1.08,-1.011,-0.9402,-0.863,-0.7787,-0.6868,-0.6017,-0.5226,-0.4625,-0.4023,-0.342,-0.3159,0.0,-0.244,-0.2236,-0.1664,-0.1056,-0.0543,-0.0156,0.0156,0.0,0.0,0.1021,0.1021,0.1178,0.1336,0.1336,0.1335,0.1335,0.1335,0.1283,0.123,0.1088,0.1029,0.0876,0.0534,0.0893,0.1072,0.0804,0.0806,0.0807,0.0807,0.0628,0.0448,0.0448,0.0179,0.009,0.009,0.009,0.009,0.009,0.009,0.0,-0.0269,-0.0448,-0.0807,-0.1166,-0.1436,-0.1704,-0.188,-0.1165,-0.0628,-0.0179,0.0538,0.0987,0.1166,0.1436,0.1525,0.1525,0.2064,0.2243,0.2243,0.0,0.0,0.0,0.0,0.0,0.0,0.0,0.0,0.0,0.0,0.0,0.0,0.0,0.0,0.0,0.0,0.0,0.0,-1.7285,-1.6802,-1.6576,-1.6576,-1.678,-1.7092,-1.7598,-1.7784,-1.7585,-1.6993,-1.6497,-1.5913,-1.521,-1.4569,-1.4148,-1.3892,-1.3578,-1.3495,-1.3606,-1.3368,-1.2964,-1.2482,-1.2305,-1.1996,-1.156,-1.1498,-1.1247,-1.08,-0.9907,-0.9139,0.0,0.0,-0.6609,-0.5888,-0.5226,-0.4625,-0.4102,-0.3696,-0.333,0.0,-0.2616,-0.2256,-0.1935,0.0,-0.1412,-0.1176,-0.0705,-0.047,-0.0235,0.0236,0.0471,0.0629,0.1021,0.11,0.11,0.0,0.1217,0.1083,0.0841,0.0607,0.0267,-0.0179,-0.0269,-0.0179,0.0269,0.0179,0.009,0.009,-0.0269,-0.0448,-0.0448,-0.0807,-0.1076,-0.1076,-0.1165,-0.1254,-0.1254,-0.1254,-0.1343,-0.1433,-0.1613,-0.1881,-0.2061,-0.2331,-0.2331,-0.2152,-0.1435,-0.0807,-0.0359,0.0454,0.0913,0.1098,0.1389,0.1488,0.1484,0.1629,0.1705,0.1705,0.0,0.0,0.0,0.0,0.0,0.0,0.0,0.0,0.0,0.0,0.0,0.0,0.0,0.0,0.0,0.0,0.0,0.0,0.0,-1.6946,-1.6561,-1.6358,-1.6611,-1.6937,-1.7301,-1.7628,-1.7585,-1.7131,-1.6765,-1.6163,-1.5345,-1.4846,-1.437,-1.3899,-1.364,-1.3417,-1.3264,-1.3156,-1.2831,-1.2287,-1.2266,-1.1934,-1.1498,-1.1498,-1.1373,-1.1115,-1.0281,-0.9652,0.0,0.0,-0.7265,-0.6544,-0.5822,-0.5223,-0.4718,-0.4161,-0.3747,-0.3399,-0.3095,0.0,0.0,-0.2586,-0.2431,-0.2275,-0.1803,-0.1646,-0.1333,-0.0628,-0.0314,0.0,0.055,0.0786,0.0943,0.1178,0.1057,0.0753,0.0421,0.0,-0.0445,-0.1075,-0.1435,-0.1434,-0.0896,-0.0896,-0.0896,-0.0896,-0.1255,-0.1524,-0.1524,-0.1883,-0.2063,-0.2063,-0.233,-0.2418,-0.2418,-0.2418,-0.2418,-0.2508,-0.2597,-0.2777,-0.2867,-0.3047,-0.278,-0.2243,-0.1535,-0.0905,-0.0272,0.0463,0.0933,0.1121,0.1423,0.1526,0.1521,0.1476,0.146,0.146,0.0,0.0,0.0,0.0,0.0,0.0,0.0,0.0,0.0,0.0,0.0,0.0,0.0,0.0,0.0,0.0,0.0,0.0,0.0,-1.7133,-1.6694,-1.6484,-1.6242,-1.6531,-1.7372,-1.7342,-1.7363,-1.7475,-1.6964,-1.6337,-1.5591,-1.4971,-1.4291,-1.3604,-1.3601,-1.3179,-1.2474,-1.275,-1.2497,-1.183,-1.205,-1.1809,-1.1303,-1.1303,-1.1247,-1.1059,-1.0611,0.0,0.0,-0.8554,-0.7847,-0.7326,-0.6338,-0.5752,0.0,-0.4571,-0.3986,-0.3638,-0.3734,-0.3602,-0.3448,-0.3448,-0.3136,-0.2747,-0.2747,-0.2431,-0.2117,-0.1882,-0.1177,-0.0471,-0.0079,0.0471,0.0864,0.0943,0.0802,0.0493,-0.0252,-0.0687,-0.1227,-0.2059,-0.2331,-0.2597,-0.2777,-0.2418,-0.2149,-0.2149,-0.2329,-0.2418,-0.2418,-0.2688,-0.2867,-0.2867,-0.2867,-0.2867,-0.2867,-0.2867,-0.2957,-0.3136,-0.3136,-0.3406,-0.3857,-0.3678,-0.3138,-0.2422,-0.1741,-0.1017,-0.0278,0.0472,0.0953,0.1238,0.143,0.1526,0.1525,0.1524,0.1523,0.1523,0.0,0.0,0.0,0.0,0.0,0.0,0.0,0.0,0.0,0.0,0.0,0.0,0.0,0.0,0.0,0.0,0.0,0.0,0.0,-1.753,-1.6968,-1.6465,-1.6533,-1.6527,-1.6468,-1.7248,-1.7473,-1.7088,-1.71,-1.6697,-1.5856,-1.5345,-1.4616,-1.3726,-1.3427,-1.2962,-1.2263,-1.2215,-1.2051,-1.1799,-1.1728,-1.1608,-1.1498,-1.1247,-1.1059,-1.087,0.0,0.0,0.0,-0.8888,-0.8182,-0.7531,-0.7003,-0.6408,-0.567,-0.481,-0.4242,-0.388,-0.3832,-0.3763,-0.3684,-0.3684,-0.3606,-0.345,-0.3292,-0.3136,-0.2899,-0.2195,-0.1725,-0.1177,-0.0393,0.0079,0.0314,0.0471,0.024,-0.0246,-0.0922,-0.1543,-0.219,-0.2773,-0.3227,0.0,-0.3587,-0.3136,-0.2867,-0.2867,-0.3047,-0.3227,-0.3227,-0.3408,-0.3587,-0.3587,-0.3764,-0.3851,-0.3851,-0.3851,-0.3851,-0.3941,-0.3765,-0.3678,-0.3678,-0.3136,-0.2438,-0.174,-0.1014,-0.028,0.0473,0.0868,0.1264,0.1461,0.1579,0.1586,0.1586,0.1586,0.1586,0.1581,0.0,0.0,0.0,0.0,0.0,0.0,0.0,0.0,0.0,0.0,0.0,0.0,0.0,0.0,0.0,0.0,0.0,0.0,0.0,0.0,-1.7245,-1.6616,-1.6576,-1.6473,-1.6215,-1.691,-1.7242,-1.7136,-1.7142,-1.6785,-1.6151,-1.5647,-1.488,-1.3905,-1.3457,-1.2841,-1.2162,-1.1886,-1.168,-1.149,-1.1441,-1.1391,-1.1323,-1.1015,-1.0774,0.0,0.0,0.0,-0.946,-0.8958,-0.8447,-0.7927,-0.7531,-0.683,-0.596,-0.4962,-0.4448,-0.4155,-0.3841,-0.3763,-0.3763,-0.3763,-0.3763,-0.3763,-0.3604,-0.3604,-0.3448,-0.2823,-0.2352,-0.1803,-0.0942,-0.0471,-0.0157,-0.0079,-0.0318,-0.0813,-0.1674,-0.2297,-0.2865,-0.3395,-0.3765,-0.4034,0.0,0.0,-0.3583,-0.3583,-0.3764,-0.3853,-0.3853,-0.3944,-0.4034,-0.4034,-0.421,-0.43,-0.43,-0.43,-0.421,-0.4123,-0.3946,-0.3587,-0.3138,-0.2439,-0.1734,-0.0926,-0.0188,0.0476,0.0965,0.1279,0.1488,0.159,0.1609,0.1617,0.1617,0.1617,0.1617,0.1611,0.0,0.0,0.0,0.0,0.0,0.0,0.0,0.0,0.0,0.0,0.0,0.0,0.0,0.0,0.0,0.0,0.0,0.0,0.0,0.0,0.0,-1.6954,-1.648,-1.6355,-1.6592,-1.6498,-1.6808,-1.7523,-1.704,-1.6692,-1.6464,-1.5884,-1.5107,-1.4222,-1.3647,-1.2939,-1.2104,-1.187,-1.1444,-1.0956,-1.1193,-1.1176,-1.0974,-1.0615,0.0,0.0,0.0,0.0,0.0,-0.8835,-0.8641,-0.8382,-0.7862,-0.6997,-0.6011,-0.5087,-0.4597,-0.4307,-0.3919,-0.3763,-0.3763,-0.3763,-0.3763,-0.3763,-0.3763,-0.3763,-0.3763,-0.3526,-0.2979,-0.2353,-0.1724,-0.1098,-0.0629,-0.0629,-0.0864,-0.1277,-0.2339,-0.2857,-0.3331,0.0,0.0,0.0,0.0,0.0,0.0,-0.43,-0.43,-0.43,-0.43,-0.43,-0.43,-0.43,-0.43,-0.43,-0.43,-0.43,-0.4121,-0.3859,-0.3678,-0.3139,-0.2424,-0.165,-0.0926,-0.0186,0.058,0.0983,0.1281,0.1504,0.1617,0.1617,0.1617,0.1617,0.1617,0.1617,0.1617,0.1617,0.0,0.0,0.0,0.0,0.0,0.0,0.0,0.0,0.0,0.0,0.0,0.0,0.0,0.0,0.0,0.0,0.0,0.0,0.0,0.0,0.0,0.0,0.0,0.0,0.0,0.0,0.0,0.0,-1.6676,-1.6501,-1.6278,-1.5674,-1.5069,-1.4571,-1.4061,-1.3266,-1.2314,-1.1977,-1.1679,-1.1424,0.0,-1.1161,-1.1065,0.0,0.0,0.0,0.0,0.0,0.0,0.0,0.0,0.0,-0.7531,-0.6997,-0.6444,-0.5369,-0.4822,-0.4465,-0.3919,-0.3763,-0.3763,-0.3763,-0.3763,-0.3763,-0.3763,-0.3763,-0.3763,-0.3526,-0.3057,-0.2589,-0.2117,-0.1649,-0.1414,-0.1568,-0.1726,0.0,-0.3005,-0.336,0.0,-0.419,0.0,-0.43,-0.43,-0.43,0.0,-0.43,-0.43,-0.43,-0.43,-0.43,-0.43,-0.43,-0.43,-0.43,-0.43,-0.43,-0.4121,-0.3859,-0.3317,-0.2709,-0.1833,-0.1015,-0.0188,0.0581,0.0978,0.1287,0.1506,0.1613,0.1617,0.1617,0.1617,0.1617,0.1617,0.1617,0.1617,0.1617,0.0,0.0,0.0,0.0,0.0,0.0,0.0,0.0,0.0,0.0,0.0,0.0,0.0,0.0,0.0,0.0,0.0,0.0,0.0,0.0,0.0,0.0,0.0,0.0,0.0,0.0,0.0,0.0,0.0,0.0,-1.5956,-1.5383,-1.4893,-1.4586,-1.3989,-1.3356,-1.2638,-1.2116,0.0,0.0,0.0,0.0,0.0,0.0,0.0,0.0,0.0,0.0,0.0,0.0,0.0,-0.8242,-0.7526,-0.7144,-0.6702,-0.5493,0.0,-0.4637,-0.3986,-0.3763,-0.3763,-0.3763,-0.3763,-0.3763,-0.3763,-0.3763,-0.3763,-0.3682,-0.3372,-0.2981,-0.2668,-0.2356,-0.2198,-0.2275,0.0,0.0,-0.3376,-0.3591,-0.3831,0.0,-0.4277,0.0,-0.43,-0.43,-0.43,-0.43,-0.43,-0.43,-0.43,-0.43,-0.43,-0.43,-0.43,-0.43,-0.43,-0.43,-0.4032,-0.3587,-0.2985,-0.2193,-0.1202,-0.0377,0.0385,0.1081,0.1288,0.1501,0.1617,0.1617,0.1617,0.1617,0.1617,0.1617,0.1617,0.1617,0.1516,0.1415,0.0,0.0,0.0,0.0,0.0,0.0,0.0,0.0,0.0,0.0,0.0,0.0,0.0,0.0,0.0,0.0,0.0,0.0,0.0,0.0,0.0,0.0,0.0,0.0,0.0,0.0,0.0,0.0,0.0,0.0,0.0,0.0,0.0,0.0,0.0,0.0,0.0,0.0,0.0,0.0,0.0,0.0,0.0,0.0,0.0,0.0,0.0,0.0,0.0,0.0,-0.8447,-0.8382,-0.7722,-0.7332,-0.6915,-0.5538,-0.4956,-0.4631,-0.3973,-0.3763,-0.3763,-0.3763,-0.3763,-0.3763,-0.3763,-0.3763,-0.3763,-0.3763,-0.3604,-0.3448,-0.3217,-0.2982,-0.2826,-0.2904,0.0,-0.3086,-0.3562,-0.3718,-0.3886,-0.4161,-0.4238,-0.4285,-0.4297,-0.43,-0.43,-0.43,-0.43,-0.43,-0.43,-0.43,-0.43,-0.43,-0.43,-0.43,-0.43,-0.43,-0.3941,-0.3227,-0.2654,-0.1851,-0.0651,0.0097,0.0786,0.1283,0.1505,0.1617,0.1617,0.1617,0.1617,0.1617,0.1617,0.1617,0.1617,0.1516,0.1415,0.1212,0.0,0.0,0.0,0.0,0.0,0.0,0.0,0.0,0.0,0.0,-1.3778,-1.5032,0.0,0.0,0.0,0.0,0.0,0.0,0.0,0.0,0.0,0.0,0.0,0.0,0.0,0.0,0.0,0.0,0.0,0.0,0.0,0.0,0.0,0.0,0.0,0.0,0.0,0.0,0.0,0.0,0.0,0.0,0.0,0.0,0.0,0.0,0.0,0.0,0.0,0.0,-0.8376,-0.8382,-0.7722,-0.7332,-0.6915,-0.5538,-0.4956,-0.4631,-0.3973,-0.3763,-0.3763,-0.3763,-0.3763,-0.3763,-0.3763,-0.3763,0.0,0.0,-0.3604,-0.3448,-0.3448,-0.3215,-0.3139,-0.337,-0.337,-0.3478,-0.3804,-0.383,-0.3985,0.0,-0.4185,-0.4222,-0.4293,-0.43,0.0,-0.43,-0.43,-0.43,-0.43,-0.43,-0.43,-0.43,-0.43,-0.43,-0.43,-0.43,-0.3941,-0.3227,-0.2561,-0.1585,-0.038,0.0389,0.0991,0.1509,0.1614,0.0,0.1617,0.1617,0.1617,0.1617,0.1617,0.1617,0.1617,0.1314,0.1212,0.1212,0.0,0.0,0.0,0.0,0.0,0.0,0.0,-1.0048,-1.0493,-1.0878,-1.2182,-1.3452,-1.4398,-1.514,0.0,0.0,0.0,0.0,0.0,0.0,0.0,0.0,0.0,0.0,0.0,0.0,0.0,0.0,0.0,0.0,0.0,0.0,0.0,0.0,0.0,0.0,0.0,0.0,0.0,0.0,0.0,0.0,0.0,0.0,0.0,0.0,0.0,0.0,0.0,0.0,-0.8047,-0.7857,-0.733,-0.6933,-0.6384,-0.5306,-0.4764,-0.4405,-0.3958,-0.3763,-0.3763,-0.3763,-0.3763,-0.3763,-0.3763,0.0,0.0,0.0,-0.3604,-0.3526,-0.3526,-0.3215,-0.2982,-0.3217,-0.3215,-0.3228,-0.3661,-0.3706,-0.3866,-0.4085,-0.4144,-0.4206,-0.4291,-0.43,-0.43,-0.43,-0.43,-0.43,-0.43,-0.43,-0.43,-0.43,-0.43,-0.43,-0.43,-0.4121,-0.3695,-0.3007,-0.2323,-0.1328,-0.0097,0.0494,0.1102,0.1617,0.1617,0.1617,0.1617,0.1617,0.1617,0.1617,0.1617,0.1617,0.1617,0.1313,0.1111,0.0909,0.0,0.0,0.0,0.0,0.0,0.0,0.0,-0.8963,-0.9538,-0.9902,-1.0734,-1.175,-1.2975,-1.3986,-1.4602,0.0,0.0,0.0,0.0,0.0,0.0,0.0,0.0,0.0,0.0,0.0,0.0,0.0,0.0,0.0,0.0,0.0,0.0,0.0,0.0,0.0,0.0,0.0,0.0,0.0,0.0,0.0,0.0,0.0,0.0,0.0,0.0,0.0,0.0,0.0,-0.7488,-0.7129,-0.6679,-0.6346,-0.587,-0.4974,-0.4485,-0.4254,-0.3842,-0.3748,-0.3763,-0.3763,-0.3763,-0.3763,-0.3763,-0.3763,0.0,-0.3763,-0.3604,-0.3448,-0.3448,-0.3059,-0.2826,0.0,-0.2826,-0.2902,-0.337,-0.3504,-0.3664,-0.3938,-0.4099,0.0,-0.4287,-0.43,0.0,-0.43,-0.43,-0.43,-0.43,-0.43,-0.43,-0.43,-0.43,-0.43,-0.421,-0.3944,-0.3443,-0.2775,-0.198,-0.1059,0.0098,0.0601,0.1111,0.1617,0.1617,0.1617,0.1617,0.1617,0.1617,0.1617,0.1617,0.1617,0.1516,0.1212,0.101,0.0707,0.0,0.0,0.0,0.0,0.0,0.0,0.0,-0.8226,-0.8598,-0.9044,-0.982,-1.0452,-1.0759,-1.2238,-1.32,0.0,0.0,0.0,0.0,0.0,0.0,0.0,0.0,0.0,0.0,0.0,0.0,0.0,0.0,0.0,0.0,0.0,0.0,0.0,0.0,0.0,0.0,0.0,0.0,0.0,0.0,0.0,0.0,0.0,0.0,0.0,0.0,0.0,0.0,0.0,0.0,-0.6145,-0.569,-0.569,-0.5722,-0.4723,0.0,0.0,-0.3761,-0.3699,-0.3763,-0.3763,-0.3763,-0.3763,-0.3763,0.0,-0.3763,-0.3763,-0.3604,-0.3448,-0.3217,-0.2826,-0.2511,0.0,0.0,-0.2668,-0.3061,-0.3379,-0.3599,-0.393,0.0,0.0,-0.4283,-0.43,-0.43,-0.43,-0.43,-0.43,-0.43,-0.43,-0.43,-0.43,-0.43,-0.4212,-0.3946,-0.3767,-0.3172,-0.2222,-0.1417,-0.0578,0.0393,0.0902,0.1314,0.1617,0.1617,0.1617,0.0,0.1617,0.1617,0.1617,0.1617,0.1617,0.1516,0.101,0.0808,0.0707,0.0,0.0,0.0,0.0,0.0,0.0,-0.7383,-0.7647,-0.7966,-0.8344,-0.8816,-0.9176,-0.9322,-1.0209,-1.1082,0.0,0.0,0.0,0.0,0.0,0.0,0.0,0.0,0.0,0.0,0.0,0.0,0.0,0.0,0.0,0.0,0.0,0.0,0.0,0.0,0.0,0.0,0.0,0.0,0.0,0.0,0.0,0.0,0.0,0.0,0.0,0.0,0.0,0.0,0.0,0.0,0.0,-0.5064,-0.4827,0.0,0.0,-0.406,-0.3949,-0.3676,-0.3693,-0.3763,-0.3763,-0.3763,-0.3763,-0.3763,0.0,-0.3763,-0.3763,-0.345,-0.2981,-0.2747,-0.2119,-0.157,0.0,0.0,0.0,-0.2433,-0.2744,-0.3112,-0.3762,-0.3783,-0.3933,0.0,0.0,-0.43,-0.43,-0.4123,-0.4034,-0.4034,-0.4034,-0.4034,-0.4034,-0.3764,-0.3585,-0.3497,-0.296,-0.2372,-0.1697,-0.095,-0.0194,0.0699,0.1007,0.1314,0.1617,0.1617,0.1617,0.0,0.1617,0.1617,0.1617,0.1617,0.1617,0.1516,0.101,0.0808,0.0707,0.0,0.0,0.0,0.0,0.0,-0.6772,-0.6984,-0.7184,-0.7442,-0.7763,-0.7974,-0.8135,-0.8266,-0.8571,-0.9109,-0.9996,0.0,0.0,0.0,0.0,0.0,0.0,0.0,0.0,0.0,0.0,0.0,-1.0598,-1.0292,0.0,0.0,0.0,0.0,0.0,0.0,0.0,0.0,0.0,0.0,0.0,0.0,0.0,0.0,0.0,0.0,0.0,0.0,0.0,0.0,0.0,0.0,0.0,0.0,0.0,0.0,0.0,-0.3734,-0.3689,-0.3636,-0.3654,-0.373,-0.3756,-0.3763,-0.3763,0.0,0.0,-0.3763,-0.3763,-0.3294,-0.2746,-0.2431,-0.1569,-0.0864,0.0,0.0,-0.1099,-0.196,-0.2353,-0.2788,-0.3562,0.0,-0.3836,-0.4246,-0.4283,-0.43,-0.43,-0.4034,-0.3859,-0.3859,-0.3676,-0.3587,-0.3678,-0.3227,-0.2957,-0.2869,-0.2242,-0.1649,-0.1049,-0.0286,0.0292,0.0909,0.1212,0.1415,0.1617,0.1617,0.1617,0.0,0.1617,0.1617,0.1617,0.1617,0.1617,0.1516,0.1111,0.0909,0.0707,0.0,0.0,0.0,0.0,0.0,0.0,0.0,-0.6863,-0.6996,-0.7266,-0.7325,-0.7355,-0.7501,-0.75,-0.7549,-0.7627,0.0,0.0,0.0,0.0,0.0,0.0,0.0,0.0,0.0,0.0,0.0,-0.9415,-0.9004,-0.8529,-0.8024,-0.7675,0.0,0.0,0.0,0.0,0.0,0.0,0.0,0.0,0.0,0.0,0.0,0.0,0.0,0.0,0.0,0.0,0.0,0.0,0.0,0.0,0.0,0.0,0.0,0.0,-0.3564,-0.3589,-0.3547,-0.3563,-0.3648,-0.374,-0.3763,-0.3763,0.0,0.0,-0.3763,-0.3763,-0.3294,-0.2668,-0.2275,-0.1334,-0.0628,-0.0628,0.0,0.0,-0.1803,-0.2275,-0.277,0.0,-0.3647,-0.3817,-0.4165,-0.4249,-0.43,-0.43,-0.4034,-0.3859,-0.3859,-0.3047,-0.2688,-0.3227,-0.2777,-0.2419,-0.2243,-0.1436,-0.0824,-0.0286,0.0477,0.0974,0.1212,0.1516,0.1617,0.1617,0.1617,0.1617,0.0,0.1617,0.1617,0.1617,0.1617,0.1617,0.1617,0.1313,0.101,0.0808,0.0,0.0,0.0,0.0,0.0,0.0,0.0,-0.646,-0.6551,-0.6725,-0.6807,-0.6889,-0.7077,-0.7086,-0.7125,-0.7235,0.0,0.0,0.0,0.0,0.0,0.0,0.0,0.0,0.0,0.0,-0.809,-0.7967,-0.7818,-0.7578,-0.7161,-0.693,-0.6641,-0.6295,0.0,0.0,0.0,0.0,0.0,0.0,0.0,0.0,0.0,0.0,0.0,0.0,0.0,0.0,0.0,0.0,0.0,0.0,0.0,0.0,0.0,0.0,0.0,0.0,-0.3475,-0.3563,-0.3648,-0.374,-0.3763,-0.3763,-0.3604,-0.3604,-0.3526,-0.3374,-0.2824,-0.2275,-0.1882,-0.0941,-0.0157,0.0,0.0157,0.0,0.0,0.0,0.0,-0.3079,-0.3699,-0.3992,-0.399,-0.402,-0.3944,-0.3855,-0.3587,-0.3406,-0.3227,-0.242,-0.2241,-0.2688,-0.1792,-0.1255,-0.1166,-0.0448,0.0092,0.0477,0.0858,0.1168,0.1516,0.1516,0.1617,0.1617,0.1617,0.1617,0.1617,0.1617,0.1617,0.1617,0.1617,0.1617,0.1617,0.1313,0.101,0.0808,0.0,0.0,0.0,0.0,0.0,0.0,0.0,-0.6183,-0.6214,-0.6253,-0.6307,-0.6399,-0.6521,-0.6551,-0.6604,-0.6717,0.0,0.0,0.0,0.0,0.0,0.0,0.0,0.0,0.0,-0.6796,-0.6693,-0.6525,-0.6482,-0.6313,-0.6021,-0.5819,-0.5561,-0.5351,-0.513,0.0,0.0,0.0,0.0,0.0,0.0,0.0,-0.4216,0.0,0.0,0.0,0.0,0.0,0.0,0.0,0.0,0.0,0.0,0.0,0.0,0.0,-0.3267,-0.3332,0.0,-0.3514,-0.3599,-0.3689,-0.3738,0.0,0.0,-0.3448,-0.3294,-0.3141,-0.2589,-0.2038,-0.1646,-0.0628,0.0157,0.0393,0.055,0.0471,0.0,0.0,0.0,-0.3035,-0.3714,-0.4082,-0.3937,-0.3859,-0.3857,-0.3587,-0.3317,-0.2957,-0.2777,-0.1882,-0.1524,-0.1702,-0.0896,-0.0359,-0.0269,0.0359,0.073,0.0943,0.114,0.1454,0.16,0.1611,0.1617,0.1617,0.1617,0.1617,0.0,0.1617,0.1617,0.1617,0.1617,0.1617,0.1617,0.1415,0.1212,0.0909,0.0,0.0,0.0,0.0,0.0,0.0,0.0,0.0,-0.5936,-0.5881,-0.5857,-0.5857,-0.5857,-0.5905,-0.5983,-0.6037,0.0,0.0,0.0,0.0,0.0,0.0,0.0,0.0,0.0,-0.5387,-0.5298,-0.5173,-0.5038,-0.4904,-0.4691,-0.443,-0.4308,-0.4184,-0.3953,-0.3818,-0.3778,-0.3435,-0.3262,-0.3179,-0.3487,-0.3489,0.0,0.0,0.0,0.0,0.0,0.0,0.0,0.0,0.0,0.0,0.0,0.0,0.0,0.0,0.0,0.0,0.0,-0.3426,-0.352,-0.3531,-0.354,0.0,0.0,0.0,0.0,-0.3062,-0.2589,-0.204,-0.1647,-0.0549,0.0314,0.055,0.0786,0.0707,0.0079,-0.0786,0.0,0.0,-0.3697,-0.3935,-0.3842,-0.3767,-0.3678,-0.3497,-0.3047,-0.2688,-0.2418,-0.1255,-0.0538,-0.0359,-0.009,0.0179,0.0448,0.0897,0.1088,0.111,0.1415,0.154,0.1573,0.16,0.1615,0.0,0.1617,0.1617,0.1617,0.1617,0.1617,0.1617,0.1617,0.1617,0.1617,0.1617,0.1415,0.1212,0.0,0.0,0.0,0.0,0.0,0.0,0.0,0.0,0.0,0.0,-0.5467,-0.5467,-0.5592,-0.5515,-0.5508,0.0,0.0,0.0,0.0,0.0,0.0,0.0,0.0,0.0,0.0,-0.4038,-0.3997,-0.3862,-0.3909,-0.3865,-0.373,-0.3646,-0.3514,-0.3296,-0.3208,-0.2984,-0.2677,-0.2591,-0.2549,-0.2549,-0.271,-0.2795,0.0,0.0,0.0,0.0,-0.2464,-0.2464,0.0,0.0,0.0,0.0,0.0,0.0,0.0,0.0,-0.3226,-0.323,-0.3252,0.0,-0.3449,-0.3385,-0.3465,-0.337,0.0,0.0,0.0,0.0,0.0,-0.1886,-0.1414,-0.055,0.0157,0.055,0.0943,0.0943,0.0314,-0.0942,-0.1996,-0.2761,-0.3278,-0.3333,-0.2856,-0.2867,-0.2598,-0.1973,-0.1793,-0.1524,-0.1165,-0.0538,0.0,0.0448,0.0807,0.0987,0.0897,0.1166,0.136,0.1388,0.1488,0.1519,0.1572,0.1579,0.1595,0.1617,0.1617,0.1617,0.1617,0.1617,0.1617,0.1617,0.1617,0.1617,0.1617,0.1617,0.1415,0.1212,0.0,0.0,0.0,0.0,0.0,0.0,0.0,0.0,0.0,0.0,0.0,0.0,0.0,0.0,0.0,0.0,0.0,0.0,0.0,0.0,0.0,0.0,0.0,0.0,-0.2878,-0.285,-0.276,-0.2581,-0.2581,-0.2536,-0.2492,-0.2495,-0.241,-0.2277,-0.2233,-0.2099,-0.1878,-0.1878,-0.1925,-0.1969,-0.2105,0.0,0.0,0.0,0.0,0.0,-0.2018,-0.2076,0.0,-0.224,-0.2405,-0.2665,0.0,0.0,0.0,0.0,-0.3159,-0.3226,-0.3226,-0.336,-0.3439,-0.3263,-0.3286,-0.3215,-0.2746,0.0,0.0,0.0,0.0,-0.1885,-0.1492,-0.0629,0.0157,0.055,0.11,0.11,0.0157,-0.0785,-0.1757,-0.251,-0.2775,-0.2736,-0.2411,-0.2152,-0.1792,-0.1256,-0.1076,-0.0718,-0.0179,0.0269,0.0718,0.1166,0.1436,0.1436,0.1256,0.1345,0.1444,0.146,0.1474,0.1505,0.1551,0.1565,0.1588,0.1617,0.1617,0.1617,0.1617,0.1617,0.1617,0.1617,0.1617,0.1617,0.1617,0.1617,0.1516,0.1415,0.0,0.0,0.0,0.0,0.0,0.0,0.0,0.0,0.0,0.0,0.0,0.0,0.0,0.0,0.0,0.0,0.0,0.0,0.0,0.0,0.0,0.0,0.0,-0.2284,-0.1804,-0.1785,-0.1641,-0.1383,-0.1248,-0.1204,-0.1204,-0.1207,-0.1208,-0.1208,-0.1208,-0.1253,-0.1254,-0.1254,-0.1344,-0.1523,-0.1614,0.0,0.0,0.0,0.0,0.0,0.0,0.0,0.0,-0.1849,-0.2112,-0.2353,-0.2439,0.0,0.0,0.0,0.0,0.0,-0.3159,-0.3289,-0.3354,-0.3207,-0.3104,-0.2982,-0.2589,0.0,0.0,0.0,0.0,0.0,-0.165,-0.0786,0.0,0.0471,0.11,0.0,-0.0079,-0.055,-0.1119,-0.2091,-0.2103,-0.2054,-0.1966,-0.1436,-0.0987,-0.0807,-0.0359,0.009,0.0628,0.0987,0.1436,0.1884,0.1885,0.1794,0.1436,0.1436,0.1436,0.1436,0.1461,0.149,0.152,0.1551,0.1581,0.161,0.0,0.0,0.1617,0.1617,0.1617,0.1617,0.1617,0.1617,0.1617,0.1617,0.1617,0.1617,0.0,0.0,0.0,0.0,0.0,0.0,0.0,0.0,0.0,0.0,0.0,0.0,0.0,0.0,0.0,0.0,0.0,0.0,0.0,0.0,0.0,0.0,-0.1459,-0.1425,-0.0902,-0.0784,-0.0647,-0.0402,-0.0268,-0.0223,-0.0223,-0.0224,-0.0268,-0.0403,-0.0403,-0.0492,-0.0626,-0.0626,-0.076,-0.103,-0.103,0.0,0.0,0.0,0.0,0.0,0.0,0.0,0.0,-0.1346,-0.1687,-0.211,-0.2179,0.0,0.0,0.0,0.0,0.0,-0.3023,-0.3008,-0.2987,-0.2987,-0.3028,-0.2982,-0.2589,0.0,0.0,0.0,0.0,0.0,0.0,-0.0864,-0.0157,0.0,0.0,0.0786,0.0314,-0.0157,-0.056,-0.1173,-0.1177,-0.1026,-0.0714,-0.0179,0.0269,0.0718,0.0987,0.1256,0.1525,0.1884,0.2064,0.2154,0.2334,0.2154,0.1705,0.1525,0.1436,0.1436,0.144,0.1458,0.1489,0.1519,0.155,0.158,0.0,0.1617,0.1617,0.1617,0.1617,0.1617,0.1617,0.1617,0.1617,0.1617,0.1617,0.1617,0.0,0.0,0.0,0.0,0.0,0.0,0.0,0.0,0.0,0.0,0.0,0.0,0.0,0.0,0.0,0.0,0.0,0.0,0.0,0.0,0.0,-0.0067,-0.0035,-0.0074,-0.0118,0.0082,0.0343,0.0626,0.0716,0.0805,0.0851,0.0805,0.0671,0.0492,0.0492,0.0313,0.0045,0.0,-0.0179,-0.0403,0.0,0.0,0.0,0.0,0.0,0.0,0.0,0.0,0.0,0.0,-0.1177,-0.1644,-0.1752,0.0,0.0,0.0,0.0,0.0,-0.3023,-0.2938,-0.284,-0.2767,-0.2876,-0.2826,-0.2431,-0.2431,0.0,0.0,0.0,0.0,0.0,0.0,-0.0157,0.0864,0.0,0.11,0.0707,0.0393,0.0,-0.0419,-0.0337,-0.0171,0.0,0.0628,0.0987,0.1256,0.1615,0.1974,0.2154,0.2334,0.2424,0.2603,0.2513,0.2334,0.1974,0.1794,0.1525,0.1436,0.1436,0.1451,0.1482,0.1512,0.1543,0.1573,0.0,0.1617,0.1617,0.1617,0.1617,0.1617,0.1617,0.1617,0.1617,0.1617,0.1617,0.1617,0.0,0.0,0.0,0.0,0.0,0.0,0.0,0.0,0.0,0.0,0.0,0.0,0.0,0.0,0.0,0.0,0.0,0.0,0.0,0.0,0.0569,0.0835,0.1267,0.1228,0.0705,0.0942,0.1242,0.1523,0.1612,0.1746,0.1837,0.1746,0.1567,0.1387,0.1343,0.1119,0.0716,0.0671,0.0447,0.018,0.0,0.0,0.0,0.0,0.0,0.0,0.0,0.0,0.0,0.0,0.0,0.0,0.0,0.0,0.0,-0.2583,-0.2755,-0.2891,-0.2891,-0.28,-0.2696,-0.2549,0.0,-0.2668,-0.2353,-0.2431,0.0,0.0,0.0,0.0,0.0,-0.0942,0.0,0.1415,0.165,0.1493,0.1021,0.0864,0.0638,0.0166,0.0336,0.0513,0.0532,0.1163,0.1615,0.1615,0.2064,0.2424,0.2603,0.2604,0.2694,0.2875,0.2694,0.2513,0.2244,0.2064,0.1705,0.1436,0.1436,0.1447,0.1471,0.1502,0.1528,0.1552,0.159,0.1607,0.1607,0.1614,0.1617,0.1617,0.1617,0.1617,0.1617,0.1617,0.1617,0.1617,0.0,0.0,0.0,0.0,0.0,0.0,0.0,0.0,0.0,0.0,0.0,0.0,0.0,0.0,0.0,0.0,0.0,0.0,0.0,0.0,0.1607,0.1869,0.2148,0.208,0.1525,0.1842,0.2096,0.2235,0.237,0.2506,0.2642,0.2598,0.2462,0.219,0.2099,0.1787,0.1344,0.1344,0.1074,0.0674,0.0702,0.0,0.0,0.0,0.0,0.0,0.0,0.0,0.0,0.0,0.0,0.0,0.0,0.0,-0.2199,-0.2335,-0.2423,-0.2423,-0.2423,-0.2384,-0.2335,-0.2335,-0.2575,0.0,-0.2511,-0.2668,0.0,-0.2747,0.0,0.0,0.0,-0.0549,0.0786,0.1493,0.1729,0.1729,0.1335,0.1257,0.1111,0.0651,0.0832,0.0935,0.0957,0.1687,0.2154,0.2154,0.2603,0.2873,0.2873,0.2873,0.2873,0.2875,0.2873,0.2784,0.2513,0.2244,0.1885,0.1436,0.1436,0.1436,0.144,0.147,0.1485,0.1491,0.1549,0.1575,0.1577,0.1605,0.1617,0.1617,0.1617,0.1617,0.1617,0.1617,0.1617,0.1617,0.0,0.0,0.0,0.0,0.0,0.0,0.0,0.0,0.0,0.0,0.0,0.0,0.0,0.0,0.0,0.0,0.0,0.0,0.0,0.0,0.2374,0.2567,0.2871,0.2949,0.2843,0.2777,0.2822,0.2996,0.317,0.3258,0.3258,0.3303,0.3214,0.2993,0.2768,0.2457,0.2059,0.1882,0.1638,0.1448,0.1362,0.1263,0.0,0.0,0.0,0.0,0.0,0.0,0.0,0.0,0.0344,-0.0296,0.0,-0.1323,-0.1944,-0.2203,-0.2356,-0.2424,-0.2424,-0.2382,-0.2335,-0.2335,-0.2424,0.0,0.0,-0.2668,-0.2826,-0.2826,-0.2826,0.0,0.0,0.0,0.1178,0.1729,0.1963,0.1962,0.1729,0.1572,0.1348,0.1055,0.1148,0.1171,0.1213,0.1752,0.2124,0.2241,0.2604,0.2875,0.2875,0.2875,0.2875,0.2875,0.2875,0.2784,0.2513,0.2424,0.2154,0.1615,0.1436,0.1436,0.1436,0.1467,0.148,0.1483,0.1525,0.1543,0.1545,0.1576,0.1589,0.1591,0.1609,0.1605,0.1589,0.1589,0.1589,0.1589,0.0,0.0,0.0,0.0,0.0,0.0,0.0,0.0,0.0,0.0,0.0,0.0,0.0,0.0,0.0,0.0,0.0,0.0,0.0,0.3064,0.3228,0.3382,0.3614,0.3803,0.3935,0.3749,0.3638,0.3619,0.3877,0.3961,0.3961,0.3961,0.3877,0.366,0.3344,0.299,0.264,0.2316,0.2137,0.2009,0.1863,0.172,0.0,0.0,0.0,0.0,0.0,0.0,0.0,0.0,0.0815,0.0,0.0,0.0,0.0,0.0,-0.2087,-0.2221,-0.2221,-0.2243,-0.2335,0.0,0.0,0.0,-0.2511,-0.2668,-0.2904,-0.2904,-0.2668,-0.2118,-0.0864,0.0,0.0,0.1808,0.2119,0.2198,0.1964,0.1807,0.1581,0.1366,0.1296,0.1318,0.1443,0.181,0.2186,0.2219,0.2684,0.2875,0.2875,0.2875,0.2875,0.2875,0.2875,0.2784,0.2604,0.2513,0.2334,0.1974,0.1705,0.1525,0.1436,0.1457,0.1466,0.1468,0.1498,0.1512,0.1514,0.1545,0.1557,0.1559,0.158,0.1575,0.1557,0.1557,0.1557,0.1557,0.0,0.0,0.0,0.0,0.0,0.0,0.0,0.0,0.0,0.0,0.0,0.0,0.0,0.0,0.0,0.0,0.0,0.0,0.4001,0.407,0.4212,0.4492,0.4456,0.4485,0.47,0.4782,0.4583,0.4108,0.4447,0.4666,0.4801,0.4666,0.4487,0.4272,0.3829,0.3388,0.2998,0.2709,0.2474,0.2299,0.2324,0.213,0.1928,0.0,0.0,0.0,0.0,0.0,0.0,0.0,0.1204,0.0807,0.0,0.0,0.0,-0.121,-0.1547,-0.1884,-0.1884,-0.2101,-0.2335,0.0,0.0,0.0,-0.2511,-0.2826,-0.3062,-0.3062,-0.2431,-0.1647,-0.0785,0.0471,0.0,0.1808,0.2277,0.2354,0.1964,0.1887,0.1729,0.1335,0.1284,0.1384,0.1547,0.1864,0.2172,0.2347,0.2749,0.2873,0.2873,0.2875,0.2875,0.2875,0.2875,0.2875,0.2875,0.2604,0.2513,0.2513,0.2064,0.1705,0.1436,0.1436,0.1436,0.1437,0.1467,0.148,0.1483,0.1513,0.1525,0.1526,0.1526,0.1525,0.1525,0.1525,0.1525,0.1525,0.0,0.0,0.0,0.0,0.0,0.0,0.0,0.0,0.0,0.0,0.0,0.0,0.0,0.0,0.0,0.0,0.0,0.0,0.0,0.4648,0.4641,0.4772,0.4755,0.4839,0.503,0.5207,0.5145,0.4801,0.4975,0.5149,0.5275,0.5149,0.4971,0.4748,0.422,0.3801,0.3447,0.2931,0.2752,0.2789,0.2584,0.2376,0.2099,0.0,0.0,0.0,0.0,0.0,0.0,0.0,0.0,0.0,0.0,0.0,0.0,-0.0672,-0.121,-0.1748,-0.1884,-0.2101,0.0,-0.2335,0.0,0.0,0.0,-0.2904,0.0,0.0,-0.2431,-0.1647,-0.0785,0.0471,0.0,0.1808,0.2277,0.2433,0.2119,0.1963,0.1808,0.1572,0.1503,0.1519,0.1625,0.1976,0.2255,0.229,0.2602,0.2811,0.2811,0.2852,0.2875,0.2875,0.2875,0.2875,0.2875,0.2784,0.2694,0.2513,0.2334,0.2064,0.1705,0.1525,0.1436,0.1436,0.1444,0.1449,0.1451,0.1482,0.1507,0.1526,0.1526,0.1513,0.1494,0.1494,0.1494,0.1494,0.0,0.0,0.0,0.0,0.0,0.0,0.0,0.0,0.0,0.0,0.0,0.0,0.0,0.0,0.0,0.0,0.0,0.0,0.0,0.0,0.5437,0.5418,0.5496,0.5561,0.5655,0.5721,0.575,0.5658,0.5534,0.5583,0.5712,0.5583,0.5404,0.5188,0.4652,0.4252,0.3889,0.3334,0.3115,0.3035,0.281,0.2585,0.2296,0.0,0.0,0.0,0.0,0.0,0.0,0.0,0.0,0.0,0.0,0.0,0.0,-0.0067,-0.0672,-0.121,-0.148,-0.1891,0.0,-0.2189,-0.2499,-0.2824,-0.3059,0.0,0.0,0.0,-0.2511,-0.1725,-0.0785,0.0393,0.0,0.1808,0.2277,0.2431,0.2196,0.2042,0.1808,0.165,0.1572,0.166,0.1684,0.2103,0.2371,0.2403,0.2628,0.2747,0.2747,0.2805,0.2838,0.2838,0.2861,0.2875,0.2875,0.2875,0.2784,0.2694,0.2513,0.2334,0.1974,0.1705,0.1525,0.1436,0.1436,0.1436,0.1437,0.1455,0.1473,0.149,0.149,0.1479,0.1463,0.1463,0.1463,0.1463,0.0,0.0,0.0,0.0,0.0,0.0,0.0,0.0,0.0,0.0,0.0,0.0,0.0,0.0,0.0,0.0,0.0,0.0,0.0,0.0,0.6395,0.6256,0.6453,0.6497,0.6374,0.6307,0.6349,0.6526,0.6093,0.5927,0.6062,0.5879,0.5707,0.5501,0.5147,0.4739,0.4302,0.3856,0.3453,0.321,0.2989,0.2747,0.2521,0.2521,0.0,0.0,0.0,0.0,0.0,0.0,0.0,0.0,0.1734,0.1412,0.1076,0.0538,0.0,-0.0538,-0.0941,-0.1541,0.0,-0.2115,-0.2424,0.0,-0.337,-0.3448,-0.3372,-0.3141,0.0,-0.1883,-0.0785,0.0236,0.11,0.1729,0.2199,0.2431,0.2275,0.2042,0.1886,0.165,0.165,0.1729,0.1886,0.2162,0.243,0.2593,0.265,0.2684,0.2684,0.2741,0.2778,0.2783,0.2837,0.2868,0.2875,0.2875,0.2875,0.2875,0.2694,0.2424,0.2243,0.1974,0.1615,0.1436,0.1436,0.1436,0.1436,0.1436,0.1436,0.1436,0.1436,0.1436,0.1436,0.1436,0.1436,0.1436,0.0,0.0,0.0,0.0,0.0,0.0,0.0,0.0,0.0,0.0,0.0,0.0,0.0,0.0,0.0,0.0,0.0,0.0,0.0,0.0,0.6909,0.676,0.6939,0.6974,0.6781,0.6745,0.6702,0.6666,0.641,0.6319,0.6398,0.6184,0.5964,0.5712,0.55,0.5085,0.4564,0.411,0.372,0.3322,0.3019,0.2747,0.2521,0.2521,0.2352,0.0,0.0,0.0,0.0,0.0,0.0,0.0,0.2202,0.1884,0.1412,0.1008,0.0403,-0.0202,-0.0739,-0.133,0.0,0.0,-0.2424,-0.2904,-0.3139,-0.3217,-0.3139,-0.3141,-0.2511,-0.1725,-0.0942,0.0079,0.11,0.1572,0.2119,0.251,0.2431,0.2275,0.2118,0.204,0.204,0.2118,0.2118,0.2364,0.2451,0.253,0.2587,0.2621,0.2621,0.2679,0.2733,0.2782,0.2796,0.2826,0.2873,0.2875,0.2875,0.2875,0.2873,0.2694,0.2424,0.1974,0.1615,0.1436,0.1436,0.1436,0.1436,0.1436,0.1436,0.1436,0.1436,0.1436,0.1436,0.1436,0.1436,0.1436,0.0,0.0,0.0,0.0,0.0,0.0,0.0,0.0,0.0,0.0,0.0,0.0,0.0,0.0,0.0,0.0,0.0,0.0,0.0,0.0,0.0,0.7785,0.7603,0.7461,0.7293,0.7125,0.7005,0.6921,0.6751,0.0,0.0,0.0,0.0,0.6069,0.0,0.5397,0.4993,0.4439,0.4011,0.3577,0.3249,0.3023,0.2798,0.2691,0.2659,0.2579,0.2466,0.0,0.0,0.0,0.0,0.0,0.0,0.0,0.1817,0.148,0.0941,0.0403,-0.0134,0.0,0.0,-0.1878,0.0,-0.2431,-0.2511,-0.2431,-0.2353,-0.2275,-0.2117,-0.1725,-0.0785,0.0157,0.0943,0.165,0.2198,0.2511,0.2511,0.2276,0.2119,0.2195,0.2119,0.2119,0.2195,0.2353,0.2511,0.2511,0.254,0.2557,0.2557,0.2616,0.2664,0.2695,0.2752,0.2798,0.283,0.286,0.2875,0.2875,0.2875,0.2694,0.2334,0.1974,0.1615,0.1436,0.1436,0.1436,0.1436,0.1436,0.1436,0.1436,0.1436,0.1436,0.1436,0.1436,0.1436,0.1436,0.0,0.0,0.0,0.0,0.0,0.0,0.0,0.0,0.0,0.0,0.0,0.0,0.0,0.0,0.0,0.0,0.0,0.0,0.0,0.0,0.0,0.0,0.8275,0.7912,0.7753,0.7419,0.7251,0.7216,0.0,0.0,0.0,0.0,0.0,0.6356,0.0,0.5558,0.5293,0.4725,0.4242,0.3744,0.3469,0.3246,0.3079,0.2934,0.2932,0.2939,0.2724,0.2768,0.2832,0.2708,0.0,0.0,0.0,0.0,0.2154,0.1749,0.1412,0.1076,0.0605,0.0,-0.0886,-0.155,-0.1647,0.0,-0.1646,-0.1489,-0.1254,-0.1097,-0.1489,-0.1568,-0.0393,0.0314,0.0943,0.1806,0.2277,0.2511,0.2511,0.2199,0.2042,0.2196,0.2042,0.2042,0.2196,0.2431,0.2511,0.2511,0.2511,0.2511,0.2511,0.2557,0.259,0.2601,0.2699,0.2756,0.2767,0.2828,0.2858,0.2858,0.2869,0.2694,0.2243,0.2064,0.1705,0.1436,0.1436,0.1436,0.1436,0.1436,0.1436,0.1436,0.1436,0.1436,0.1436,0.1436,0.1436,0.1436,0.0,0.0,0.0,0.0,0.0,0.0,0.0,0.0,0.0,0.0,0.0,0.0,0.0,0.0,0.0,0.0,0.0,0.0,0.996,0.0,0.0,0.9222,0.8716,0.8242,0.7878,0.7614,0.7363,0.7216,0.0,0.0,0.0,0.0,0.0,0.6229,0.0,0.0,0.5036,0.4671,0.4187,0.3583,0.3244,0.3077,0.2925,0.2838,0.2815,0.2836,0.2911,0.3003,0.3025,0.3027,0.2887,0.0,0.0,0.0,0.2154,0.1951,0.1681,0.148,0.0,0.0,-0.0221,0.0,-0.0627,-0.0548,0.0,0.0,-0.0157,0.0,-0.0392,-0.0628,0.0079,0.0786,0.1335,0.1803,0.2275,0.2511,0.2511,0.2275,0.2196,0.2431,0.2275,0.2275,0.2431,0.251,0.2511,0.2511,0.2511,0.2511,0.2511,0.2518,0.2546,0.26,0.2617,0.2651,0.2704,0.2764,0.2796,0.2796,0.2849,0.2784,0.2424,0.2424,0.2064,0.1436,0.1436,0.1436,0.1436,0.1436,0.1436,0.1436,0.1436,0.1436,0.1436,0.1436,0.1436,0.1436,0.0,0.0,0.0,0.0,0.0,0.0,0.0,0.0,0.0,0.0,0.0,0.0,0.0,0.0,0.0,1.0534,1.0491,1.0447,1.043,1.0102,0.9791,0.95,0.895,0.8472,0.8085,0.7697,0.7447,0.0,0.0,0.0,0.0,0.6606,0.6458,0.0,0.0,0.0,0.0,0.4436,0.3968,0.3583,0.3357,0.3227,0.3113,0.2982,0.2885,0.2917,0.3017,0.3025,0.3035,0.3101,0.3058,0.2822,0.2753,0.0,0.0,0.0,0.2085,0.1828,0.1396,0.0931,0.059,0.0,0.0314,0.0392,0.0549,0.0628,0.0785,0.102,0.0785,0.0707,0.0864,0.1178,0.1568,0.2038,0.2275,0.2511,0.2511,0.2353,0.2275,0.251,0.2353,0.2275,0.251,0.2511,0.2511,0.2511,0.2511,0.2511,0.2511,0.2511,0.2523,0.2549,0.2583,0.2614,0.2642,0.2702,0.2749,0.2783,0.2845,0.2784,0.2513,0.2513,0.2154,0.1615,0.1615,0.1525,0.1436,0.1436,0.1436,0.1436,0.1436,0.1436,0.1436,0.1436,0.1436,0.1436,0.0,0.0,0.0,0.0,0.0,0.0,0.0,0.0,0.0,0.0,0.0,0.0,0.0,0.0,0.0,0.0,1.1204,1.1029,1.0851,1.0617,1.0254,0.9746,0.9191,0.8716,0.8291,0.7821,0.0,0.0,0.0,0.0,0.6823,0.673,0.6524,0.0,0.5631,0.0,0.0,0.0,0.0,0.0,0.3444,0.328,0.3179,0.299,0.2911,0.29,0.3053,0.3037,0.3023,0.3159,0.3092,0.2956,0.282,0.2621,0.0,0.0,0.0,0.0,0.0,0.0,0.1473,0.1231,0.1251,0.1335,0.0,0.0,0.1649,0.0,0.1806,0.1806,0.1649,0.1648,0.1882,0.2196,0.2431,0.2511,0.2511,0.2353,0.2275,0.251,0.2353,0.2275,0.251,0.2511,0.2511,0.2511,0.2511,0.2511,0.2511,0.2511,0.2511,0.2511,0.2555,0.2578,0.2578,0.2639,0.2707,0.2783,0.283,0.2769,0.2604,0.2604,0.2334,0.1974,0.1884,0.1705,0.1525,0.1436,0.1436,0.1436,0.1436,0.1436,0.1436,0.1436,0.1436,0.1436,0.0,0.0,0.0,0.0,0.0,0.0,0.0,0.0,0.0,0.0,0.0,0.0,0.0,1.1326,1.1443,1.1915,1.1754,1.1629,1.1538,1.1008,1.0495,1.0079,0.9487,0.0,0.848,0.8077,0.0,0.0,0.0,0.0,0.7064,0.686,0.6526,0.5981,0.5474,0.5014,0.4688,0.0,0.0,0.0,0.0,0.0,0.0,0.0,0.0,0.0,0.0,0.3019,0.3023,0.3159,0.3092,0.3023,0.2956,0.2822,0.2686,0.0,0.0,0.0,0.0,0.25,0.0,0.2107,0.2235,0.0,0.0,0.0,0.2433,0.2433,0.2433,0.2433,0.2433,0.2275,0.2275,0.2431,0.2511,0.2511,0.2511,0.2353,0.2275,0.251,0.2353,0.2275,0.251,0.2511,0.2511,0.2511,0.2511,0.2511,0.2511,0.2511,0.2511,0.2511,0.2514,0.2515,0.2515,0.2575,0.2666,0.2783,0.2786,0.2818,0.2873,0.2873,0.2694,0.2424,0.1974,0.1794,0.1794,0.1525,0.1436,0.1436,0.1436,0.1436,0.1436,0.1436,0.1436,0.1436,0.0,0.0,0.0,0.0,0.0,0.0,0.0,0.0,0.0,0.0,0.0,0.0,0.0,1.1773,1.185,1.2222,1.1755,1.1391,1.1223,1.0829,1.0428,0.9932,0.9487,0.9007,0.8447,0.8002,0.0,0.0,0.0,0.7102,0.7083,0.6884,0.6493,0.6,0.5403,0.4848,0.4359,0.386,0.0,0.0,0.0,0.0,0.0,0.0,0.0,0.0,0.0,0.0,0.0,0.3159,0.3159,0.0,0.0,0.0,0.0,0.0,0.0,0.0,0.0,0.0,0.0,0.2555,0.262,0.2668,0.2431,0.2431,0.2511,0.2511,0.2511,0.2511,0.2511,0.2431,0.2431,0.251,0.2511,0.2511,0.2511,0.2431,0.2431,0.251,0.2431,0.2431,0.2511,0.2511,0.2511,0.2511,0.2511,0.2511,0.2511,0.2511,0.2511,0.2511,0.2511,0.2511,0.2511,0.2571,0.2623,0.2668,0.2747,0.2794,0.2816,0.2856,0.2873,0.2694,0.2244,0.1974,0.1794,0.1525,0.1436,0.1436,0.1436,0.1436,0.1436,0.1436,0.1436,0.1436,0.0,0.0,0.0,0.0,0.0,0.0,0.0,0.0,0.0,0.0,0.0,0.0,0.0,0.0,1.1943,1.2006,1.1505,1.1057,1.0802,1.0572,1.0196,0.9655,0.9368,0.8926,0.8365,0.7961,0.0,0.0,0.0,0.0,0.0,0.6869,0.6465,0.5953,0.5291,0.4688,0.0,0.0,0.0,0.3297,0.0,0.0,0.3029,0.0,0.0,0.0,0.0,0.0,0.0,0.0,0.0,0.0,0.0,0.0,0.0,0.0,0.0,0.0,0.3094,0.0,0.0,0.0,0.0,0.2826,0.2589,0.2511,0.2511,0.2511,0.2511,0.2511,0.2511,0.2511,0.2511,0.2511,0.2511,0.2511,0.2511,0.2511,0.2511,0.2511,0.2511,0.2511,0.2511,0.2511,0.2511,0.2511,0.2511,0.0,0.2511,0.2511,0.2511,0.2511,0.2511,0.2511,0.2511,0.255,0.258,0.2602,0.2683,0.2744,0.2785,0.2826,0.2854,0.2873,0.2513,0.2154,0.1885,0.1525,0.1436,0.1436,0.1436,0.1436,0.1436,0.1436,0.1436,0.1436,0.0,0.0,0.0,0.0,0.0,0.0,0.0,0.0,0.0,0.0,0.0,0.0,0.0,0.0,0.0,1.1217,1.0992,1.0697,1.0322,1.0157,0.9843,0.9319,0.9088,0.8724,0.8218,0.8002,0.0,0.0,0.0,0.0,0.0,0.0,0.6383,0.5946,0.5073,0.4525,0.4209,0.0,0.3584,0.3318,0.0,0.3288,0.2844,0.0,0.0,0.0,0.2956,0.3023,0.0,0.3159,0.0,0.0,0.0,0.0,0.0,0.0,0.0,0.0,0.0,0.0,0.0,0.0,0.0,0.0,0.2589,0.0,0.2511,0.2511,0.2511,0.2511,0.2511,0.2511,0.2511,0.2511,0.2511,0.2511,0.2511,0.2511,0.2511,0.2511,0.2511,0.2511,0.2511,0.2511,0.2511,0.2511,0.2511,0.2511,0.2511,0.2511,0.2511,0.2511,0.2511,0.2511,0.2511,0.2511,0.254,0.2598,0.2601,0.2664,0.2778,0.2781,0.2815,0.2871,0.2603,0.2424,0.2154,0.1615,0.1436,0.1436,0.1436,0.1436,0.1436,0.1436,0.1436,0.1436,0.0,0.0,0.0,0.0,0.0,0.0,0.0,0.0,0.0,0.0,0.0,0.0,0.0,0.0,1.0905,1.0649,1.039,1.0166,0.9941,0.9765,0.9439,0.895,0.8837,0.8521,0.7995,0.7888,0.0,0.0,0.0,0.0,0.0,0.0,0.0,0.0,0.5069,0.4528,0.4177,0.3917,0.0,0.3525,0.3587,0.3394,0.0,0.0,0.0,0.0,0.0,0.3092,0.3023,0.0,0.3025,0.3092,0.0,0.0,0.0,0.0,0.0,0.0,0.3226,0.0,0.0,0.0,0.0,0.0,0.0,0.0,0.2746,0.2746,0.2589,0.2511,0.2511,0.2511,0.2511,0.2511,0.2511,0.2511,0.2511,0.2511,0.2511,0.2511,0.2511,0.2511,0.2511,0.2511,0.2511,0.0,0.2511,0.2511,0.2511,0.2511,0.2511,0.2511,0.2511,0.2511,0.2511,0.2511,0.2598,0.2774,0.2823,0.2947,0.3071,0.3254,0.3224,0.3069,0.285,0.2691,0.2424,0.1885,0.1615,0.1436,0.1436,0.1436,0.1436,0.1436,0.1436,0.1436,0.0,0.0,0.0,0.0,0.0,0.0,0.0,0.0,0.0,0.0,0.0,0.0,0.0,0.0,0.0,1.0099,0.9913,0.9686,0.9408,0.927,0.899,0.8504,0.8526,0.8277,0.7724,0.7719,0.0,0.0,0.0,0.0,0.0,0.0,0.0,0.0,0.0,0.0,0.0,0.0,0.0,0.0,0.3656,0.0,0.0,0.3159,0.3092,0.0,0.0,0.0,0.2889,0.2889,0.2956,0.0,0.0,0.0,0.0,0.0,0.0,0.0,0.0,0.0,0.0,0.0,0.0,0.0,0.3139,0.2984,0.2904,0.0,0.2826,0.2746,0.2746,0.2746,0.2746,0.2668,0.2589,0.2589,0.2511,0.2511,0.2511,0.2511,0.2511,0.2511,0.2511,0.2511,0.2511,0.2511,0.2511,0.2511,0.2511,0.2511,0.2511,0.2511,0.2511,0.2511,0.2511,0.2589,0.2746,0.2906,0.3183,0.3381,0.35,0.3591,0.3585,0.3389,0.3255,0.3024,0.2781,0.2511,0.2153,0.1705,0.1705,0.1705,0.1705,0.1705,0.1705,0.1794,0.0,0.0,0.0,0.0,0.0,0.0,0.0,0.0,0.0,0.0,0.0,0.0,0.0,0.0,0.0,0.0,0.9555,0.9354,0.8856,0.8774,0.8535,0.8002,0.8165,0.7964,0.7367,0.7468,0.0,0.0,0.0,0.0,0.0,0.0,0.0,0.0,0.0,0.0,0.0,0.0,0.0,0.3635,0.3723,0.3558,0.0,0.0,0.2956,0.2956,0.2753,0.2686,0.2686,0.2686,0.282,0.0,0.0,0.0,0.0,0.0,0.3694,0.0,0.0,0.0,0.0,0.0,0.0,0.0,0.3374,0.3297,0.3217,0.0,0.3141,0.3141,0.3141,0.3062,0.3062,0.2826,0.2826,0.2746,0.2511,0.2511,0.2511,0.2511,0.2511,0.2511,0.2511,0.2511,0.2511,0.2511,0.2511,0.2511,0.2511,0.2511,0.2511,0.2511,0.2511,0.2511,0.2511,0.2746,0.2982,0.3219,0.3686,0.3963,0.4046,0.4055,0.3987,0.388,0.3725,0.3512,0.3306,0.3401,0.2959,0.2243,0.2243,0.2243,0.2243,0.2243,0.2243,0.2244,0.0,0.0,0.0,0.0,0.0,0.0,0.0,0.0,0.0,0.0,0.0,0.0,0.0,0.0,0.0,0.0,0.9371,0.9236,0.8913,0.8686,0.8374,0.8013,0.7936,0.7635,0.7103,0.7223,0.0,0.0,0.0,0.0,0.0,0.0,0.0,0.0,0.0,0.0,0.0,0.0,0.0,0.373,0.3818,0.0,0.3025,0.3023,0.2889,0.2753,0.2686,0.2621,0.249,0.2621,0.2753,0.282,0.0,0.0,0.0,0.3694,0.0,0.0,0.0,0.0,0.0,0.0,0.0,0.0,0.4465,0.4231,0.4073,0.0,0.3528,0.3372,0.3141,0.3062,0.3062,0.3062,0.2904,0.2746,0.2511,0.2511,0.2511,0.2511,0.2511,0.2511,0.2511,0.2511,0.2511,0.2511,0.2511,0.2511,0.2511,0.2511,0.2511,0.2511,0.2511,0.2589,0.2746,0.2904,0.3295,0.3923,0.4311,0.4631,0.4807,0.4821,0.4644,0.4367,0.4359,0.4262,0.4282,0.4353,0.3758,0.2778,0.2778,0.2601,0.2424,0.269,0.2601,0.2513,0.0,0.0,0.0,0.0,0.0,0.0,0.0,0.0,0.0,0.0,0.0,0.0,0.0,0.0,0.0,0.0,0.0,0.0,0.0,0.0,0.7801,0.7522,0.7516,0.7241,0.6734,0.6875,0.0,0.0,0.0,0.0,0.0,0.0,0.0,0.0,0.0,0.0,0.0,0.0,0.3974,0.3825,0.3825,0.0,0.3092,0.2889,0.282,0.2686,0.2487,0.2421,0.2423,0.2621,0.2753,0.0,0.0,0.3426,0.3694,0.0,0.4225,0.4637,0.0,0.0,0.0,0.538,0.0,0.0,0.0,0.4776,0.4465,0.4309,0.4073,0.3917,0.3763,0.3686,0.3532,0.3452,0.3139,0.2904,0.2668,0.2589,0.2511,0.2511,0.2511,0.2511,0.2511,0.2511,0.2511,0.2511,0.2511,0.2511,0.2511,0.2511,0.2511,0.2668,0.2668,0.2824,0.3057,0.3452,0.3921,0.4543,0.5087,0.5318,0.5473,0.546,0.5291,0.5036,0.4986,0.5099,0.5203,0.5341,0.5134,0.4561,0.4026,0.376,0.3583,0.3583,0.3583,0.3673,0.8258,0.0,0.0,0.0,0.0,0.0,0.0,0.0,0.0,0.0,0.0,0.0,0.0,0.0,0.0,0.0,0.0,0.0,0.0,0.0,0.0,0.6892,0.694,0.6783,0.6317,0.6445,0.6268,0.0,0.0,0.0,0.0,0.0,0.0,0.0,0.0,0.0,0.0,0.0,0.0,0.3758,0.0,0.3493,0.3159,0.282,0.2686,0.2621,0.2287,0.2288,0.2423,0.2621,0.2822,0.3023,0.3159,0.3491,0.0,0.0,0.0,0.0,0.0,0.0,0.0,0.0,0.0,0.5553,0.0,0.0,0.0,0.4776,0.4618,0.4462,0.4384,0.0,0.0,0.3921,0.0,0.0,0.0,0.2746,0.0,0.2511,0.2511,0.2511,0.2511,0.2511,0.2589,0.2589,0.2668,0.2666,0.2666,0.2744,0.2824,0.2981,0.3059,0.3214,0.3602,0.4075,0.4621,0.516,0.5783,0.6093,0.6093,0.6093,0.5924,0.5719,0.5663,0.5794,0.6075,0.6291,0.6464,0.648,0.5442,0.4917,0.4828,0.4654,0.4654,0.483,0.793,0.7995,0.0,0.0,0.0,0.0,0.0,0.0,0.0,0.0,0.0,0.0,0.0,0.0,0.0,0.0,0.0,0.0,0.6722,0.0,0.0,0.0,0.6372,0.623,0.6072,0.5928,0.5723,0.0,0.0,0.0,0.0,0.0,0.0,0.0,0.454,0.0,0.0,0.0,0.3828,0.0,0.3565,0.3362,0.0,0.2753,0.2621,0.2423,0.2288,0.2288,0.2423,0.0,0.2822,0.3023,0.0,0.3491,0.3892,0.4156,0.0,0.0,0.0,0.0,0.0,0.0,0.6522,0.0,0.0,0.0,0.5401,0.5004,0.0,0.4621,0.0,0.0,0.0,0.0,0.0,0.0,0.3448,0.3215,0.2904,0.2511,0.2511,0.2511,0.2511,0.2668,0.2747,0.2747,0.3136,0.337,0.329,0.3526,0.3684,0.3684,0.3837,0.407,0.4304,0.4851,0.5398,0.5783,0.6475,0.6784,0.6784,0.6784,0.6644,0.644,0.6334,0.6411,0.6711,0.6979,0.7268,0.7386,0.6298,0.5811,0.5542,0.5542,0.5455,0.5371,0.7867,0.8092,0.0,0.0,0.0,0.0,0.0,0.0,0.0,0.0,0.0,0.0,0.0,0.0,0.0,0.0,0.0,0.566,0.0,0.0,0.0,0.0,0.0,0.0,0.5508,0.5399,0.5286,0.5057,0.4997,0.0,0.0,0.0,0.0,0.0,0.4598,0.0,0.3893,0.0,0.3761,0.0,0.0,0.0,0.0,0.2753,0.2554,0.2288,0.2221,0.2354,0.2554,0.0,0.2889,0.0,0.0,0.0,0.0,0.0,0.0,0.0,0.0,0.0,0.0,0.0,0.0,0.0,0.6335,0.0,0.5709,0.0,0.0,0.0,0.0,0.0,0.0,0.0,0.4465,0.0,0.0,0.0,0.3448,0.2746,0.0,0.0,0.2511,0.2668,0.2826,0.2982,0.3372,0.3682,0.3834,0.3992,0.4229,0.4309,0.4538,0.4768,0.5079,0.5547,0.6012,0.6479,0.6868,0.7099,0.7099,0.7099,0.6945,0.6791,0.6865,0.6946,0.7205,0.7426,0.7768,0.7951,0.7336,0.689,0.652,0.6346,0.626,0.626,0.7649,0.0,0.0,0.0,0.0,0.0,0.0,0.0,0.0,0.0,0.0,0.0,0.6999,0.6416,0.0,0.0,0.4783,0.4473,0.0,0.0,0.4591,0.0,0.0,0.0,0.0,0.0,0.5045,0.0,0.0,0.0,0.0,0.0,0.0,0.0,0.0,0.4407,0.3961,0.0,0.3694,0.3498,0.3159,0.2958,0.2824,0.2688,0.2421,0.2221,0.2221,0.2354,0.2621,0.2686,0.2889,0.0,0.3159,0.0,0.0,0.0,0.0,0.0,0.5815,0.0,0.0,0.0,0.0,0.0,0.0,0.0,0.0,0.0,0.0,0.0,0.0,0.0,0.0,0.0,0.0,0.4929,0.0,0.4613,0.0,0.0,0.0,0.0,0.0,0.3059,0.3294,0.3452,0.3997,0.4382,0.4535,0.4768,0.4927,0.5085,0.5315,0.5547,0.5857,0.6244,0.6633,0.7019,0.7176,0.7257,0.7257,0.7257,0.7176,0.7096,0.7253,0.7324,0.7438,0.7736,0.7914,0.8154,0.8082,0.7677,0.726,0.7044,0.6969,0.6881,0.7127,0.7413,0.0,0.0,0.0,0.0,0.0,0.0,0.0,0.0,0.0,0.0,0.0,0.0,0.0,0.0,0.0,0.3403,0.3278,0.0,0.3569,0.0,0.0,0.4585,0.0,0.0,0.0,0.0,0.0,0.0,0.0,0.0,0.0,0.0,0.0,0.4492,0.3961,0.3825,0.3694,0.3498,0.3159,0.2757,0.2424,0.0,0.2288,0.2221,0.2221,0.0,0.0,0.2621,0.2822,0.0,0.0,0.0,0.0,0.0,0.0,0.0,0.0,0.0,0.0,0.586,0.0,0.0,0.0,0.0,0.6335,0.0,0.0,0.0,0.0,0.0,0.0,0.0,0.0,0.0,0.0,0.0,0.0,0.0,0.0,0.0,0.0,0.4151,0.4384,0.4384,0.5079,0.5544,0.5544,0.5931,0.6163,0.6163,0.6402,0.6563,0.656,0.6949,0.718,0.7184,0.7407,0.7484,0.7484,0.7484,0.7484,0.748,0.7484,0.7488,0.7504,0.7687,0.7768,0.7813,0.8158,0.8033,0.7543,0.7534,0.7323,0.7051,0.0,0.0,0.0,0.0,0.0,0.0,0.0,0.7132,0.0,0.0,0.5987,0.0,0.0,0.4395,0.3846,0.0,0.0,0.2615,0.2468,0.2639,0.0,0.0,0.0,0.3936,0.0,0.0,0.0,0.0,0.0,0.0,0.0,0.0,0.0,0.0,0.0,0.4498,0.0,0.0,0.0,0.0,0.0,0.2622,0.2357,0.0,0.2221,0.2221,0.2221,0.2288,0.0,0.249,0.2622,0.2831,0.2884,0.2988,0.31,0.3431,0.3806,0.0,0.0,0.0,0.5237,0.5315,0.0,0.0,0.0,0.0,0.0,0.0,0.0,0.0,0.0,0.0,0.0,0.0,0.0,0.0,0.0,0.0,0.0,0.0,0.0,0.0,0.0,0.0,0.4849,0.5007,0.5473,0.5938,0.6247,0.6553,0.663,0.663,0.6868,0.7026,0.7026,0.7257,0.7407,0.7407,0.7484,0.7484,0.7484,0.7484,0.7484,0.7484,0.7484,0.7484,0.7488,0.7549,0.765,0.7772,0.789,0.7843,0.7644,0.7752,0.7499,0.7139,0.6549,0.0,0.0,0.0,0.0,0.0,0.0,0.0,0.0,0.0,0.5007,0.0,0.3964,0.0,0.3031,0.0,0.2246,0.2042,0.2005,0.2169,0.0,0.2921,0.3179,0.0,0.0,0.0,0.0,0.0,0.0,0.5137,0.0,0.0,0.0,0.0,0.0,0.4498,0.4097,0.4028,0.3828,0.0,0.0,0.2554,0.0,0.0,0.2221,0.2221,0.0,0.2288,0.2356,0.2357,0.2506,0.2669,0.2785,0.2838,0.2901,0.3149,0.3427,0.3689,0.3902,0.4226,0.0,0.4538,0.4932,0.0,0.5857,0.0,0.0,0.0,0.0,0.0,0.0,0.0,0.0,0.0,0.0,0.0,0.0,0.7407,0.0,0.0,0.0,0.0,0.0,0.5622,0.5702,0.586,0.617,0.6483,0.6795,0.7022,0.7096,0.7096,0.7253,0.7334,0.7334,0.7407,0.7484,0.7484,0.7484,0.7484,0.7484,0.7484,0.7484,0.7484,0.7484,0.7484,0.7484,0.7484,0.7553,0.7667,0.7736,0.7749,0.7644,0.7729,0.7537,0.7139,0.0,0.0,0.0,0.0,0.6761,0.0,0.0,0.0,0.5077,0.0,0.4036,0.3634,0.3394,0.2826,0.2448,0.2337,0.1913,0.1688,0.1802,0.1937,0.0,0.0,0.2822,0.3157,0.3692,0.0,0.0,0.0,0.0,0.0,0.0,0.0,0.0,0.0,0.4628,0.0,0.43,0.4097,0.3961,0.3758,0.3021,0.2621,0.2424,0.2288,0.2221,0.2221,0.2221,0.2221,0.2221,0.2357,0.24,0.2527,0.2735,0.2835,0.2953,0.2956,0.3006,0.3062,0.3062,0.3294,0.3526,0.3763,0.4231,0.0,0.0,0.0,0.649,0.0,0.0,0.0,0.0,0.0,0.0,0.0,0.0,0.0,0.0,0.0,0.0,0.0,0.0,0.0,0.0,0.6942,0.6942,0.6942,0.7099,0.7257,0.0,0.7407,0.7484,0.7484,0.7484,0.7484,0.7484,0.7484,0.7484,0.7484,0.7484,0.7484,0.7484,0.7484,0.7484,0.7484,0.7484,0.7484,0.7484,0.7484,0.7484,0.75,0.7679,0.7593,0.7404,0.7567,0.7353,0.7132,0.5445,0.5505,0.5486,0.0,0.5532,0.5542,0.0,0.0,0.0,0.0,0.3421,0.2953,0.2554,0.2254,0.1895,0.1543,0.145,0.0,0.0,0.0,0.0,0.2084,0.2017,0.2217,0.2751,0.2818,0.322,0.4025,0.0,0.0,0.5156,0.0,0.0,0.0,0.0,0.0,0.43,0.4233,0.4028,0.3758,0.3157,0.2822,0.2621,0.0,0.2288,0.2221,0.2221,0.2221,0.2221,0.2221,0.2263,0.2322,0.2369,0.2508,0.2581,0.2629,0.2733,0.2904,0.2904,0.3061,0.3295,0.3526,0.3919,0.4467,0.0,0.0,0.0,0.0,0.0,0.0,0.0,0.0,0.0,0.0,0.0,0.0,0.0,0.0,0.0,0.8551,0.0,0.0,0.7629,0.7553,0.7553,0.7553,0.7629,0.7638,0.7646,0.0,0.7642,0.7484,0.7484,0.7484,0.7484,0.7484,0.7484,0.7484,0.7484,0.7484,0.7484,0.7484,0.7484,0.7484,0.7484,0.7484,0.7484,0.7484,0.7484,0.7488,0.7537,0.7399,0.7155,0.7231,0.7118,0.6997,0.4998,0.0,0.0,0.4542,0.0,0.0,0.4349,0.3946,0.0,0.3186,0.2768,0.0,0.2071,0.1824,0.1518,0.1282,0.1238,0.0,0.1313,0.0,0.0,0.1614,0.1547,0.1613,0.188,0.2083,0.0,0.3424,0.0,0.0,0.4891,0.0,0.0,0.0,0.0,0.4431,0.43,0.4164,0.3897,0.3627,0.3157,0.2889,0.0,0.249,0.2288,0.2221,0.2221,0.2221,0.2225,0.2184,0.2234,0.2223,0.2353,0.2413,0.2466,0.25,0.2589,0.2668,0.2668,0.2826,0.2982,0.3137,0.3606,0.4153,0.4768,0.5315,0.5864,0.0,0.6868,0.7096,0.0,0.0,0.0,0.0,0.0,0.0,0.0,0.0,0.0,0.0,0.8703,0.0,0.8241,0.8093,0.8093,0.8093,0.8016,0.7944,0.7953,0.0,0.7723,0.7642,0.7561,0.7484,0.7484,0.7484,0.7484,0.7484,0.7484,0.7484,0.7484,0.7484,0.7484,0.7484,0.7484,0.7484,0.7484,0.7484,0.7484,0.7484,0.7484,0.7312,0.7036,0.7129,0.7063,0.6939,0.4482,0.0,0.0,0.0,0.0,0.0,0.0,0.329,0.0,0.2613,0.0,0.1889,0.181,0.1493,0.1311,0.1275,0.0,0.1143,0.1277,0.1277,0.1277,0.1211,0.1211,0.1211,0.1211,0.1547,0.2084,0.0,0.0,0.0,0.0,0.0,0.0,0.0,0.0,0.0,0.0,0.3961,0.3694,0.3498,0.3159,0.2889,0.2686,0.2488,0.2356,0.2221,0.2221,0.2221,0.2231,0.2225,0.2214,0.2345,0.2402,0.2462,0.2511,0.2511,0.2511,0.2511,0.2511,0.2589,0.2747,0.2747,0.3217,0.3841,0.4229,0.4851,0.5476,0.618,0.6563,0.7019,0.0,0.0,0.0,0.0,0.0,0.0,0.0,0.0,0.0,0.0,0.0,0.0,0.8703,0.8551,0.8403,0.8403,0.825,0.8178,0.8102,0.0,0.7804,0.7804,0.7642,0.7484,0.7484,0.7484,0.7484,0.7484,0.7484,0.7484,0.7484,0.7484,0.7484,0.7484,0.7484,0.7484,0.7484,0.7484,0.7484,0.7484,0.7484,0.7249,0.6961,0.7029,0.7033,0.6875,0.3933,0.0,0.0,0.0,0.0,0.2915,0.2518,0.2535,0.2582,0.2446,0.2121,0.1859,0.1668,0.1402,0.1272,0.1143,0.1143,0.0,0.0,0.0,0.0,0.0876,0.0741,0.0606,0.0606,0.074,0.1075,0.0,0.0,0.0,0.0,0.0,0.0,0.0,0.0,0.0,0.4028,0.3892,0.0,0.3498,0.3228,0.2956,0.2686,0.2686,0.2487,0.2221,0.2221,0.2221,0.2231,0.2225,0.2214,0.2345,0.2402,0.2462,0.2511,0.2511,0.2511,0.2511,0.2511,0.2511,0.2589,0.2589,0.2904,0.3374,0.3992,0.4616,0.5318,0.6103,0.649,0.6865,0.7629,0.0,0.0,0.0,0.0,0.0,0.0,0.0,0.0,0.0,0.0,0.8703,0.0,0.0,0.8627,0.8627,0.8627,0.8551,0.0,0.0,0.7953,0.0,0.7642,0.0,0.0,0.0,0.7484,0.7484,0.7484,0.7484,0.7484,0.7484,0.7484,0.7484,0.7484,0.7484,0.7484,0.7484,0.7484,0.7484,0.7484,0.733,0.7107,0.6976,0.6878,0.6838,0.0,0.0,0.0,0.0,0.0,0.0,0.0,0.2062,0.2054,0.2016,0.1749,0.1547,0.148,0.1277,0.1143,0.1076,0.1076,0.1076,0.1076,0.1009,0.0876,0.0674,0.0472,0.0337,0.027,0.0337,0.074,0.1344,0.0,0.0,0.0,0.0,0.0,0.0,0.0,0.4028,0.0,0.0,0.0,0.3362,0.3228,0.3023,0.2686,0.2686,0.2487,0.2221,0.2221,0.2221,0.2235,0.226,0.2239,0.235,0.2439,0.2486,0.2511,0.2511,0.2511,0.2511,0.2511,0.2511,0.2511,0.2511,0.2901,0.337,0.399,0.4691,0.547,0.618,0.6644,0.7103,0.7791,0.8246,0.0,0.0,0.0,0.0,0.0,0.0,0.0,0.0,0.0,0.0,0.0,0.0,0.0,0.0,0.0,0.0,0.0,0.0,0.803,0.0,0.0,0.0,0.7484,0.0,0.7484,0.7484,0.7484,0.7484,0.7484,0.7484,0.7484,0.7484,0.7484,0.7484,0.7484,0.7484,0.7484,0.7484,0.7484,0.7407,0.718,0.7099,0.6921,0.672,0.0,0.3226,0.0,0.0,0.2354,0.0,0.1817,0.1614,0.1547,0.1614,0.1412,0.1277,0.1277,0.121,0.1076,0.1076,0.1076,0.1076,0.1009,0.0876,0.0674,0.0472,0.0337,0.0202,0.0,0.0135,0.0472,0.0,0.0,0.0,0.0,0.0,0.0,0.0,0.0,0.0,0.0,0.0,0.3362,0.3226,0.3226,0.3023,0.2686,0.2686,0.2487,0.2221,0.2221,0.2221,0.2241,0.2294,0.2335,0.2356,0.2473,0.2511,0.2511,0.2511,0.2511,0.2511,0.2511,0.2511,0.2511,0.2511,0.2979,0.3524,0.407,0.4924,0.578,0.6331,0.6876,0.7492,0.7953,0.8178,0.0,0.0,0.0,0.0,0.0,0.0,0.0,0.0,0.0,0.0,0.8627,0.0,0.0,0.0,0.0,0.0,0.8403,0.0,0.0,0.0,0.0,0.7484,0.7484,0.0,0.7484,0.7484,0.7484,0.7484,0.7484,0.7484,0.7484,0.7484,0.7484,0.7484,0.7484,0.7484,0.7484,0.7484,0.7484,0.7407,0.7257,0.718,0.7026,0.6758,0.0,0.0,0.0,0.0,0.0,0.0,0.1412,0.121,0.1277,0.1547,0.1412,0.1277,0.1277,0.121,0.1076,0.1076,0.1076,0.1009,0.0809,0.0809,0.0674,0.0337,0.0337,0.0202,0.0,0.0,0.0135,0.0,0.0,0.168,0.0,0.0,0.0,0.0,0.0,0.0,0.0,0.3498,0.3362,0.3226,0.3226,0.3023,0.2686,0.2686,0.2487,0.2221,0.2221,0.2221,0.2241,0.2294,0.2335,0.2356,0.2473,0.2511,0.2511,0.2511,0.2511,0.2511,0.2511,0.2511,0.2511,0.2511,0.2979,0.3602,0.4229,0.5162,0.6093,0.671,0.7334,0.7727,0.7804,0.803,0.8102,0.0,0.0,0.0,0.0,0.0,0.8102,0.8102,0.0,0.0,0.8403,0.8403,0.8479,0.0,0.8703,0.0,0.0,0.0,0.0,0.7804,0.7642,0.7484,0.7484,0.7484,0.7484,0.7484,0.7484,0.7484,0.7484,0.7484,0.7484,0.7484,0.7484,0.7484,0.7484,0.7484,0.7484,0.7484,0.7484,0.7484,0.7484,0.7257,0.718,0.713,0.0,0.0,0.0,0.0,0.0,0.0,0.0,0.0807,0.0606,0.0605,0.074,0.0808,0.0808,0.0876,0.0943,0.0943,0.0943,0.0876,0.0809,0.0607,0.0472,0.0337,0.0202,0.0067,0.0,0.0,0.0067,0.0,0.0,0.0,0.0,0.0,0.0,0.0,0.0,0.3761,0.3498,0.3362,0.3295,0.3226,0.3226,0.3023,0.2686,0.2686,0.2487,0.2221,0.2221,0.2221,0.2241,0.2294,0.2335,0.2356,0.2473,0.2511,0.2511,0.2511,0.2511,0.2511,0.2511,0.2511,0.2511,0.2511,0.3057,0.3761,0.4307,0.5237,0.6244,0.6784,0.7253,0.7642,0.7804,0.788,0.7953,0.8106,0.0,0.0,0.0,0.0,0.0,0.7876,0.0,0.803,0.0,0.8327,0.8403,0.8475,0.0,0.0,0.0,0.0,0.0,0.7642,0.0,0.7484,0.7484,0.7484,0.7484,0.7484,0.7484,0.7484,0.7484,0.7484,0.7484,0.7484,0.7484,0.7484,0.7484,0.7484,0.7484,0.7484,0.7484,0.7484,0.7484,0.7407,0.7334,0.7208,0.2085,0.0,0.1884,0.0,0.121,0.0941,0.0605,0.0269,0.0,-0.0134,0.0067,0.0269,0.0404,0.0607,0.0741,0.0741,0.0741,0.0674,0.0674,0.0404,0.027,0.0202,0.0067,0.0,0.0,0.0,0.0067,0.0202,0.0605,0.0,0.0,0.0,0.0,0.0,0.3892,0.3694,0.3498,0.3295,0.3226,0.3226,0.3226,0.3023,0.2686,0.2686,0.2487,0.2221,0.2221,0.2221,0.2241,0.2294,0.2335,0.2356,0.2473,0.2511,0.2511,0.2511,0.2511,0.2511,0.2511,0.2511,0.2511,0.2511,0.3137,0.3919,0.4307,0.5312,0.6398,0.6942,0.7326,0.7561,0.7723,0.7723,0.7718,0.7872,0.0,0.0,0.0,0.7565,0.0,0.0,0.7723,0.7799,0.803,0.8102,0.8255,0.8327,0.0,0.0,0.0,0.0,0.0,0.0,0.0,0.0,0.7484,0.7484,0.7484,0.7484,0.7484,0.7484,0.7484,0.7484,0.7484,0.7484,0.7484,0.7484,0.7484,0.7484,0.7484,0.7484,0.7484,0.7484,0.7484,0.7484,0.7407,0.7277,0.1614,0.1614,0.148,0.1143,0.0941,0.0605,0.0067,-0.0269,-0.047,-0.047,-0.047,-0.0269,0.027,0.0404,0.0472,0.0472,0.0472,0.0472,0.0337,0.027,0.0202,0.0,0.0,0.0,0.0,0.0,0.0,0.0,0.0,0.0,0.1614,0.0,0.3892,0.3961,0.3892,0.3694,0.3498,0.3295,0.3226,0.3226,0.3226,0.3023,0.2686,0.2686,0.2487,0.2221,0.2221,0.2221,0.2241,0.2294,0.2335,0.2356,0.2473,0.2511,0.2511,0.2511,0.2511,0.2511,0.2511,0.2511,0.2511,0.2511,0.3137,0.3919,0.4307,0.5312,0.6472,0.7326,0.7484,0.7484,0.7484,0.7484,0.7484,0.7484,0.0,0.0,0.0,0.0,0.0,0.7484,0.7484,0.7565,0.7804,0.7804,0.0,0.0,0.0,0.0,0.0,0.0,0.0,0.7484,0.7484,0.0,0.7484,0.7484,0.7484,0.7484,0.7484,0.7484,0.7484,0.7484,0.7484,0.7484,0.7484,0.7484,0.7484,0.7484,0.7484,0.7484,0.7484,0.7484,0.7484,0.7484,0.7484,0.7484,0.1412,0.1412,0.1277,0.0806,0.047,0.0067,-0.047,-0.0739,-0.0941,-0.0941,-0.0673,-0.0404,-0.0135,0.0202,0.0337,0.0,0.0337,0.0337,0.0,0.0202,0.0067,0.0,0.0,0.0,0.0,0.0,0.0,0.0,0.0,0.0,0.0,0.3023,0.3493,0.3629,0.3761,0.3694,0.3498,0.356,0.356,0.3429,0.3429,0.3092,0.2686,0.2686,0.2487,0.2221,0.2221,0.2221,0.2241,0.2294,0.2335,0.2356,0.2473,0.2511,0.2511,0.2511,0.2511,0.2511,0.2511,0.2511,0.2511,0.2511,0.3137,0.3919,0.4307,0.5544,0.6861,0.7403,0.7484,0.7484,0.7484,0.7484,0.7484,0.7484,0.7484,0.0,0.7484,0.0,0.7484,0.7484,0.7484,0.7561,0.7565,0.7723,0.0,0.0,0.0,0.0,0.0,0.0,0.0,0.0,0.7484,0.0,0.7484,0.7484,0.7484,0.7484,0.7484,0.7484,0.7484,0.7484,0.7484,0.7484,0.7484,0.7484,0.7484,0.7484,0.7484,0.7484,0.7484,0.7484,0.7484,0.7484,0.7484,0.7484,0.1144,0.1144,0.1008,0.0404,0.0134,-0.0202,-0.0807,-0.1008,-0.1076,-0.1076,-0.074,-0.0472,-0.0337,0.0,0.0,0.0202,0.0202,0.0202,0.0202,0.0067,0.0,0.0,0.0,0.0,0.0,0.0,0.0,0.0,0.0539,0.1345,0.2417,0.2956,0.3362,0.3629,0.3694,0.3629,0.3498,0.356,0.3493,0.3362,0.3362,0.3092,0.2686,0.2686,0.2487,0.2221,0.2221,0.2221,0.2241,0.2294,0.2335,0.2356,0.2473,0.2511,0.2511,0.2511,0.2511,0.2511,0.2511,0.2511,0.2511,0.2511,0.3137,0.3995,0.4849,0.6012,0.7019,0.7403,0.7484,0.7484,0.7484,0.7484,0.7484,0.7484,0.7484,0.7484,0.7484,0.0,0.7484,0.0,0.0,0.0,0.0,0.7642,0.7723,0.0,0.0,0.0,0.0,0.0,0.0,0.7484,0.7484,0.7484,0.7484,0.7484,0.7484,0.7484,0.7484,0.7484,0.7484,0.7484,0.7484,0.7484,0.7484,0.7484,0.7484,0.7484,0.7484,0.7484,0.7484,0.7484,0.7484,0.7484,0.7484,0.7484,0.0809,0.0942,0.0875,0.0,0.0,0.0,-0.1008,-0.1076,-0.1076,-0.1076,-0.0739,-0.0404,-0.027,-0.0135,0.0,0.0,0.0,0.0,0.0,0.0,0.0,0.0,0.0,0.0,0.0,0.0,0.0,0.0067,0.0875,0.168,0.2417,0.2889,0.336,0.3758,0.3563,0.3498,0.3498,0.3295,0.3228,0.3226,0.3226,0.3023,0.2686,0.2686,0.2488,0.2221,0.2221,0.2221,0.2239,0.2289,0.2332,0.2356,0.2469,0.2507,0.2511,0.2511,0.2511,0.2511,0.2511,0.2511,0.2511,0.2511,0.3215,0.4229,0.5854,0.6553,0.7019,0.7403,0.7484,0.7484,0.7484,0.7484,0.7484,0.7484,0.7484,0.7484,0.7484,0.7484,0.7484,0.0,0.0,0.0,0.7484,0.7484,0.7484,0.0,0.0,0.0,0.0,0.0,0.7723,0.7484,0.7484,0.7484,0.7484,0.7484,0.7484,0.7484,0.7484,0.7484,0.7484,0.7484,0.7484,0.7484,0.7484,0.7484,0.7484,0.7484,0.7484,0.7484,0.7484,0.7484,0.7484,0.7484,0.7484,0.7484,0.0,0.0,0.0606,-0.0067,-0.0202,-0.0403,-0.1008,-0.0941,-0.0807,-0.0672,-0.0471,-0.0269,-0.0067,0.0,0.0,0.0,0.0,0.0,0.0,0.0,0.0,0.0,0.0,0.0,0.0,0.0,0.0135,0.0404,0.0875,0.1546,0.2287,0.2621,0.3023,0.336,0.3429,0.3498,0.3498,0.3627,0.356,0.3431,0.3295,0.3023,0.2686,0.2555,0.2356,0.2221,0.2221,0.2221,0.2232,0.224,0.2225,0.2347,0.2418,0.2473,0.2511,0.2511,0.2511,0.2511,0.2511,0.2511,0.2511,0.2511,0.337,0.4616,0.5931,0.6553,0.7019,0.7403,0.7484,0.7484,0.7484,0.7484,0.7484,0.7484,0.7484,0.7484,0.7484,0.7484,0.7484,0.0,0.7484,0.7484,0.7484,0.7484,0.7484,0.0,0.0,0.0,0.7484,0.7561,0.7561,0.7484,0.7484,0.7484,0.7484,0.7484,0.7484,0.7484,0.7484,0.7484,0.7484,0.7484,0.7484,0.7484,0.7484,0.7484,0.7484,0.7484,0.7484,0.7484,0.7484,0.7484,0.7484,0.7484,0.7484,0.7484,0.0607,0.0607,0.0472,-0.0202,-0.0202,-0.0337,-0.074,-0.0673,-0.0539,-0.0404,-0.0269,-0.0135,0.0,0.0,-0.0067,-0.0135,-0.0067,0.0,0.0,0.0,0.0,0.0,0.0,0.0,0.0,0.0,0.0135,0.0472,0.0875,0.148,0.2221,0.2554,0.2822,0.3092,0.3226,0.3226,0.3159,0.3224,0.3224,0.3092,0.3023,0.2822,0.2555,0.2423,0.2288,0.2221,0.2221,0.2221,0.2231,0.2225,0.2214,0.2345,0.2402,0.2462,0.2511,0.2511,0.2511,0.2511,0.2511,0.2511,0.2588,0.2979,0.3761,0.4693,0.5931,0.6553,0.7019,0.7403,0.7484,0.7484,0.7484,0.7484,0.7484,0.7484,0.7484,0.7484,0.7484,0.7484,0.7484,0.7484,0.7484,0.7484,0.7484,0.7484,0.7484,0.7484,0.7484,0.0,0.7484,0.7484,0.7484,0.7484,0.7484,0.7484,0.7484,0.7484,0.7484,0.7484,0.7484,0.7484,0.7484,0.7484,0.7484,0.7484,0.7484,0.7484,0.7484,0.7484,0.7484,0.7484,0.7484,0.7484,0.7484,0.7484,0.7484,0.7484,0.0337,0.0404,0.0337,-0.0202,-0.0135,-0.0135,-0.0404,-0.0337,-0.027,-0.027,-0.0135,0.0,0.0,0.0,-0.0135,-0.027,-0.0135,-0.0067,-0.0067,-0.0067,-0.0067,-0.0067,-0.0067,-0.0067,-0.0067,0.0,0.0135,0.0472,0.0875,0.1412,0.2154,0.2487,0.2755,0.3023,0.3023,0.2889,0.2686,0.2686,0.2686,0.2686,0.2686,0.2555,0.2424,0.2357,0.2288,0.2221,0.2221,0.2221,0.223,0.2213,0.2278,0.2343,0.2391,0.2454,0.2511,0.2511,0.2511,0.2511,0.2511,0.2511,0.2666,0.3528,0.4073,0.4693,0.5854,0.6553,0.7019,0.7403,0.7484,0.7484,0.7484,0.7484,0.7484,0.7484,0.7484,0.7484,0.7484,0.0,0.7484,0.7484,0.7484,0.7484,0.7484,0.7484,0.7484,0.7484,0.7484,0.7484,0.7484,0.7484,0.7484,0.7484,0.7484,0.7484,0.7484,0.7484,0.7484,0.7484,0.7484,0.7484,0.7484,0.7484,0.7484,0.7484,0.7484,0.7484,0.7484,0.7484,0.7484,0.7484,0.7484,0.7484,0.7484,0.7484,0.7484,0.7484,0.0472,0.0404,0.0202,-0.0202,-0.0135,-0.0067,-0.027,-0.0202,-0.0067,-0.0067,0.0,0.0,0.0,-0.0135,-0.027,-0.027,-0.0404,-0.0404,-0.0404,-0.0404,-0.0404,-0.0404,-0.0337,-0.027,-0.027,-0.0067,0.0135,0.0337,0.0673,0.121,0.1951,0.2288,0.2622,0.3023,0.3023,0.2889,0.2686,0.2686,0.2686,0.2686,0.2488,0.2423,0.2357,0.2288,0.2221,0.2221,0.2221,0.2221,0.2223,0.2232,0.2243,0.2337,0.2346,0.2422,0.2511,0.2511,0.2511,0.2511,0.2511,0.2511,0.2666,0.3292,0.3915,0.4693,0.5705,0.6479,0.7019,0.7403,0.7484,0.7484,0.7484,0.7484,0.7484,0.7484,0.7484,0.7484,0.7484,0.0,0.7484,0.7484,0.7484,0.7484,0.7484,0.7484,0.7484,0.7484,0.7484,0.7484,0.7484,0.7484,0.7484,0.7484,0.7484,0.7484,0.7484,0.7484,0.7484,0.7484,0.7484,0.7484,0.7484,0.7484,0.7484,0.7484,0.7484,0.7484,0.7484,0.7484,0.7484,0.7484,0.7484,0.7484,0.7484,0.7484,0.7484,0.7484,0.0202,0.0202,0.0067,-0.0135,-0.0067,0.0,-0.0135,-0.0067,0.0,0.0,0.0,-0.0067,-0.0135,-0.027,-0.0404,-0.0539,-0.0607,-0.0741,-0.0808,-0.0606,-0.0472,-0.0472,-0.0472,-0.0404,-0.027,-0.027,-0.0067,0.027,0.0538,0.1008,0.1748,0.2087,0.2423,0.269,0.269,0.2555,0.242,0.242,0.242,0.2421,0.2356,0.2288,0.2288,0.2221,0.2221,0.2221,0.2221,0.2221,0.2221,0.2221,0.2213,0.222,0.2324,0.2394,0.2467,0.25,0.2511,0.2511,0.2511,0.2511,0.2666,0.3214,0.3837,0.4535,0.5547,0.6247,0.6868,0.7257,0.7407,0.7484,0.7484,0.7484,0.7484,0.7484,0.7484,0.0,0.7484,0.7484,0.7484,0.7484,0.7484,0.7484,0.7484,0.7484,0.7484,0.7484,0.7484,0.7484,0.7484,0.7484,0.7484,0.7484,0.7484,0.7484,0.7484,0.7484,0.7484,0.7484,0.7484,0.7484,0.7484,0.7484,0.7484,0.7484,0.7484,0.7484,0.7484,0.7484,0.7484,0.7484,0.7484,0.7484,0.7484,0.7484,0.7484,0.7484,0.0067,0.0,0.0,0.0,0.0,0.0,0.0,0.0,0.0,0.0,0.0,-0.0067,-0.027,-0.0337,-0.0472,-0.0742,-0.0876,-0.0942,-0.1076,-0.0808,-0.0606,-0.0606,-0.0607,-0.0472,-0.0337,-0.0404,-0.0202,0.0202,0.0471,0.0941,0.1614,0.2018,0.2288,0.2424,0.2424,0.2356,0.2221,0.2221,0.2221,0.2221,0.2221,0.2221,0.2221,0.2221,0.2221,0.2221,0.2221,0.2221,0.2221,0.2221,0.2195,0.2184,0.2244,0.2373,0.2432,0.2492,0.2511,0.2511,0.2511,0.2511,0.2588,0.3136,0.368,0.4302,0.5234,0.6015,0.6718,0.7103,0.7334,0.7484,0.7484,0.7484,0.7484,0.7484,0.0,0.7484,0.0,0.7484,0.7484,0.7484,0.7484,0.7484,0.7484,0.7484,0.7484,0.7484,0.7484,0.7484,0.7484,0.7484,0.7484,0.7484,0.7484,0.7484,0.7484,0.7484,0.7484,0.7484,0.7484,0.7484,0.7484,0.7484,0.7484,0.7484,0.7484,0.7484,0.7484,0.7484,0.7484,0.7484,0.7484,0.7484,0.7484,0.7484,0.7484,0.7484,0.027,0.0135,0.0,0.0,0.0,0.0,0.0,0.0,0.0,0.0,0.0,-0.0067,-0.027,-0.0404,-0.0539,-0.0809,-0.0942,-0.1076,-0.1076,-0.1076,-0.1076,-0.1076,-0.0876,-0.0674,-0.0472,-0.0404,-0.0202,0.0,0.0538,0.1076,0.1614,0.2018,0.2288,0.2424,0.2424,0.2356,0.2221,0.2221,0.2221,0.2221,0.2221,0.2221,0.2221,0.2221,0.2221,0.2221,0.2221,0.2221,0.2221,0.2221,0.2195,0.2184,0.2244,0.2373,0.2432,0.2492,0.2511,0.2511,0.2511,0.2511,0.2589,0.2824,0.3448,0.4302,0.4924,0.586,0.6718,0.7103,0.7334,0.7484,0.7484,0.7484,0.7484,0.7484,0.0,0.0,0.7484,0.7484,0.7484,0.7484,0.7484,0.7484,0.7484,0.7484,0.7484,0.7484,0.7484,0.7484,0.7484,0.7484,0.7484,0.7484,0.7484,0.7484,0.7484,0.7484,0.7484,0.7484,0.7484,0.7484,0.7484,0.7484,0.7484,0.7484,0.7484,0.7484,0.7484,0.7484,0.7484,0.7484,0.7484,0.7484,0.7484,0.7484,0.7484,0.7484,0.0135,0.0067,0.0,0.0,0.0,0.0,0.0,0.0,0.0,0.0,-0.0135,-0.027,-0.0404,-0.0607,-0.0741,-0.0942,-0.1076,-0.1076,-0.1076,-0.1076,-0.1076,-0.1076,-0.1009,-0.0876,-0.0674,-0.0607,-0.0404,0.0,0.0404,0.0874,0.1412,0.1817,0.2087,0.2288,0.2288,0.2221,0.2221,0.2221,0.2221,0.2221,0.2221,0.2221,0.2221,0.2221,0.2221,0.2221,0.2221,0.2221,0.2221,0.2221,0.2195,0.2184,0.2244,0.2373,0.2432,0.2492,0.2511,0.2511,0.2511,0.2511,0.2589,0.2904,0.345,0.407,0.4846,0.5702,0.6479,0.6942,0.7253,0.7484,0.7484,0.7484,0.7484,0.7484,0.0,0.7484,0.7484,0.7484,0.7484,0.7484,0.7484,0.7484,0.7484,0.7484,0.7484,0.7484,0.7484,0.7484,0.7484,0.7484,0.7484,0.7484,0.7484,0.7484,0.7484,0.7484,0.7484,0.7484,0.7484,0.7484,0.7484,0.7484,0.7484,0.7484,0.7484,0.7484,0.7484,0.7484,0.7484,0.7484,0.7484,0.7484,0.7484,0.7484,0.7484,0.7484,0.0,0.0,0.0,0.0,0.0,0.0,0.0,0.0,0.0,-0.0067,-0.0202,-0.0404,-0.0539,-0.0742,-0.0876,-0.1076,-0.1076,-0.1076,-0.1076,-0.1076,-0.1076,-0.1076,-0.1076,-0.1009,-0.0809,-0.0674,-0.0404,0.0135,0.0538,0.1008,0.148,0.1817,0.2087,0.2221,0.2221,0.2221,0.2221,0.2221,0.2221,0.2221,0.2221,0.2221,0.2221,0.2221,0.2221,0.2221,0.2221,0.2221,0.2221,0.2221,0.2195,0.2184,0.2244,0.2387,0.2456,0.2497,0.2511,0.2511,0.2511,0.2511,0.2589,0.2904,0.345,0.4073,0.4849,0.5702,0.6475,0.6865,0.7253,0.7484,0.7484,0.7484,0.7484,0.7484,0.7484,0.7484,0.7484,0.7484,0.7484,0.7484,0.7484,0.7484,0.7484,0.7484,0.7484,0.7484,0.7484,0.7484,0.7484,0.7484,0.7484,0.7484,0.7484,0.7484,0.7484,0.7484,0.7484,0.7484,0.7484,0.7484,0.7484,0.7484,0.7484,0.7484,0.7484,0.7484,0.7484,0.7484,0.7484,0.7484,0.7484,0.7484,0.7484,0.7484,0.7484,0.7484,0.0067,0.0,0.0,0.0,0.0,0.0,0.0,0.0,-0.0067,-0.027,-0.027,-0.0404,-0.0742,-0.0809,-0.0876,-0.1076,-0.1076,-0.1076,-0.1076,-0.1076,-0.1076,-0.1076,-0.1076,-0.1009,-0.0809,-0.0472,0.0,0.047,0.1008,0.148,0.1884,0.2087,0.2221,0.2221,0.2221,0.2221,0.2221,0.2221,0.2221,0.2221,0.2221,0.2221,0.2221,0.2221,0.2221,0.2221,0.2221,0.2221,0.2221,0.2221,0.2195,0.2186,0.2245,0.2417,0.2511,0.2511,0.2511,0.2511,0.2511,0.2511,0.2511,0.2746,0.3446,0.4224,0.4846,0.586,0.6718,0.7103,0.7334,0.7484,0.7484,0.7484,0.7484,0.7484,0.7484,0.7484,0.7484,0.7484,0.7484,0.7484,0.7484,0.7484,0.7484,0.7484,0.7484,0.7484,0.7484,0.7484,0.7484,0.7484,0.7484,0.7484,0.7484,0.7484,0.7484,0.7484,0.7484,0.7484,0.7484,0.7484,0.7484,0.7484,0.7484,0.7484,0.7484,0.7484,0.7484,0.7484,0.7484,0.7484,0.7484,0.7484,0.7484,0.7484,0.7484,0.7484,0.0,0.0,0.0,0.0,0.0,0.0,0.0,0.0,-0.0067,-0.027,-0.0404,-0.0539,-0.0742,-0.0943,-0.1009,-0.1076,-0.1076,-0.1076,-0.1076,-0.0942,-0.0876,-0.0876,-0.0876,-0.0808,-0.0605,-0.0135,0.0336,0.0739,0.1277,0.1614,0.1884,0.2087,0.2221,0.2221,0.2221,0.2221,0.2221,0.2221,0.2221,0.2221,0.2221,0.2221,0.2221,0.2221,0.2221,0.2221,0.2221,0.2221,0.2228,0.2203,0.2258,0.2326,0.2426,0.2482,0.2511,0.2511,0.2511,0.2511,0.2511,0.2511,0.2588,0.3136,0.3679,0.4302,0.5234,0.6015,0.6718,0.7103,0.7334,0.7484,0.7484,0.7484,0.7484,0.7484,0.7484,0.7484,0.7484,0.7484,0.7484,0.7484,0.7484,0.7484,0.7484,0.7484,0.7484,0.7484,0.7484,0.7484,0.7484,0.7484,0.7484,0.7484,0.7484,0.7484,0.7484,0.7484,0.7484,0.7484,0.7484,0.7484,0.7484,0.7484,0.7484,0.7484,0.7484,0.7484,0.7484,0.7484,0.7484,0.7484,0.7484,0.7484,0.7484,0.7484,0.7484,0.7484,0.0,0.0,0.0,0.0,0.0,0.0,0.0,-0.0067,-0.0202,-0.0337,-0.0539,-0.0674,-0.0876,-0.1009,-0.1076,-0.1076,-0.1076,-0.1076,-0.101,-0.0808,-0.0606,-0.0471,-0.0337,-0.0269,-0.0202,0.0269,0.0672,0.1143,0.1547,0.1817,0.2018,0.2154,0.2221,0.2221,0.2221,0.2221,0.2221,0.2221,0.2221,0.2221,0.2221,0.2221,0.2221,0.2221,0.2221,0.2221,0.2221,0.2221,0.2231,0.2225,0.2228,0.2386,0.248,0.2511,0.2511,0.2511,0.2511,0.2511,0.2511,0.2511,0.2666,0.337,0.3915,0.4457,0.547,0.6247,0.6868,0.7253,0.7407,0.7484,0.7484,0.7484,0.7484,0.7484,0.7484,0.7484,0.7484,0.7484,0.7484,0.7484,0.7484,0.7484,0.7484,0.7484,0.7484,0.7484,0.7484,0.7484,0.7484,0.7484,0.7484,0.7484,0.7484,0.7484,0.7484,0.7484,0.7484,0.7484,0.7484,0.7484,0.7484,0.7484,0.7484,0.7484,0.7484,0.7484,0.7484,0.7484,0.7484,0.7484,0.7484,0.7484,0.7484,0.7484,0.7484,0.7484,0.0,0.0,0.0,0.0,0.0,0.0,0.0,-0.0202,-0.0337,-0.0539,-0.0674,-0.0876,-0.1076,-0.1076,-0.1076,-0.1076,-0.1076,-0.0942,-0.0742,-0.0538,-0.0269,0.0,0.0403,0.0538,0.0403,0.0739,0.1143,0.1614,0.1817,0.2018,0.2221,0.2221,0.2221,0.2221,0.2221,0.2221,0.2221,0.2221,0.2221,0.2221,0.2221,0.2221,0.2221,0.2221,0.2221,0.2221,0.2221,0.2225,0.2172,0.2238,0.2335,0.2437,0.2493,0.2511,0.2511,0.2511,0.2511,0.2511,0.2511,0.2511,0.2744,0.3606,0.4151,0.4696,0.5705,0.6402,0.7019,0.7403,0.7484,0.7484,0.7484,0.7484,0.7484,0.7484,0.7484,0.7484,0.7484,0.7484,0.7484,0.7484,0.7484,0.7484,0.7484,0.7484,0.7484,0.7484,0.7484,0.7484,0.7484,0.7484,0.7484,0.7484,0.7484,0.7484,0.7484,0.7484,0.7484,0.7484,0.7484,0.7484,0.7484,0.7484,0.7484,0.7484,0.7484,0.7484,0.7484,0.7484,0.7484,0.7484,0.7484,0.7484,0.7484,0.7484,0.7484,0.7484,0.0,0.0,0.0,0.0,0.0,-0.0067,-0.0202,-0.027,-0.0404,-0.0674,-0.0742,-0.0876,-0.1076,-0.1076,-0.1009,-0.0876,-0.0741,-0.0539,-0.0404,-0.0067,0.0202,0.0403,0.0874,0.121,0.1344,0.1412,0.1547,0.1817,0.2018,0.2154,0.2221,0.2221,0.2221,0.2221,0.2221,0.2221,0.2221,0.2221,0.2221,0.2221,0.2221,0.2221,0.2221,0.2221,0.2221,0.2221,0.2221,0.2184,0.2241,0.2346,0.2429,0.2493,0.2506,0.2511,0.2511,0.2511,0.2511,0.2511,0.2511,0.2589,0.2902,0.3606,0.4231,0.4929,0.5935,0.6553,0.7019,0.7403,0.7484,0.7484,0.7484,0.7484,0.7484,0.7484,0.7484,0.7484,0.7484,0.7484,0.7484,0.7484,0.7484,0.7484,0.7484,0.7484,0.7484,0.7484,0.7484,0.7484,0.7484,0.7484,0.7484,0.7484,0.7484,0.7484,0.7484,0.7484,0.7484,0.7484,0.7484,0.7484,0.7484,0.7484,0.7484,0.7484,0.7484,0.7484,0.7484,0.7484,0.7484,0.7484,0.7484,0.7484,0.7484,0.7484,0.7484,0.7484,0.0,0.0,0.0,0.0,0.0,-0.0067,-0.027,-0.0337,-0.0472,-0.0742,-0.0876,-0.101,-0.1076,-0.1009,-0.0876,-0.0607,-0.0404,-0.0135,0.0067,0.0471,0.0806,0.1008,0.1412,0.1681,0.1884,0.1884,0.1951,0.2018,0.2154,0.2221,0.2221,0.2221,0.2221,0.2221,0.2221,0.2221,0.2221,0.2221,0.2221,0.2221,0.2221,0.2221,0.2221,0.2221,0.2221,0.2225,0.2187,0.2253,0.2338,0.2398,0.2461,0.2511,0.2511,0.2511,0.2511,0.2511,0.2511,0.2511,0.2589,0.2826,0.3139,0.3919,0.4543,0.5165,0.6009,0.6553,0.7019,0.7403,0.7484,0.7484,0.7484,0.7484,0.7484,0.7484,0.7484,0.7484,0.7484,0.7484,0.7484,0.7484,0.7484,0.7484,0.7484,0.7484,0.7484,0.7484,0.7484,0.7484,0.7484,0.7484,0.7484,0.7484,0.7484,0.7484,0.7484,0.7484,0.7484,0.7484,0.7484,0.7484,0.7484,0.7484,0.7484,0.7484,0.7484,0.7484,0.7484,0.7484,0.7484,0.7484,0.7484,0.7484,0.7484,0.7484,0.7484,0.7484,0.0,0.0,0.0,0.0,0.0,-0.0067,-0.027,-0.0404,-0.0539,-0.0742,-0.0875,-0.1009,-0.1009,-0.0741,-0.0472,-0.0202,0.0067,0.0336,0.0605,0.1008,0.1344,0.1614,0.1817,0.2018,0.2221,0.2221,0.2221,0.2221,0.2221,0.2221,0.2221,0.2221,0.2221,0.2221,0.2221,0.2221,0.2221,0.2221,0.2221,0.2221,0.2221,0.2221,0.2221,0.2221,0.2228,0.2176,0.2226,0.232,0.2421,0.2432,0.2469,0.2511,0.2511,0.2511,0.2511,0.2511,0.2511,0.2589,0.2826,0.3061,0.3452,0.4307,0.4929,0.555,0.6163,0.663,0.7019,0.7403,0.7484,0.7484,0.7484,0.7484,0.7484,0.7484,0.7484,0.7484,0.7484,0.7484,0.7484,0.7484,0.7484,0.7484,0.7484,0.7484,0.7484,0.7484,0.7484,0.7484,0.7484,0.7484,0.7484,0.7484,0.7484,0.7484,0.7484,0.7484,0.7484,0.7484,0.7484,0.7484,0.7484,0.7484,0.7484,0.7484,0.7484,0.7484,0.7484,0.7484,0.7484,0.7484,0.7484,0.7484,0.7484,0.7484,0.7484,0.7484,0.0,0.0,0.0,0.0,0.0,-0.0067,-0.027,-0.0337,-0.0404,-0.0539,-0.0539,-0.0607,-0.0607,-0.0135,0.0202,0.0403,0.074,0.1008,0.121,0.1412,0.1614,0.1817,0.2018,0.2154,0.2221,0.2221,0.2221,0.2221,0.2221,0.2221,0.2221,0.2221,0.2221,0.2221,0.2221,0.2221,0.2221,0.2221,0.2221,0.2221,0.2221,0.2221,0.2221,0.2221,0.2187,0.2233,0.2171,0.232,0.2428,0.248,0.2503,0.2511,0.2511,0.2511,0.2511,0.2511,0.2589,0.2826,0.2984,0.3532,0.4155,0.4771,0.5392,0.6015,0.663,0.7022,0.7257,0.7484,0.7484,0.7484,0.7484,0.7484,0.7484,0.7484,0.7484,0.7484,0.7484,0.7484,0.7484,0.7484,0.7484,0.7484,0.7484,0.7484,0.7484,0.7484,0.7484,0.7484,0.7484,0.7484,0.7484,0.7484,0.7484,0.7484,0.7484,0.7484,0.7484,0.7484,0.7484,0.7484,0.7484,0.7484,0.7484,0.7484,0.7484,0.7484,0.7484,0.7484,0.7484,0.7484,0.7484,0.7484,0.7484,0.7484,0.7484,0.7484,0.0,0.0,0.0,0.0,0.0067,0.0067,-0.0135,-0.0067,0.0,-0.0067,-0.0067,0.0,0.0067,0.0471,0.0874,0.1076,0.1412,0.1614,0.1817,0.1884,0.1951,0.2085,0.2154,0.2221,0.2221,0.2221,0.2221,0.2221,0.2221,0.2221,0.2221,0.2221,0.2221,0.2221,0.2221,0.2221,0.2221,0.2221,0.2221,0.2221,0.2221,0.2221,0.2225,0.2192,0.2222,0.2183,0.2319,0.2397,0.2474,0.2501,0.2511,0.2511,0.2511,0.2511,0.2511,0.2668,0.2826,0.3061,0.353,0.4155,0.4774,0.5318,0.6015,0.6556,0.6945,0.7253,0.7411,0.7484,0.7484,0.7484,0.7484,0.7484,0.7484,0.7484,0.7484,0.7484,0.7484,0.7484,0.7484,0.7484,0.7484,0.7484,0.7484,0.7484,0.7484,0.7484,0.7484,0.7484,0.7484,0.7484,0.7484,0.7484,0.7484,0.7484,0.7484,0.7484,0.7484,0.7484,0.7484,0.7484,0.7484,0.7484,0.7484,0.7484,0.7484,0.7484,0.7484,0.7484,0.7484,0.7484,0.7484,0.7484,0.7484,0.7484,0.7484,0.7484]},{"header":{"parameterUnit":"m.s-1","parameterCategory":1,"la1":30.6,"la2":28.766,"lo1":-90.7593,"lo2":-88.6598,"dy":0.0162,"dx":0.0183,"nx":116,"ny":114,"refTime":"2023-09-11T18:00:00:Z","depth":0,"parameterNumber":3,"parameterNumberName":"V-component_of_WINDS"},"data":[0.0,0.0,0.0,0.0,0.0,0.0,0.0,0.0,0.0,0.0,0.0,0.0,0.0,0.0,0.0,0.0,0.0,0.0,0.0,0.0,0.0,0.0,0.0,0.0,0.0,0.0,0.0,0.0,0.0,0.0,0.0,0.0,0.0,0.0,0.0,0.0,0.0,0.0,0.0,0.0,0.0,0.0,0.0,0.0,0.0,0.0,0.0,0.0,0.0,0.0,0.0,0.0,0.0,0.0,0.0,0.0,0.0,0.0,0.0,0.0,0.0,0.0,0.0,0.0,0.0,0.0,0.0,0.0,0.0,0.0,0.0,0.0,0.0,0.0,0.0,0.0,0.0,0.0,0.0,0.0,0.0,0.0,0.0,0.0,0.0,0.0,0.0,0.0,0.0,0.0,0.0,0.0,0.0,0.0,0.0,0.0,0.0,0.0,0.0,0.0,0.0,0.0,0.0,0.0,0.0,0.0,0.0,0.0,0.0,0.0,0.0,0.0,0.0,0.0,0.0,0.0,0.0,0.0,0.0,0.0,0.0,0.0,0.0,0.0,0.0,0.0,0.0,0.0,0.0,0.0,0.0,0.0,0.0,0.0,0.0,0.0,0.0,0.0,0.0,0.0,0.0,0.0,0.0,0.0,0.0,0.0,0.0,0.0,0.0,0.0,0.0,0.0,0.0,0.0,0.0,0.0,0.0,0.0,0.0,0.0,0.0,0.0,0.0,0.0,0.0,0.0,0.0,0.0,0.0,0.0,0.0,0.0,0.0,0.0,0.0,0.0,0.0,0.0,0.0,0.0,0.0,0.0,0.0,0.0,0.0,0.0,0.0,0.0,0.0,0.0,0.0,0.0,0.0,0.0,0.0,0.0,0.0,0.0,0.0,0.0,0.0,0.0,0.0,0.0,0.0,0.0,0.0,0.0,0.0,0.0,0.0,0.0,0.0,0.0,0.0,0.0,0.0,0.0,0.0,0.0,0.0,0.0,0.0,0.0,0.0,0.0,0.0,0.0,0.0,0.0,0.0,0.0,0.0,0.0,0.0,0.0,0.0,0.0,0.0,0.0,0.0,0.0,0.0,0.0,0.0,0.0,0.0,0.0,0.0,0.0,0.0,0.0,0.0,0.0,0.0,0.0,0.0,0.0,0.0,0.0,0.0,0.0,0.0,0.0,0.0,0.0,0.0,0.0,0.0,0.0,0.0,0.0,0.0,0.0,0.0,0.0,0.0,0.0,0.0,0.0,0.0,0.0,0.0,0.0,0.0,0.0,0.0,0.0,0.0,0.0,0.0,0.0,0.0,0.0,0.0,0.0,0.0,0.0,0.0,0.0,0.0,0.0,0.0,0.0,0.0,0.0,0.0,0.0,0.0,0.0,0.0,0.0,0.0,0.0,0.0,0.0,0.0,0.0,0.0,0.0,0.0,0.0,0.0,0.0,0.0,0.0,0.0,0.0,0.0,0.0,0.0,0.0,0.0,0.0,0.0,0.0,0.0,0.0,0.0,0.0,0.0,0.0,0.0,0.0,0.0,0.0,0.0,0.0,0.0,0.0,0.0,0.0,0.0,0.0,0.0,0.0,0.0,0.0,0.0,0.0,0.0,0.0,0.0,0.0,0.0,0.0,0.0,0.0,0.0,0.0,0.0,0.0,0.0,0.0,0.0,0.0,0.0,0.0,0.0,0.0,0.0,0.0,0.0,0.0,0.0,0.0,0.0,0.0,0.0,0.0,0.0,0.0,0.0,0.0,0.0,0.0,0.0,0.0,0.0,0.0,0.0,0.0,0.0,0.0,0.0,0.0,0.0,0.0,0.0,0.0,0.0,0.0,0.0,0.0,0.0,0.0,0.0,0.0,0.0,0.0,0.0,0.0,0.0,0.0,0.0,0.0,0.0,0.0,0.0,0.0,0.0,0.0,0.0,0.0,0.0,0.0,0.0,0.0,0.0,0.0,0.0,0.0,0.0,0.0,0.0,0.0,0.0,0.0,0.0,0.0,0.0,0.0,0.0,0.0,0.0,0.0,0.0,0.0,0.0,0.0,0.0,0.0,0.0,0.0,0.0,0.0,0.0,0.0,0.0,0.0,0.0,0.0,0.0,0.0,0.0,0.0,0.0,0.0,0.0,0.0,0.0,0.0,0.0,0.0,0.0,0.0,0.0,0.0,0.0,0.0,0.0,0.0,0.0,0.0,0.0,0.0,0.0,0.0,0.0,0.0,0.0,0.0,0.0,0.0,0.0,0.0,0.0,0.0,0.0,0.0,0.0,0.0,0.0,0.0,0.0,0.0,0.0,0.0,0.0,0.0,0.0,0.0,0.0,0.0,0.0,0.0,0.0,0.0,0.0,0.0,0.0,0.0,0.0,0.0,0.0,0.0,0.0,0.0,0.0,0.0,0.0,0.0,0.0,0.0,0.0,0.0,0.0,0.0,0.0,0.0,0.0,0.0,0.0,0.0,0.0,0.0,0.0,0.0,0.0,0.0,0.0,0.0,0.0,0.0,0.0,0.0,0.0,0.0,0.0,0.0,0.0,0.0,0.0,0.0,0.0,0.0,0.0,0.0,0.0,0.0,0.0,0.0,0.0,0.0,0.0,0.0,0.0,0.0,0.0,0.0,0.0,0.0,0.0,0.0,0.0,0.0,0.0,0.0,0.0,0.0,0.0,0.0,0.0,0.0,0.0,0.0,0.0,0.0,0.0,0.0,0.0,0.0,0.0,0.0,0.0,0.0,0.0,0.0,0.0,0.0,0.0,0.0,0.0,0.0,0.0,0.0,0.0,0.0,0.0,0.0,0.0,0.0,0.0,0.0,0.0,0.0,0.0,0.0,0.0,0.0,0.0,0.0,0.0,0.0,0.0,0.0,0.0,0.0,0.0,0.0,0.0,0.0,0.0,0.0,0.0,0.0,0.0,0.0,0.0,0.0,0.0,0.0,0.0,0.0,0.0,0.0,0.0,0.0,0.0,0.0,0.0,0.0,0.0,0.0,0.0,0.0,0.0,0.0,0.0,0.0,0.0,0.0,0.0,0.0,0.0,0.0,0.0,0.0,0.0,0.0,0.0,0.0,0.0,0.0,0.0,0.0,0.0,0.0,0.0,0.0,0.0,0.0,0.0,0.0,0.0,0.0,0.0,0.0,0.0,0.0,0.0,0.0,0.0,0.0,0.0,0.0,0.0,0.0,0.0,0.0,0.0,0.0,0.0,0.0,0.0,0.0,0.0,0.0,0.0,0.0,0.0,0.0,0.0,0.0,0.0,0.0,0.0,0.0,0.0,0.0,0.0,0.0,0.0,0.0,0.0,0.0,0.0,0.0,0.0,0.0,0.0,0.0,0.0,0.0,0.0,0.0,0.0,0.0,0.0,0.0,0.0,0.0,0.0,0.0,0.0,0.0,0.0,0.0,0.0,0.0,0.0,0.0,0.0,0.0,0.0,0.0,0.0,0.0,0.0,0.0,0.0,0.0,0.0,0.0,0.0,0.0,0.0,0.0,0.0,0.0,0.0,0.0,0.0,0.0,0.0,0.0,0.0,0.0,0.0,0.0,0.0,0.0,0.0,0.0,0.0,0.0,0.0,0.0,0.0,0.0,0.0,0.0,0.0,0.0,0.0,0.0,0.0,0.0,0.0,0.0,0.0,0.0,0.0,0.0,0.0,0.0,0.0,0.0,0.0,0.0,0.0,0.0,0.0,0.0,0.0,0.0,0.0,0.0,0.0,0.0,0.0,0.0,0.0,0.0,0.0,0.0,0.0,0.0,0.0,0.0,0.0,0.0,0.0,0.0,0.0,0.0,0.0,0.0,0.0,0.0,0.0,0.0,0.0,0.0,0.0,0.0,0.0,0.0,0.0,0.0,0.0,0.0,0.0,0.0,0.0,0.0,0.0,0.0,0.0,0.0,0.0,0.0,0.0,0.0,0.0,0.0,0.0,0.0,0.0,0.0,0.0,0.0,0.0,0.0,0.0,0.0,0.0,0.0,0.0,0.0,0.0,0.0,0.0,0.0,0.0,0.0,0.0,0.0,0.0,0.0,0.0,0.0,0.0,0.0,0.0,0.0,0.0,0.0,0.0,0.0,0.0,0.0,0.0,0.0,0.0,0.0,0.0,0.0,0.0,0.0,0.0,0.0,0.0,0.0,0.0,0.0,0.0,0.0,0.0,0.0,0.0,0.0,0.0,0.0,0.0,0.0,0.0,0.0,0.0,0.0,0.0,0.0,0.0,0.0,0.0,0.0,0.0,0.0,0.0,0.0,0.0,0.0,0.0,0.0,0.0,0.0,0.0,0.0,0.0,0.0,0.0,0.0,0.0,0.0,0.0,0.0,0.0,0.0,0.0,0.0,0.0,0.0,0.0,0.0,0.0,0.0,0.0,0.0,0.0,0.0,0.0,0.0,0.0,0.0,0.0,0.0,0.0,0.0,0.0,0.0,0.0,0.0,0.0,0.0,0.0,0.0,0.0,0.0,0.0,0.0,0.0,0.0,0.0,0.0,0.0,0.0,0.0,0.0,0.0,0.0,0.0,0.0,0.0,0.0,0.0,0.0,0.0,0.0,0.0,0.0,0.0,0.0,0.0,0.0,0.0,0.0,0.0,0.0,0.0,0.0,0.0,0.0,0.0,0.0,0.0,0.0,0.0,0.0,0.0,0.0,0.0,0.0,0.0,0.0,0.0,0.0,0.0,0.0,0.0,0.0,0.0,0.0,0.0,0.0,0.0,0.0,0.0,0.0,0.0,0.0,0.0,0.0,0.0,0.0,0.0,0.0,0.0,0.0,0.0,0.0,0.0,0.0,0.0,0.0,0.0,0.0,0.0,0.0,0.0,0.0,0.0,0.0,0.0,0.0,0.0,0.0,0.0,0.0,0.0,0.0,0.0,0.0,0.0,0.0,0.0,0.0,0.0,0.0,0.0,0.0,0.0,0.0,0.0,0.0,0.0,0.0,0.0,0.0,0.0,0.0,0.0,0.0,0.0,0.0,0.0,0.0,0.0,0.0,0.0,0.0,0.0,0.0,0.0,0.0,0.0,0.0,0.0,0.0,0.0,0.0,0.0,0.0,0.0,0.0,0.0,0.0,0.0,0.0,0.0,0.0,0.0,0.0,0.0,0.0,0.0,0.0,0.0,0.0,0.0,0.0,0.0,0.0,0.0,0.0,0.0,0.0,0.0,0.0,0.0,0.0,0.0,0.0,0.0,0.0,0.0,0.0,0.0,0.0,0.0,0.0,0.0,0.0,0.0,0.0,0.0,0.0,0.0,0.0,0.0,0.0,0.0,0.0,0.0,0.0,0.0,0.0,0.0,0.0,0.0,0.0,0.0,0.0,0.0,0.0,0.0,0.0,0.0,0.0,0.0,0.0,0.0,0.0,0.0,0.0,0.0,0.0,0.0,0.0,0.0,0.0,0.0,0.0,0.0,0.0,0.0,0.0,0.0,0.0,0.0,0.0,0.0,0.0,0.0,0.0,0.0,0.0,0.0,0.0,0.0,0.0,0.0,0.0,0.0,0.0,0.0,0.0,0.0,0.0,0.0,0.0,0.0,0.0,0.0,0.0,0.0,0.0,0.0,0.0,0.0,0.0,0.0,0.0,0.0,0.0,0.0,0.0,0.0,0.0,0.0,0.0,0.0,0.0,0.0,0.0,0.0,0.0,0.0,0.0,0.0,0.0,0.0,0.0,0.0,0.0,0.0,0.0,0.0,0.0,0.0,0.0,0.0,0.0,0.0,0.0,0.0,0.0,0.0,0.0,0.0,0.0,0.0,0.0,0.0,0.0,0.0,0.0,0.0,0.0,0.0,0.0,0.0,0.0,0.0,0.0,0.0,0.0,0.0,0.0,0.0,0.0,0.0,0.0,0.0,0.0,0.0,0.0,0.0,0.0,0.0,0.0,0.0,0.0,0.0,0.0,0.0,0.0,0.0,0.0,0.0,0.0,0.0,0.0,0.0,0.0,0.0,0.0,0.0,0.0,0.0,0.0,0.0,0.0,0.0,0.0,0.0,0.0,0.0,0.0,0.0,0.0,0.0,0.0,0.0,0.0,0.0,0.0,0.0,0.0,0.0,0.0,0.0,0.0,0.0,0.0,0.0,0.0,0.0,0.0,0.0,0.0,2.9926,2.9588,0.0,0.0,0.0,0.0,0.0,0.0,0.0,0.0,0.0,0.0,0.0,0.0,0.0,0.0,0.0,0.0,0.0,0.0,0.0,0.0,0.0,0.0,0.0,0.0,0.0,0.0,0.0,0.0,0.0,0.0,0.0,0.0,0.0,0.0,0.0,0.0,0.0,0.0,0.0,0.0,0.0,0.0,0.0,0.0,0.0,0.0,0.0,0.0,0.0,0.0,0.0,0.0,0.0,0.0,0.0,0.0,0.0,0.0,0.0,0.0,0.0,0.0,0.0,0.0,0.0,0.0,0.0,0.0,0.0,0.0,0.0,0.0,0.0,0.0,0.0,0.0,0.0,0.0,0.0,0.0,0.0,0.0,0.0,0.0,0.0,0.0,0.0,0.0,0.0,0.0,0.0,0.0,0.0,0.0,0.0,0.0,0.0,0.0,0.0,0.0,0.0,0.0,0.0,0.0,0.0,0.0,0.0,0.0,0.0,0.0,0.0,0.0,0.0,0.0,3.0753,3.0321,0.0,0.0,0.0,0.0,0.0,0.0,0.0,0.0,0.0,0.0,0.0,0.0,0.0,0.0,0.0,0.0,0.0,0.0,0.0,0.0,0.0,0.0,0.0,0.0,0.0,0.0,0.0,0.0,0.0,0.0,0.0,0.0,0.0,0.0,0.0,0.0,0.0,0.0,0.0,0.0,0.0,0.0,0.0,0.0,0.0,0.0,0.0,0.0,0.0,0.0,0.0,0.0,0.0,0.0,0.0,0.0,0.0,0.0,0.0,0.0,0.0,0.0,0.0,0.0,0.0,0.0,0.0,0.0,0.0,0.0,0.0,0.0,0.0,0.0,0.0,0.0,0.0,0.0,0.0,0.0,0.0,0.0,0.0,0.0,0.0,0.0,0.0,0.0,0.0,0.0,0.0,0.0,0.0,0.0,0.0,0.0,0.0,0.0,0.0,0.0,0.0,0.0,0.0,0.0,0.0,0.0,0.0,0.0,3.2638,3.2634,3.2649,3.2802,3.2848,3.2816,3.1984,3.152,3.1296,3.0524,0.0,0.0,0.0,0.0,0.0,0.0,0.0,0.0,0.0,0.0,0.0,0.0,0.0,0.0,0.0,0.0,0.0,0.0,0.0,0.0,0.0,0.0,0.0,0.0,0.0,0.0,0.0,0.0,0.0,0.0,0.0,0.0,0.0,0.0,0.0,0.0,0.0,0.0,2.3867,2.4045,2.4497,2.5167,2.5239,0.0,0.0,0.0,0.0,0.0,0.0,0.0,0.0,0.0,0.0,0.0,0.0,0.0,0.0,0.0,0.0,0.0,0.0,0.0,0.0,0.0,0.0,0.0,0.0,0.0,0.0,0.0,0.0,0.0,0.0,0.0,0.0,0.0,0.0,0.0,0.0,0.0,0.0,0.0,0.0,0.0,0.0,0.0,3.0007,3.0038,0.0,0.0,0.0,0.0,0.0,0.0,0.0,0.0,0.0,0.0,0.0,0.0,0.0,3.2575,3.2579,3.2694,3.2766,3.2766,3.2766,3.2779,3.2799,3.3571,3.3901,3.3887,3.3757,0.0,3.2374,3.226,0.0,0.0,0.0,0.0,0.0,0.0,0.0,0.0,0.0,0.0,0.0,0.0,0.0,0.0,0.0,0.0,0.0,0.0,0.0,0.0,0.0,0.0,0.0,0.0,0.0,0.0,0.0,0.0,0.0,0.0,0.0,0.0,0.0,0.0,0.0,0.0,2.2315,2.3317,2.4044,2.4466,2.4818,2.5122,2.516,2.5203,2.5243,2.5231,0.0,0.0,0.0,0.0,0.0,0.0,0.0,0.0,0.0,0.0,0.0,0.0,0.0,0.0,0.0,0.0,0.0,0.0,0.0,0.0,0.0,0.0,0.0,0.0,0.0,0.0,0.0,0.0,0.0,0.0,0.0,0.0,0.0,0.0,0.0,0.0,0.0,0.0,0.0,2.9972,3.0019,3.0098,3.0468,3.0753,0.0,0.0,0.0,0.0,0.0,0.0,0.0,0.0,0.0,3.2839,3.3327,3.3603,3.3628,3.409,3.4347,3.4364,3.4364,3.4388,3.443,3.4836,3.4998,3.4998,3.4998,3.4743,3.4269,3.3158,3.2704,3.2704,0.0,0.0,0.0,0.0,3.3605,3.4022,0.0,0.0,0.0,0.0,0.0,0.0,0.0,0.0,0.0,0.0,0.0,0.0,0.0,0.0,0.0,1.7936,0.0,0.0,0.0,0.0,0.0,0.0,0.0,0.0,0.0,0.0,0.0,2.2019,2.3214,2.3908,2.4124,2.4714,2.4968,2.4926,2.4934,2.5013,2.5141,2.5168,2.5294,0.0,0.0,0.0,0.0,0.0,0.0,0.0,0.0,0.0,0.0,0.0,0.0,0.0,0.0,0.0,0.0,0.0,0.0,0.0,0.0,0.0,0.0,0.0,0.0,0.0,0.0,0.0,0.0,0.0,0.0,0.0,0.0,0.0,0.0,0.0,0.0,0.0,0.0,3.024,3.0418,3.0505,3.1221,3.1732,0.0,0.0,0.0,0.0,0.0,0.0,3.3179,3.3422,3.3562,3.3604,3.4245,3.4615,3.4676,3.5276,3.5607,3.5649,3.5649,3.5689,3.5727,3.5727,3.5727,3.5727,3.5727,3.5727,3.5611,3.4141,3.353,3.353,3.3518,3.393,3.452,3.4488,3.4873,3.5412,0.0,0.0,0.0,0.0,0.0,0.0,0.0,0.0,0.0,0.0,0.0,0.0,0.0,0.0,1.691,1.732,1.7597,1.7851,0.0,0.0,0.0,0.0,0.0,0.0,0.0,0.0,0.0,2.3393,2.3488,2.3908,2.467,2.4708,2.4716,2.4723,2.4723,2.4808,2.5006,2.507,2.5539,2.6243,0.0,0.0,0.0,0.0,0.0,0.0,0.0,0.0,0.0,0.0,0.0,0.0,0.0,0.0,0.0,0.0,0.0,0.0,0.0,0.0,0.0,0.0,0.0,0.0,0.0,0.0,0.0,0.0,0.0,0.0,0.0,0.0,0.0,0.0,0.0,0.0,0.0,0.0,0.0,3.159,3.2327,0.0,0.0,0.0,0.0,3.2884,3.3716,3.4214,3.4214,3.5068,3.5553,3.5553,3.5591,3.5668,3.5724,3.5763,3.5791,3.5791,3.5791,3.5791,3.5791,3.5791,3.5791,3.5791,3.5791,3.5788,3.5776,3.5611,3.5563,3.5553,3.5475,3.5514,3.5611,3.5553,3.5591,3.5669,0.0,0.0,0.0,0.0,0.0,0.0,0.0,0.0,0.0,0.0,0.0,0.0,0.0,1.5879,1.6251,1.657,1.6761,1.6938,1.7124,0.0,0.0,0.0,0.0,0.0,0.0,0.0,2.2367,2.311,2.3631,2.4076,2.4444,2.4444,2.4479,2.4515,2.4564,2.4909,2.5461,2.5623,2.5868,2.6228,2.6744,2.7172,0.0,0.0,0.0,0.0,0.0,0.0,0.0,0.0,0.0,0.0,0.0,0.0,0.0,0.0,0.0,0.0,0.0,0.0,0.0,0.0,0.0,0.0,0.0,0.0,0.0,0.0,0.0,0.0,0.0,0.0,0.0,0.0,0.0,0.0,0.0,0.0,0.0,3.2593,3.3323,0.0,3.3862,3.4326,3.4665,3.47,3.5011,3.5214,3.5271,3.5588,3.576,3.5768,3.6347,3.6674,3.6693,3.7206,3.7479,3.7532,3.7532,3.7539,3.7546,3.7546,3.7546,3.7546,3.7546,3.7534,3.7534,3.752,3.6829,3.576,3.5732,3.5743,3.5754,3.5743,3.5752,3.576,0.0,0.0,0.0,0.0,0.0,0.0,0.0,0.0,0.0,0.0,0.0,1.4707,1.497,1.5301,1.5593,1.5836,1.5933,1.5985,1.6103,0.0,0.0,0.0,0.0,0.0,0.0,2.1721,2.263,2.3083,2.3628,2.3961,2.4058,2.4115,2.4191,2.4284,2.4616,2.5079,2.5616,2.6302,2.6687,2.6857,2.7387,2.7848,2.8212,0.0,0.0,0.0,0.0,0.0,0.0,0.0,0.0,0.0,0.0,0.0,0.0,0.0,0.0,0.0,0.0,0.0,0.0,0.0,0.0,0.0,0.0,0.0,0.0,0.0,0.0,0.0,0.0,0.0,0.0,0.0,0.0,0.0,0.0,3.3241,3.3437,3.3548,3.4293,3.4816,3.4875,3.535,3.5698,3.5724,3.5741,3.5795,3.583,3.6117,3.6268,3.6268,3.7157,3.7631,3.7631,3.8176,3.8455,3.8507,3.8507,3.8507,3.85,3.85,3.85,3.85,3.85,3.85,3.85,3.85,3.778,3.6722,3.6722,3.6708,3.672,3.6708,3.6715,3.6722,0.0,0.0,0.0,0.0,0.0,0.0,0.0,0.0,0.0,0.0,1.3835,1.4084,1.4342,1.469,1.4968,1.5151,1.5107,1.5048,1.505,1.4975,0.0,0.0,0.0,0.0,2.1428,2.1814,2.2458,2.3369,2.3437,2.3522,2.3588,2.3732,2.3876,2.4069,2.4913,2.5319,2.547,2.7083,2.7978,2.8222,2.8222,2.8783,2.9608,0.0,0.0,0.0,0.0,0.0,0.0,0.0,0.0,0.0,0.0,0.0,0.0,0.0,0.0,0.0,0.0,0.0,0.0,0.0,0.0,0.0,0.0,0.0,0.0,0.0,0.0,0.0,0.0,0.0,0.0,0.0,0.0,0.0,3.3525,3.3943,3.4464,3.4536,3.5294,3.5799,3.5799,3.5803,3.5818,3.583,3.5905,3.595,3.5988,3.6779,3.7233,3.7233,3.809,3.8539,3.8539,3.8578,3.8578,3.8578,3.8578,3.8578,3.8578,3.8578,3.8578,3.8578,3.8578,3.8578,3.8578,3.8578,3.8578,3.8578,3.8519,3.85,3.85,3.85,3.85,3.85,0.0,0.0,0.0,0.0,0.0,0.0,0.0,0.0,0.0,0.0,1.3547,1.3749,1.3993,1.4254,1.4401,1.4392,1.4296,1.4154,1.4017,0.0,0.0,0.0,0.0,0.0,2.0822,2.1698,2.2384,2.2833,2.2935,2.3084,2.323,2.3463,2.3947,2.4595,2.4983,2.5794,2.6923,2.7447,2.8027,2.8654,2.8849,2.9147,2.9474,0.0,0.0,0.0,0.0,0.0,0.0,0.0,0.0,0.0,0.0,0.0,0.0,0.0,0.0,0.0,0.0,0.0,0.0,0.0,0.0,0.0,0.0,0.0,0.0,0.0,0.0,0.0,0.0,0.0,0.0,0.0,3.5716,3.5691,3.5162,3.5282,3.5446,3.5514,3.5728,3.5872,3.5859,3.5866,3.6137,3.6762,3.6826,3.7123,3.7747,3.8005,3.8142,3.8142,3.9,3.9443,3.9433,4.0076,4.0382,4.039,4.039,4.039,4.039,4.039,4.039,4.039,4.039,4.039,4.039,4.039,4.039,4.0253,3.8987,3.85,3.85,3.85,3.85,3.85,0.0,0.0,0.0,0.0,0.0,0.0,0.0,0.0,0.0,0.0,1.3254,1.3425,1.3674,1.3828,1.3881,1.3789,1.3568,1.3331,1.3101,0.0,0.0,0.0,0.0,1.9118,2.0719,2.1532,2.2039,2.2315,2.2436,2.2651,2.2902,2.3151,2.3774,2.4748,2.5229,2.617,2.7387,2.7779,2.8227,2.8687,2.8863,2.9093,2.933,2.9435,2.9626,2.9891,3.0083,3.0247,3.0386,3.052,0.0,0.0,0.0,0.0,0.0,0.0,0.0,0.0,0.0,0.0,0.0,0.0,0.0,0.0,0.0,0.0,0.0,0.0,0.0,0.0,0.0,0.0,0.0,0.0,3.5929,3.5938,3.5891,3.5885,3.5911,3.5942,3.6234,3.644,3.6431,3.6767,3.7201,3.7702,3.7741,3.7975,3.8463,3.8853,3.9048,3.9048,3.9887,4.033,4.0345,4.0852,4.11,4.1109,4.1109,4.1109,4.1109,4.1103,4.1103,4.1097,4.1091,4.111,4.111,4.111,4.111,0.0,0.0,0.0,0.0,0.0,3.9591,3.9591,0.0,0.0,0.0,0.0,0.0,0.0,0.0,0.0,0.0,0.0,0.0,1.3129,1.3288,1.3344,1.3297,1.3135,1.2849,1.2579,0.0,0.0,0.0,1.6459,1.7368,1.8778,2.083,2.1181,2.1507,2.1764,2.1924,2.2181,2.2517,2.2747,2.35,2.4708,2.5501,2.6405,2.7348,2.8092,2.8432,2.8492,2.8562,2.8834,2.9178,2.927,2.9493,2.9808,3.0026,3.0166,3.0297,3.0452,0.0,0.0,0.0,0.0,0.0,0.0,0.0,0.0,0.0,0.0,0.0,0.0,0.0,0.0,0.0,0.0,0.0,0.0,0.0,0.0,0.0,0.0,0.0,0.0,3.5962,3.6025,3.6126,3.6146,3.6146,3.6142,3.6844,3.7355,3.7355,3.8057,3.8545,3.8643,3.8643,3.8682,3.8799,3.952,0.0,0.0,0.0,4.1096,4.1096,4.1096,4.1096,4.1091,4.1096,4.1096,4.1096,4.1106,4.1106,4.11,4.1109,4.1097,4.1097,4.1097,4.1097,4.1097,4.1091,4.111,4.111,4.111,4.111,4.111,0.0,0.0,0.0,0.0,0.0,0.0,0.0,0.0,0.0,1.316,1.2965,1.2803,1.2685,1.2532,1.2342,1.2126,1.1884,1.1884,0.0,0.0,1.3833,1.617,1.6924,1.8168,2.0062,2.0382,2.0698,2.1007,2.137,2.1675,2.1957,2.2436,2.35,2.5028,2.5464,2.6473,2.7868,2.8174,2.8353,2.845,2.8484,2.8694,2.8998,2.9144,2.9394,2.9683,2.9874,3.006,3.0235,3.037,3.051,3.0642,3.0697,0.0,0.0,0.0,0.0,0.0,0.0,0.0,0.0,0.0,0.0,0.0,0.0,0.0,0.0,0.0,0.0,0.0,0.0,0.0,0.0,3.5974,3.5997,3.6254,3.6944,3.7042,3.7038,3.6965,3.7722,3.8252,3.8241,3.8397,3.8791,3.9501,3.954,3.9855,4.0558,4.0753,4.0851,4.0851,4.1007,4.1101,4.1109,4.1109,4.1105,4.1096,4.1105,0.0,4.109,4.1097,4.1101,4.1101,4.1097,4.1094,4.1105,4.1105,4.1096,4.1106,4.1097,4.111,4.111,4.111,4.111,4.111,0.0,0.0,0.0,0.0,0.0,0.0,0.0,0.0,0.0,0.0,1.2824,1.2425,1.1984,1.1656,1.1324,1.1014,1.096,0.0,0.0,1.2318,1.3634,1.5946,1.6572,1.7716,1.9528,1.9773,2.0104,2.0496,2.0828,2.1214,2.1601,2.2084,2.3266,2.5011,2.5275,2.6317,2.7864,2.8007,2.8146,2.83,2.838,2.8543,2.8815,2.903,2.9249,2.9492,2.9717,2.9937,3.0133,3.0278,3.0432,3.0567,3.0637,3.0691,3.0769,0.0,0.0,0.0,0.0,0.0,0.0,0.0,0.0,0.0,0.0,0.0,0.0,0.0,0.0,3.5958,3.5958,0.0,3.5994,3.5997,3.6375,3.6807,3.7243,3.8024,3.8391,3.7956,3.8635,3.9146,3.9149,3.9559,3.9972,4.0424,4.0447,4.0645,4.1074,4.1097,4.1099,4.1099,4.1099,4.1099,4.1094,4.1094,4.1091,4.1108,4.1094,4.1099,4.1099,4.1101,4.1103,4.1103,4.1101,4.1097,4.1108,4.1097,4.1109,4.11,4.11,4.1095,4.1095,4.1095,4.1095,4.1095,0.0,0.0,0.0,0.0,0.0,0.0,0.0,0.0,0.0,0.0,1.2787,1.207,1.138,1.072,1.0244,0.0,0.0,0.0,0.0,1.2103,1.3468,1.5755,1.6244,1.7269,1.8991,1.9221,1.9536,2.0,2.0345,2.0763,2.1293,2.1735,2.2895,2.4572,2.4971,2.5976,2.7432,2.7689,2.7961,2.8219,2.83,2.844,2.8694,2.8887,2.9075,2.9293,2.9551,2.977,2.9988,3.0202,3.0352,3.0491,3.0565,3.063,3.0691,3.0761,3.0901,0.0,0.0,0.0,0.0,0.0,0.0,0.0,0.0,0.0,3.6004,3.5997,3.5994,3.599,3.599,3.5997,3.6001,3.6001,3.6729,3.736,3.7538,3.8866,3.9647,3.9144,3.9669,4.0057,4.0057,4.0684,4.1094,4.1094,4.1099,4.1101,4.1101,4.1107,4.111,4.111,4.111,4.111,4.111,4.111,4.111,4.1091,4.1093,4.1093,4.1094,4.1094,4.1094,4.1074,4.1093,4.109,4.1105,4.1091,4.1101,4.1097,4.1105,4.11,4.11,4.1096,4.1091,4.1091,0.0,0.0,0.0,0.0,0.0,0.0,0.0,0.0,0.0,0.0,0.0,0.0,0.0,0.0,0.0,0.0,0.0,0.0,1.1228,1.1886,1.3277,1.562,1.5955,1.6807,1.8355,1.8577,1.8921,1.9317,1.9874,2.041,2.0893,2.1464,2.2319,2.3439,2.4457,2.5512,2.6509,2.742,2.7961,2.8201,2.8327,2.8484,2.8612,2.8694,2.8887,2.9156,2.9372,2.9608,2.9841,3.0045,3.0247,3.0414,3.0491,3.0557,3.061,3.0697,0.0,3.1899,3.1973,3.3142,3.4554,3.5523,3.58,3.5859,0.0,0.0,3.6001,3.6001,3.5996,3.601,3.601,3.5991,3.5991,3.5991,3.6735,3.7577,3.8344,3.9283,4.0127,4.0758,4.0908,4.0943,4.0949,4.1047,4.1105,4.1105,4.1108,4.1091,4.1091,4.1093,4.1094,4.1094,4.1094,4.1094,4.1094,4.1094,4.1094,4.1093,4.1091,4.1105,4.1097,4.1108,4.1078,4.1012,4.1077,4.1108,4.1093,4.109,4.1101,4.1097,4.1108,4.1104,4.1104,4.11,4.1091,4.1091,0.0,0.0,0.0,0.0,0.0,0.0,0.0,0.0,0.0,0.0,0.0,0.0,0.0,0.0,0.0,0.0,0.0,0.0,1.0853,1.1656,1.2951,1.4925,1.5512,1.6434,1.7675,1.8177,1.8693,1.9207,1.966,2.0185,2.0744,2.1199,2.1995,2.312,2.3757,2.4854,2.6276,2.6813,2.7487,2.8201,2.83,2.8432,2.8612,2.8637,2.8737,2.8887,2.9185,2.9434,0.0,0.0,3.0123,3.0292,3.0414,3.0491,3.0645,3.1227,3.1681,0.0,3.3237,3.4418,3.5435,0.0,3.5929,3.5938,3.5911,3.5915,3.5956,3.5995,3.5993,3.601,3.6001,3.5999,3.5999,0.0,3.7168,3.8188,3.8545,3.9741,4.0722,4.1054,4.1093,4.1093,4.1093,4.1093,4.1094,4.1094,4.1093,4.1091,4.1091,4.1105,4.1099,4.1099,4.1058,4.1035,4.1035,4.1035,4.1033,4.1049,4.1042,4.1031,4.1042,4.1047,4.1047,4.1057,4.1088,4.1105,4.1131,4.1658,4.1865,4.1919,4.2419,4.2611,4.2494,4.1472,4.1097,4.1097,0.0,0.0,0.0,0.0,0.0,0.0,0.0,0.0,0.0,0.0,0.0,0.0,0.0,0.0,0.0,0.0,0.0,0.0,0.0,1.1376,1.265,1.4346,1.5089,1.6002,1.7226,1.7782,1.8369,1.9109,1.9457,1.996,2.0644,2.1006,2.171,2.2682,2.3156,2.4206,2.5617,2.6243,2.7053,2.7924,2.821,2.8458,2.8637,2.8637,2.8687,2.8767,2.9034,2.927,0.0,0.0,2.9972,3.0138,3.0305,3.0394,3.0655,3.1602,3.2264,3.3029,3.451,0.0,0.0,3.5864,3.5894,3.5904,3.5892,3.59,3.5913,3.5951,3.5995,3.5996,3.5992,3.6007,3.6003,3.5996,3.7251,3.8332,3.8572,3.9844,4.0837,4.106,4.1088,4.1069,4.1064,4.1064,4.1064,4.1064,4.1074,4.1065,4.1065,4.107,4.1081,4.1081,4.1028,4.1003,4.1003,4.1003,4.1003,4.0998,4.0992,4.1,4.0994,4.1,4.1039,4.1091,4.1358,4.1455,4.1522,4.24,4.2763,4.2817,4.3453,4.3704,4.3548,4.2279,4.181,4.181,0.0,0.0,0.0,0.0,0.0,0.0,0.0,0.0,0.0,0.0,0.0,0.0,0.0,0.0,0.0,0.0,0.0,0.0,0.0,1.102,1.2409,1.4141,1.4624,1.555,1.7071,1.7267,1.7824,1.8822,1.9258,1.9818,2.041,2.0893,2.1388,2.1877,2.2862,2.3533,2.4091,2.5855,2.68,2.7207,2.8048,2.851,2.8694,2.8694,2.8737,2.881,2.8957,0.0,0.0,2.9589,2.9805,2.9937,3.0142,3.0299,0.0,3.1526,3.3061,3.4614,3.5527,3.5776,3.5811,3.5811,3.584,3.5911,3.5911,3.5894,3.5895,3.5908,3.5957,3.5993,3.5996,3.5993,3.6005,3.6003,3.6749,3.7633,3.8476,3.933,4.0157,4.1003,4.1047,4.0992,4.1,4.1003,4.0998,4.0998,4.1008,4.1003,4.1003,4.1006,4.0994,4.0994,4.0994,4.0994,4.0994,4.0994,4.1007,4.0993,4.0993,4.0991,4.0991,4.1007,4.1013,4.1061,4.1976,4.2351,4.2421,4.3298,4.3661,4.3654,4.3687,4.3704,4.3684,4.3645,4.3626,4.3626,0.0,0.0,0.0,0.0,0.0,0.0,0.0,0.0,0.0,0.0,0.0,0.0,0.0,0.0,0.0,0.0,0.0,0.0,0.0,1.0377,1.1553,1.2806,1.375,1.4686,1.556,1.644,1.7246,1.8007,1.8743,1.9464,2.0204,2.0644,2.1167,2.1754,2.2237,2.3028,2.4068,2.4769,2.5844,2.7136,2.7464,2.8023,2.8637,2.8737,2.881,2.8881,0.0,0.0,0.0,2.9531,2.9755,2.9926,3.0034,3.0147,3.0592,3.2182,3.3935,3.5433,3.5713,3.5799,3.5807,3.5807,3.5815,3.583,3.5826,3.584,3.584,3.589,3.5916,3.5957,3.5994,3.5996,3.5995,3.5993,3.6737,3.7597,3.8426,3.9266,4.0116,4.0941,4.1006,0.0,4.0996,4.0993,4.0994,4.0994,4.1,4.1006,4.1006,4.1011,4.0996,4.0996,4.096,4.0932,4.0932,4.0932,4.0932,4.0924,4.098,4.1007,4.1007,4.0993,4.1334,4.1956,4.2253,4.2733,4.3337,4.4191,4.4552,4.4624,4.5207,4.5421,4.5421,4.5421,4.5421,4.5265,0.0,0.0,0.0,0.0,0.0,0.0,0.0,0.0,0.0,0.0,0.0,0.0,0.0,0.0,0.0,0.0,0.0,0.0,0.0,0.0,1.0881,1.1852,1.2951,1.3822,1.4537,1.5428,1.6362,1.7362,1.8063,1.8973,1.9945,2.0392,2.0958,2.1617,2.1853,2.2581,2.3614,2.4103,2.5047,2.6269,2.6631,2.7331,2.8202,2.8324,2.8625,0.0,0.0,0.0,2.9332,2.9531,2.9701,2.9844,2.9926,3.0494,3.1392,3.2712,3.4362,3.5775,3.5791,3.5799,3.5799,3.5799,3.5799,3.5799,3.5795,3.5795,3.5811,3.5866,3.588,3.5912,3.5964,3.5973,3.5996,3.5996,3.6463,3.7237,3.8342,3.8956,3.9721,4.0855,4.098,4.0954,0.0,0.0,4.0957,4.0957,4.096,4.0952,4.0952,4.0963,4.0954,4.0954,4.0917,4.0907,4.0907,4.0907,4.0917,4.0945,4.0982,4.0996,4.1013,4.1354,4.1819,4.2431,4.3066,4.365,4.4228,4.5099,4.5464,4.5519,4.6085,4.63,4.63,4.63,4.63,4.6144,0.0,0.0,0.0,0.0,0.0,0.0,0.0,0.0,0.0,0.0,0.0,0.0,0.0,0.0,0.0,0.0,0.0,0.0,0.0,0.0,0.0,1.1328,1.2139,1.301,1.3984,1.4215,1.5134,1.6775,1.7265,1.8216,1.9534,2.0058,2.0698,2.1386,2.1735,2.2186,2.2763,2.3807,2.4403,2.4754,2.5589,2.6489,2.7332,2.7474,0.0,0.0,0.0,0.0,0.0,2.9588,2.9645,2.9719,2.9861,3.1238,3.2833,3.3048,3.4342,3.5718,3.5782,3.5799,3.5799,3.5799,3.5799,3.5799,3.5799,3.5799,3.5799,3.5803,3.5853,3.5899,3.5896,3.594,3.601,3.601,3.5986,3.6579,3.8249,3.8449,3.9057,0.0,0.0,0.0,0.0,0.0,0.0,4.0907,4.0907,4.0907,4.0907,4.0907,4.0907,4.0907,4.0907,4.0907,4.0907,4.0907,4.0926,4.101,4.1007,4.1032,4.11,4.1999,4.2451,4.2636,4.4273,4.5028,4.5138,4.5952,4.63,4.63,4.63,4.63,4.63,4.63,4.63,4.63,0.0,0.0,0.0,0.0,0.0,0.0,0.0,0.0,0.0,0.0,0.0,0.0,0.0,0.0,0.0,0.0,0.0,0.0,0.0,0.0,0.0,0.0,0.0,0.0,0.0,0.0,0.0,0.0,1.5964,1.7162,1.8561,1.9099,1.9997,2.1103,2.1446,2.1969,2.2561,2.3007,2.3683,2.4499,0.0,2.5517,2.6387,0.0,0.0,0.0,0.0,0.0,0.0,0.0,0.0,0.0,2.9926,3.1238,3.2771,3.2964,3.4311,3.5718,3.5782,3.5799,3.5799,3.5799,3.5799,3.5799,3.5799,3.5799,3.5799,3.5803,3.5846,3.5903,3.5895,3.5958,3.5988,3.5923,3.5935,0.0,3.8183,3.8408,0.0,4.0722,0.0,4.0907,4.0907,4.0907,0.0,4.0907,4.0907,4.0907,4.0907,4.0907,4.0907,4.0907,4.0907,4.0907,4.0907,4.0907,4.0926,4.101,4.0999,4.1337,4.1991,4.2273,4.3105,4.4352,4.4813,4.5372,4.5991,4.6202,4.63,4.63,4.63,4.63,4.63,4.63,4.63,4.63,0.0,0.0,0.0,0.0,0.0,0.0,0.0,0.0,0.0,0.0,0.0,0.0,0.0,0.0,0.0,0.0,0.0,0.0,0.0,0.0,0.0,0.0,0.0,0.0,0.0,0.0,0.0,0.0,0.0,0.0,1.7644,1.8171,1.9148,2.0448,2.0837,2.1479,2.2337,2.2668,0.0,0.0,0.0,0.0,0.0,0.0,0.0,0.0,0.0,0.0,0.0,0.0,0.0,2.9718,2.9907,3.0944,3.222,3.2825,0.0,3.5223,3.5676,3.5799,3.5799,3.5799,3.5799,3.5799,3.5799,3.5799,3.5799,3.5788,3.5838,3.5872,3.5897,3.5938,3.5929,3.5904,0.0,0.0,3.7642,3.8171,3.8894,0.0,4.0694,0.0,4.0907,4.0907,4.0907,4.0907,4.0907,4.0907,4.0907,4.0907,4.0907,4.0907,4.0907,4.0907,4.0907,4.0907,4.0935,4.0996,4.1396,4.1837,4.2366,4.3182,4.4061,4.5026,4.5392,4.5854,4.63,4.63,4.63,4.63,4.63,4.63,4.63,4.63,4.6303,4.6306,0.0,0.0,0.0,0.0,0.0,0.0,0.0,0.0,0.0,0.0,0.0,0.0,0.0,0.0,0.0,0.0,0.0,0.0,0.0,0.0,0.0,0.0,0.0,0.0,0.0,0.0,0.0,0.0,0.0,0.0,0.0,0.0,0.0,0.0,0.0,0.0,0.0,0.0,0.0,0.0,0.0,0.0,0.0,0.0,0.0,0.0,0.0,0.0,0.0,0.0,2.9701,2.9719,2.9857,3.0538,3.1516,3.2659,3.3661,3.4594,3.556,3.5799,3.5799,3.5799,3.5799,3.5799,3.5799,3.5799,3.5799,3.5799,3.5795,3.5811,3.5872,3.5892,3.5905,3.5898,0.0,3.6177,3.6997,3.7747,3.8594,3.9587,4.0325,4.0771,4.0888,4.0907,4.0907,4.0907,4.0907,4.0907,4.0907,4.0907,4.0907,4.0907,4.0907,4.0907,4.0907,4.0907,4.0924,4.1006,4.1889,4.2401,4.2632,4.4258,4.5052,4.5216,4.5971,4.63,4.63,4.63,4.63,4.63,4.63,4.63,4.63,4.6303,4.6306,4.6293,0.0,0.0,0.0,0.0,0.0,0.0,0.0,0.0,0.0,0.0,1.3899,1.3835,0.0,0.0,0.0,0.0,0.0,0.0,0.0,0.0,0.0,0.0,0.0,0.0,0.0,0.0,0.0,0.0,0.0,0.0,0.0,0.0,0.0,0.0,0.0,0.0,0.0,0.0,0.0,0.0,0.0,0.0,0.0,0.0,0.0,0.0,0.0,0.0,0.0,0.0,2.9701,2.9719,2.9857,3.0538,3.1516,3.2659,3.3661,3.4594,3.556,3.5799,3.5799,3.5799,3.5799,3.5799,3.5799,3.5799,0.0,0.0,3.5795,3.5811,3.5811,3.5852,3.5878,3.5818,3.5818,3.6122,3.6973,3.7225,3.7916,0.0,3.982,4.0169,4.0849,4.0907,0.0,4.0907,4.0907,4.0907,4.0907,4.0907,4.0907,4.0907,4.0907,4.0907,4.0907,4.0907,4.0924,4.1006,4.1875,4.2705,4.3514,4.4529,4.5399,4.6088,4.6222,0.0,4.63,4.63,4.63,4.63,4.63,4.63,4.63,4.6309,4.6293,4.6293,0.0,0.0,0.0,0.0,0.0,0.0,0.0,1.3703,1.3736,1.3433,1.3709,1.3808,1.3485,1.3336,0.0,0.0,0.0,0.0,0.0,0.0,0.0,0.0,0.0,0.0,0.0,0.0,0.0,0.0,0.0,0.0,0.0,0.0,0.0,0.0,0.0,0.0,0.0,0.0,0.0,0.0,0.0,0.0,0.0,0.0,0.0,0.0,0.0,0.0,0.0,0.0,2.9771,2.9842,2.9956,3.0331,3.103,3.2579,3.3372,3.4032,3.5424,3.5799,3.5799,3.5799,3.5799,3.5799,3.5799,0.0,0.0,0.0,3.5795,3.5803,3.5803,3.5852,3.5892,3.5872,3.5852,3.5988,3.6359,3.6806,3.7575,3.8868,3.9431,4.0014,4.083,4.0907,4.0907,4.0907,4.0907,4.0907,4.0907,4.0907,4.0907,4.0907,4.0907,4.0907,4.0907,4.0926,4.1202,4.1688,4.2554,4.3476,4.4414,4.5271,4.5905,4.63,4.63,4.63,4.63,4.63,4.63,4.63,4.63,4.63,4.63,4.629,4.6295,4.63,0.0,0.0,0.0,0.0,0.0,0.0,0.0,1.3226,1.3372,1.3081,1.3374,1.3517,1.3319,1.3744,1.3979,0.0,0.0,0.0,0.0,0.0,0.0,0.0,0.0,0.0,0.0,0.0,0.0,0.0,0.0,0.0,0.0,0.0,0.0,0.0,0.0,0.0,0.0,0.0,0.0,0.0,0.0,0.0,0.0,0.0,0.0,0.0,0.0,0.0,0.0,0.0,2.9756,2.9984,3.0128,3.018,3.0554,3.2315,3.2958,3.3441,3.5083,3.5663,3.5799,3.5799,3.5799,3.5799,3.5799,3.5799,0.0,3.5799,3.5795,3.5811,3.5811,3.5866,3.5905,0.0,3.5905,3.5879,3.5818,3.6394,3.7203,3.8274,3.9004,0.0,4.0791,4.0907,0.0,4.0907,4.0907,4.0907,4.0907,4.0907,4.0907,4.0907,4.0907,4.0907,4.0917,4.0963,4.1439,4.2331,4.3197,4.4108,4.5039,4.5894,4.6295,4.63,4.63,4.63,4.63,4.63,4.63,4.63,4.63,4.63,4.6303,4.6293,4.6297,4.6303,0.0,0.0,0.0,0.0,0.0,0.0,0.0,1.31,1.2929,1.2621,1.2972,1.3199,1.3051,1.3712,1.4156,0.0,0.0,0.0,0.0,0.0,0.0,0.0,0.0,0.0,0.0,0.0,0.0,0.0,0.0,0.0,0.0,0.0,0.0,0.0,0.0,0.0,0.0,0.0,0.0,0.0,0.0,0.0,0.0,0.0,0.0,0.0,0.0,0.0,0.0,0.0,0.0,3.0202,3.033,3.033,3.0503,3.1602,0.0,0.0,3.4345,3.5197,3.5799,3.5799,3.5799,3.5799,3.5799,0.0,3.5799,3.5799,3.5795,3.5811,3.5872,3.5905,3.5908,0.0,0.0,3.5897,3.5885,3.5916,3.6542,3.8197,0.0,0.0,4.0752,4.0907,4.0907,4.0907,4.0907,4.0907,4.0907,4.0907,4.0907,4.0907,4.0907,4.0936,4.0982,4.0999,4.1461,4.2403,4.3277,4.4156,4.5037,4.5909,4.6309,4.63,4.63,4.63,0.0,4.63,4.63,4.63,4.63,4.63,4.6303,4.6297,4.6301,4.6303,0.0,0.0,0.0,0.0,0.0,0.0,1.3527,1.3379,1.3192,1.2909,1.2948,1.2983,1.283,1.3486,1.3995,0.0,0.0,0.0,0.0,0.0,0.0,0.0,0.0,0.0,0.0,0.0,0.0,0.0,0.0,0.0,0.0,0.0,0.0,0.0,0.0,0.0,0.0,0.0,0.0,0.0,0.0,0.0,0.0,0.0,0.0,0.0,0.0,0.0,0.0,0.0,0.0,0.0,3.0263,3.0479,0.0,0.0,3.2482,3.3361,3.4256,3.5138,3.5799,3.5799,3.5799,3.5799,3.5799,0.0,3.5799,3.5799,3.583,3.5872,3.5911,3.5934,3.5962,0.0,0.0,0.0,3.5914,3.5872,3.6489,3.8194,3.8408,3.906,0.0,0.0,4.0907,4.0907,4.0945,4.0954,4.0954,4.0954,4.0954,4.0954,4.096,4.0976,4.1003,4.1046,4.1769,4.3189,4.3525,4.4433,4.5795,4.6141,4.6309,4.63,4.63,4.63,0.0,4.63,4.63,4.63,4.63,4.63,4.6303,4.6297,4.6301,4.6303,0.0,0.0,0.0,0.0,0.0,1.3886,1.3781,1.3655,1.3494,1.3244,1.3141,1.3019,1.2913,1.339,1.3762,1.3885,0.0,0.0,0.0,0.0,0.0,0.0,0.0,0.0,0.0,0.0,0.0,1.7466,1.7648,0.0,0.0,0.0,0.0,0.0,0.0,0.0,0.0,0.0,0.0,0.0,0.0,0.0,0.0,0.0,0.0,0.0,0.0,0.0,0.0,0.0,0.0,0.0,0.0,0.0,0.0,0.0,3.2147,3.3017,3.3887,3.4769,3.5488,3.5741,3.5799,3.5799,0.0,0.0,3.5799,3.5799,3.5845,3.5891,3.5894,3.5942,3.6005,0.0,0.0,3.5979,3.5903,3.5899,3.6436,3.786,0.0,3.8952,4.0402,4.0752,4.0907,4.0907,4.0954,4.101,4.101,4.0988,4.0996,4.1007,4.1006,4.1007,4.1033,4.1072,4.196,4.3698,4.371,4.4608,4.63,4.6293,4.6306,4.63,4.63,4.63,0.0,4.63,4.63,4.63,4.63,4.63,4.6303,4.6295,4.63,4.6303,0.0,0.0,0.0,0.0,0.0,0.0,0.0,1.3841,1.3731,1.3523,1.3491,1.3475,1.3394,1.3462,1.3479,1.3413,0.0,0.0,0.0,0.0,0.0,0.0,0.0,0.0,0.0,0.0,0.0,1.8087,1.836,1.8607,1.8788,1.8996,0.0,0.0,0.0,0.0,0.0,0.0,0.0,0.0,0.0,0.0,0.0,0.0,0.0,0.0,0.0,0.0,0.0,0.0,0.0,0.0,0.0,0.0,0.0,0.0,3.1282,3.2124,3.3052,3.3895,3.4711,3.5585,3.5799,3.5799,0.0,0.0,3.5799,3.5799,3.5845,3.5897,3.5904,3.5952,3.5991,3.5991,0.0,0.0,3.5912,3.5904,3.6203,0.0,3.7872,3.8758,3.9625,4.0422,4.0907,4.0907,4.0954,4.101,4.101,4.1,4.1006,4.1006,4.1,4.1022,4.1091,4.1108,4.1964,4.369,4.3708,4.4618,4.6293,4.6303,4.63,4.63,4.63,4.63,0.0,4.63,4.63,4.63,4.63,4.63,4.63,4.629,4.6297,4.6301,0.0,0.0,0.0,0.0,0.0,0.0,0.0,1.4012,1.397,1.3865,1.3803,1.3741,1.3667,1.3684,1.3686,1.3606,0.0,0.0,0.0,0.0,0.0,0.0,0.0,0.0,0.0,0.0,1.8717,1.877,1.8875,1.8993,1.9154,1.9301,1.9423,1.9518,0.0,0.0,0.0,0.0,0.0,0.0,0.0,0.0,0.0,0.0,0.0,0.0,0.0,0.0,0.0,0.0,0.0,0.0,0.0,0.0,0.0,0.0,0.0,0.0,3.306,3.3895,3.4711,3.5585,3.5799,3.5799,3.5795,3.5795,3.5803,3.5857,3.5885,3.5904,3.5908,3.5945,3.5996,3.5996,3.5996,0.0,0.0,0.0,0.0,3.706,3.8416,3.9643,4.0507,4.0818,4.0963,4.0971,4.0996,4.0991,4.1006,4.1042,4.1052,4.1006,4.1035,4.1074,4.1097,4.1091,4.1972,4.3708,4.3702,4.4614,4.6303,4.6303,4.63,4.63,4.63,4.63,4.63,4.63,4.63,4.63,4.63,4.63,4.63,4.629,4.6297,4.6301,0.0,0.0,0.0,0.0,0.0,0.0,0.0,1.4136,1.4123,1.4127,1.4082,1.404,1.3984,1.397,1.3923,1.3848,0.0,0.0,0.0,0.0,0.0,0.0,0.0,0.0,0.0,1.9059,1.9302,1.936,1.9374,1.943,1.9543,1.9645,1.9719,1.9797,1.9836,0.0,0.0,0.0,0.0,0.0,0.0,0.0,2.3611,0.0,0.0,0.0,0.0,0.0,0.0,0.0,0.0,0.0,0.0,0.0,0.0,0.0,3.1079,3.17,0.0,3.3429,3.4245,3.51,3.5566,0.0,0.0,3.5811,3.5845,3.5898,3.5903,3.5899,3.59,3.5951,3.5996,3.5994,3.5992,3.5993,0.0,0.0,0.0,3.7514,3.8572,3.9673,4.0885,4.101,4.0991,4.0996,4.0999,4.1007,4.1,4.1051,4.1085,4.1039,4.1084,4.1092,4.1093,4.1092,4.181,4.3212,4.354,4.4429,4.5812,4.6144,4.63,4.63,4.63,4.63,0.0,4.63,4.63,4.63,4.63,4.63,4.63,4.6306,4.6293,4.63,0.0,0.0,0.0,0.0,0.0,0.0,0.0,0.0,1.4242,1.4286,1.4317,1.4317,1.4317,1.4255,1.418,1.4136,0.0,0.0,0.0,0.0,0.0,0.0,0.0,0.0,0.0,1.9261,1.9771,1.9824,1.9839,1.9852,1.9924,1.9984,2.005,2.0116,2.0103,2.0109,2.0137,2.0258,2.0306,2.0359,2.112,2.203,0.0,0.0,0.0,0.0,0.0,0.0,0.0,0.0,0.0,0.0,0.0,0.0,0.0,0.0,0.0,0.0,0.0,3.2594,3.3487,3.4311,3.5154,0.0,0.0,0.0,0.0,3.5905,3.5903,3.5919,3.5919,3.5953,3.5995,3.5992,3.6007,3.6009,3.5996,3.6007,0.0,0.0,3.8397,3.908,4.0835,4.0999,4.1007,4.1003,4.1,4.1006,4.1003,4.1074,4.111,4.1092,4.1094,4.1093,4.1091,4.1103,4.1548,4.2407,4.3219,4.4094,4.5031,4.5831,4.6241,0.0,4.63,4.63,4.63,4.63,4.63,4.63,4.63,4.63,4.63,4.63,4.6306,4.6293,0.0,0.0,0.0,0.0,0.0,0.0,0.0,0.0,0.0,0.0,1.4429,1.4429,1.4381,1.4368,1.435,0.0,0.0,0.0,0.0,0.0,0.0,0.0,0.0,0.0,0.0,1.9628,2.0095,2.0101,2.0112,2.012,2.0126,2.0161,2.0185,2.0241,2.0255,2.027,2.0332,2.0363,2.0388,2.0388,2.0584,2.1597,0.0,0.0,0.0,0.0,2.5585,2.5585,0.0,0.0,0.0,0.0,0.0,0.0,0.0,0.0,3.069,3.0729,3.0943,0.0,3.3514,3.4365,3.5181,3.5818,0.0,0.0,0.0,0.0,0.0,3.5986,3.5988,3.5992,3.5996,3.5992,3.6003,3.6003,3.5995,3.5964,3.6567,3.8279,3.8435,3.9077,4.0838,4.0994,4.1011,4.1066,4.1074,4.1085,4.1077,4.109,4.1094,4.1091,4.1105,4.1101,4.1103,4.1097,4.154,4.2399,4.2611,4.3509,4.5012,4.5207,4.5675,4.63,4.63,4.63,4.63,4.63,4.63,4.63,4.63,4.63,4.63,4.63,4.6306,4.6293,0.0,0.0,0.0,0.0,0.0,0.0,0.0,0.0,0.0,0.0,0.0,0.0,0.0,0.0,0.0,0.0,0.0,0.0,0.0,0.0,0.0,0.0,0.0,0.0,1.8429,1.9658,2.0282,2.0286,2.0286,2.0291,2.0297,2.0316,2.0366,2.0381,2.0386,2.04,2.0441,2.0441,2.0456,2.0452,2.0458,0.0,0.0,0.0,0.0,0.0,2.5643,2.5658,0.0,2.5605,2.6179,2.7057,0.0,0.0,0.0,0.0,3.0697,3.069,3.069,3.1972,3.3417,3.3886,3.4924,3.5852,3.5891,0.0,0.0,0.0,0.0,3.5966,3.5985,3.601,3.5996,3.5992,3.5999,3.5999,3.5996,3.5968,3.6579,3.8297,3.8474,3.9123,4.0886,4.1057,4.1055,4.1094,4.1099,4.1107,4.1093,4.1093,4.1107,4.1097,4.1108,4.1108,4.1094,4.1091,4.1342,4.181,4.2201,4.3099,4.4426,4.4816,4.548,4.63,4.63,4.63,4.63,4.63,4.63,4.63,4.63,4.63,4.63,4.63,4.6303,4.6306,0.0,0.0,0.0,0.0,0.0,0.0,0.0,0.0,0.0,0.0,0.0,0.0,0.0,0.0,0.0,0.0,0.0,0.0,0.0,0.0,0.0,0.0,0.0,1.7646,1.7917,1.943,2.0285,2.0422,2.0411,2.0414,2.0414,2.0472,2.0492,2.0492,2.0492,2.0489,2.0509,2.0509,2.0503,2.049,2.0503,0.0,0.0,0.0,0.0,0.0,0.0,0.0,0.0,2.5636,2.6106,2.6889,2.7882,0.0,0.0,0.0,0.0,0.0,3.0697,3.196,3.3308,3.3303,3.4607,3.5892,3.5903,0.0,0.0,0.0,0.0,0.0,3.5997,3.6007,0.0,3.5993,3.5999,0.0,3.5996,3.5992,3.6623,3.8302,3.8517,3.9184,4.0929,4.1108,4.1101,4.1105,4.1092,4.1094,4.1108,4.1101,4.1108,4.109,4.1109,4.1094,4.1108,4.1108,4.1108,4.1108,4.1849,4.2669,4.3528,4.4406,4.5285,4.6105,0.0,0.0,4.63,4.63,4.63,4.63,4.63,4.63,4.63,4.63,4.63,4.63,0.0,0.0,0.0,0.0,0.0,0.0,0.0,0.0,0.0,0.0,0.0,0.0,0.0,0.0,0.0,0.0,0.0,0.0,0.0,0.0,0.0,0.0,1.6263,1.7148,1.7966,1.8909,1.9755,2.0484,2.0486,2.0487,2.0487,2.0507,2.0506,2.0504,2.0504,2.0502,2.0498,2.0498,2.0494,2.0501,2.0501,0.0,0.0,0.0,0.0,0.0,0.0,0.0,0.0,2.5687,2.5745,2.6087,2.7688,0.0,0.0,0.0,0.0,0.0,3.0691,3.1968,3.3304,3.3304,3.4614,3.5892,3.5903,0.0,0.0,0.0,0.0,0.0,0.0,3.6005,3.5996,0.0,0.0,3.6007,3.5995,3.5996,3.6636,3.838,3.8537,3.9186,4.0931,4.1093,4.1093,4.1107,4.1101,4.1094,4.1104,4.109,4.11,4.1096,4.1106,4.1096,4.1097,4.1104,4.1108,4.1108,4.1244,4.1752,4.263,4.3509,4.4387,4.5246,0.0,4.63,4.63,4.63,4.63,4.63,4.63,4.63,4.63,4.63,4.63,4.63,0.0,0.0,0.0,0.0,0.0,0.0,0.0,0.0,0.0,0.0,0.0,0.0,0.0,0.0,0.0,0.0,0.0,0.0,0.0,0.0,0.0,1.5351,1.6152,1.7031,1.7988,1.8789,1.9626,2.0498,2.0495,2.0492,2.051,2.0492,2.0497,2.0502,2.0502,2.0505,2.0508,2.0508,2.0507,2.0543,0.0,0.0,0.0,0.0,0.0,0.0,0.0,0.0,0.0,0.0,2.5676,2.5944,2.7659,0.0,0.0,0.0,0.0,0.0,3.0691,3.1975,3.3297,3.3303,3.4607,3.5905,3.5894,3.5894,0.0,0.0,0.0,0.0,0.0,0.0,3.5996,3.6005,0.0,3.5999,3.6009,3.5994,3.6641,3.8396,3.8573,3.9218,4.0937,4.1108,4.1101,4.1094,4.1101,4.1105,4.1096,4.1106,4.11,4.1089,4.1095,4.1106,4.1105,4.1094,4.1104,4.1108,4.1108,4.1557,4.2435,4.3294,4.4172,4.5051,0.0,4.63,4.63,4.63,4.63,4.63,4.63,4.63,4.63,4.63,4.63,4.63,0.0,0.0,0.0,0.0,0.0,0.0,0.0,0.0,0.0,0.0,0.0,0.0,0.0,0.0,0.0,0.0,0.0,0.0,0.0,0.0,1.5341,1.529,1.6103,1.7026,1.7955,1.8765,1.9609,2.049,2.0483,2.0472,2.0484,2.0472,2.0487,2.048,2.0483,2.0497,2.0495,2.0497,2.0503,2.0585,0.0,0.0,0.0,0.0,0.0,0.0,0.0,0.0,0.0,0.0,0.0,0.0,0.0,0.0,0.0,3.0281,3.0716,3.0724,3.0724,3.2007,3.3329,3.3321,0.0,3.5897,3.5899,3.5894,0.0,0.0,0.0,0.0,0.0,3.5984,0.0,3.6007,3.5997,3.6004,3.6001,3.6005,3.6576,3.8105,3.8475,3.9176,4.066,4.0999,4.1101,4.1101,4.11,4.11,4.1089,4.1109,4.1103,4.111,4.1103,4.1095,4.1111,4.11,4.1097,4.1108,4.1108,4.1439,4.2123,4.3001,4.3762,4.4445,4.5539,4.6007,4.6007,4.6222,4.63,4.63,4.63,4.63,4.63,4.63,4.63,4.63,0.0,0.0,0.0,0.0,0.0,0.0,0.0,0.0,0.0,0.0,0.0,0.0,0.0,0.0,0.0,0.0,0.0,0.0,0.0,0.0,1.5287,1.5218,1.6048,1.6943,1.7884,1.8699,1.9536,2.0405,2.041,2.0413,2.0416,2.0421,2.0418,2.041,2.04,2.043,2.0503,2.0503,2.0499,2.0575,2.1453,0.0,0.0,0.0,0.0,0.0,0.0,0.0,0.0,0.0,0.0,0.0,0.0,0.0,2.9586,3.0516,3.0784,3.0784,3.0784,3.2079,3.3395,3.3395,3.465,0.0,3.5908,3.5897,0.0,3.5911,0.0,0.0,0.0,3.5953,3.6007,3.6004,3.5994,3.5994,3.5991,3.5994,3.635,3.7279,3.8116,3.8973,3.9891,4.0668,4.1096,4.1096,4.1089,4.1091,4.1091,4.1091,4.1091,4.111,4.1091,4.1097,4.1095,4.1111,4.1109,4.1108,4.1108,4.1127,4.1225,4.2103,4.2533,4.2689,4.4367,4.509,4.5168,4.5968,4.63,4.63,4.63,4.63,4.63,4.63,4.63,4.63,0.0,0.0,0.0,0.0,0.0,0.0,0.0,0.0,0.0,0.0,0.0,0.0,0.0,0.0,0.0,0.0,0.0,0.0,0.0,0.0,1.5206,1.5135,1.649,1.7388,1.7703,1.8583,1.9464,2.0347,2.0301,2.0287,2.0287,2.028,2.0294,2.0328,2.034,2.038,2.0443,2.048,2.0814,2.1377,2.2263,2.313,0.0,0.0,0.0,0.0,0.0,0.0,0.0,0.0,2.6287,2.7147,0.0,2.8856,2.9663,3.0546,3.0789,3.0803,3.0803,3.206,3.3395,3.3395,3.4661,0.0,0.0,3.5897,3.5905,3.5905,3.5905,0.0,0.0,0.0,3.5996,3.5994,3.5962,3.5942,3.5994,3.6001,3.6323,3.7192,3.758,3.8322,3.9708,4.0118,4.053,4.1052,4.1109,4.111,4.111,4.111,4.111,4.111,4.111,4.1097,4.1095,4.11,4.1096,4.1101,4.1108,4.1108,4.1127,4.2006,4.2396,4.2474,4.3665,4.4192,4.425,4.5129,4.55,4.5558,4.6085,4.5968,4.55,4.55,4.55,4.55,0.0,0.0,0.0,0.0,0.0,0.0,0.0,0.0,0.0,0.0,0.0,0.0,0.0,0.0,0.0,0.0,0.0,0.0,0.0,1.5062,1.5188,1.5415,1.6823,1.7702,1.7933,1.8849,1.9627,2.0265,2.0178,2.0142,2.0142,2.0142,2.0178,2.0238,2.0253,2.0308,2.0396,2.073,2.1221,2.1861,2.303,2.3844,0.0,0.0,0.0,0.0,0.0,0.0,0.0,0.0,2.6687,0.0,0.0,0.0,0.0,0.0,3.0808,3.0799,3.0799,3.207,3.3395,0.0,0.0,0.0,3.5908,3.5897,3.5898,3.5898,3.5897,3.5914,3.5986,0.0,0.0,3.6009,3.5934,3.5929,3.5981,3.599,3.6215,3.6811,3.7126,3.775,3.8899,3.949,4.0038,4.0643,4.0947,4.111,4.111,4.111,4.111,4.111,4.111,4.1097,4.1109,4.1095,4.1106,4.1105,4.1097,4.1104,4.1127,4.1713,4.1986,4.2045,4.2903,4.3294,4.3352,4.4231,4.4582,4.4641,4.5246,4.5109,4.4582,4.4582,4.4582,4.4582,0.0,0.0,0.0,0.0,0.0,0.0,0.0,0.0,0.0,0.0,0.0,0.0,0.0,0.0,0.0,0.0,0.0,0.0,1.4801,1.4802,1.5188,1.6063,1.6923,1.7823,1.8676,1.9541,2.0049,2.0192,2.006,2.001,1.9998,2.001,2.0031,2.0098,2.0167,2.0246,2.0366,2.1293,2.1715,2.1872,2.3597,2.4341,2.4495,0.0,0.0,0.0,0.0,0.0,0.0,0.0,2.7571,2.8446,0.0,0.0,0.0,3.0796,3.0801,3.0802,3.0802,3.206,3.3395,0.0,0.0,0.0,3.5908,3.5905,3.5905,3.5905,3.5894,3.5919,3.5987,3.5993,0.0,3.6009,3.5943,3.5919,3.5981,3.6005,3.5994,3.5991,3.6755,3.7298,3.7292,3.8803,3.9784,3.9794,4.059,4.1091,4.1091,4.111,4.111,4.111,4.111,4.111,4.111,4.1109,4.1095,4.1095,4.11,4.1097,4.1108,4.1108,4.1108,4.1147,4.2006,4.2396,4.2454,4.3333,4.3684,4.3704,4.3704,4.3684,4.3684,4.3684,4.3684,4.3684,0.0,0.0,0.0,0.0,0.0,0.0,0.0,0.0,0.0,0.0,0.0,0.0,0.0,0.0,0.0,0.0,0.0,0.0,0.0,1.4631,1.5063,1.5982,1.6862,1.7751,1.861,1.9432,1.9892,1.9998,1.9955,1.9911,1.9858,1.9911,1.9936,1.9971,2.0069,2.051,2.1166,2.154,2.241,2.3566,2.408,2.4671,2.5264,0.0,0.0,0.0,0.0,0.0,0.0,0.0,0.0,0.0,0.0,0.0,0.0,3.0793,3.0796,3.079,3.0802,3.206,0.0,3.3395,0.0,0.0,0.0,3.5898,0.0,0.0,3.5894,3.5919,3.5987,3.5993,0.0,3.6009,3.5943,3.5914,3.5934,3.5962,3.6009,3.6001,3.6238,3.6629,3.723,3.7702,3.8234,3.8839,3.97,4.0195,4.0195,4.0779,4.111,4.111,4.111,4.111,4.111,4.1097,4.1103,4.1095,4.1106,4.11,4.1097,4.1104,4.1108,4.1108,4.1361,4.1498,4.1557,4.2435,4.3157,4.3704,4.3704,4.3333,4.2786,4.2786,4.2786,4.2786,0.0,0.0,0.0,0.0,0.0,0.0,0.0,0.0,0.0,0.0,0.0,0.0,0.0,0.0,0.0,0.0,0.0,0.0,0.0,0.0,1.5355,1.6311,1.7169,1.8049,1.8939,1.947,1.9726,1.9732,1.9788,1.9794,1.9757,1.9794,1.9823,1.9881,2.0354,2.09,2.1507,2.2311,2.3269,2.4284,2.4665,2.5121,2.56,0.0,0.0,0.0,0.0,0.0,0.0,0.0,0.0,0.0,0.0,0.0,0.0,3.0801,3.0793,3.0796,3.0804,3.2073,0.0,3.3405,3.4656,3.5885,3.5866,0.0,0.0,0.0,3.5908,3.5916,3.5987,3.5994,0.0,3.6009,3.5943,3.5894,3.5909,3.5958,3.6009,3.5997,3.6001,3.6212,3.6739,3.703,3.7425,3.7932,3.8798,3.9279,3.9279,4.0117,4.0584,4.0584,4.0916,4.111,4.111,4.111,4.1097,4.1103,4.1095,4.1106,4.1105,4.1097,4.1104,4.1108,4.1108,4.1108,4.1147,4.1674,4.2181,4.2669,4.2669,4.2357,4.1888,4.1888,4.1888,4.1888,0.0,0.0,0.0,0.0,0.0,0.0,0.0,0.0,0.0,0.0,0.0,0.0,0.0,0.0,0.0,0.0,0.0,0.0,0.0,0.0,1.5827,1.6844,1.7729,1.8605,1.9472,1.9555,1.9541,1.9504,1.9623,1.9694,1.9673,1.9688,1.9738,1.9837,2.0838,2.1375,2.1627,2.3356,2.4188,2.4379,2.5253,2.5595,2.5599,2.5599,0.0,0.0,0.0,0.0,0.0,0.0,0.0,0.0,3.0537,3.0807,3.0801,3.0796,3.0801,3.0796,3.0806,3.2072,0.0,3.339,3.4661,0.0,3.5818,3.5811,3.5838,3.5898,0.0,3.5927,3.5987,3.5995,3.5999,3.5994,3.5948,3.5894,3.5904,3.5958,3.5986,3.5997,3.5997,3.5994,3.5986,3.6655,3.7069,3.7077,3.7896,3.8383,3.8383,3.9201,3.9727,3.9805,4.0565,4.1013,4.111,4.111,4.111,4.111,4.1103,4.11,4.1091,4.1105,4.1101,4.1108,4.1108,4.1108,4.1108,4.1108,4.1108,4.1108,4.1108,4.1108,4.1108,4.1108,4.1108,4.1108,0.0,0.0,0.0,0.0,0.0,0.0,0.0,0.0,0.0,0.0,0.0,0.0,0.0,0.0,0.0,0.0,0.0,0.0,0.0,0.0,1.561,1.6627,1.8194,1.9161,1.9416,1.945,1.9464,1.9497,1.9583,1.9592,1.9546,1.9614,1.9662,1.9757,2.0708,2.1597,2.2431,2.361,2.4524,2.5231,2.5506,2.5595,2.5599,2.5599,2.5595,0.0,0.0,0.0,0.0,0.0,0.0,0.0,3.0526,3.0802,3.0807,3.0804,3.0798,3.08,3.0792,3.2062,0.0,0.0,3.4661,3.5898,3.5878,3.5872,3.5878,3.5898,3.5908,3.5916,3.5984,3.5996,3.5999,3.6001,3.5934,3.5889,3.5894,3.5904,3.5914,3.5919,3.5919,3.5914,3.5914,3.6075,3.6187,3.6181,3.6999,3.7487,3.7487,3.8305,3.9084,3.9786,3.998,4.0409,4.1091,4.111,4.111,4.111,4.1091,4.1103,4.11,4.1105,4.1101,4.1108,4.1108,4.1108,4.1108,4.1108,4.1108,4.1108,4.1108,4.1108,4.1108,4.1108,4.1108,4.1108,0.0,0.0,0.0,0.0,0.0,0.0,0.0,0.0,0.0,0.0,0.0,0.0,0.0,0.0,0.0,0.0,0.0,0.0,0.0,0.0,0.0,1.7486,1.8583,1.9186,1.9251,1.9314,1.9378,1.9408,1.9468,0.0,0.0,0.0,0.0,2.0324,0.0,2.2265,2.3239,2.4245,2.4973,2.5453,2.5536,2.5544,2.555,2.5601,2.584,2.6182,2.6212,0.0,0.0,0.0,0.0,0.0,0.0,0.0,3.0806,3.0804,3.0806,3.0798,3.08,0.0,0.0,3.4402,0.0,3.5894,3.5908,3.5894,3.5899,3.5904,3.5895,3.5916,3.5987,3.5996,3.6003,3.5997,3.5929,3.5908,3.5908,3.5924,3.5934,3.589,3.5934,3.5934,3.589,3.5899,3.5908,3.5908,3.6317,3.6571,3.6571,3.7409,3.809,3.8539,3.9357,4.0019,4.0467,4.0896,4.111,4.111,4.111,4.1103,4.1106,4.1105,4.1101,4.1108,4.1108,4.1108,4.1108,4.1108,4.1108,4.1108,4.1108,4.1108,4.1108,4.1108,4.1108,4.1108,0.0,0.0,0.0,0.0,0.0,0.0,0.0,0.0,0.0,0.0,0.0,0.0,0.0,0.0,0.0,0.0,0.0,0.0,0.0,0.0,0.0,0.0,1.8807,1.8984,1.907,1.9202,1.9266,1.9301,0.0,0.0,0.0,0.0,0.0,2.0952,0.0,2.293,2.3873,2.4887,2.5351,2.5429,2.5488,2.5517,2.5538,2.5751,2.6243,2.6832,2.7051,2.8106,2.9415,2.9466,0.0,0.0,0.0,0.0,3.0804,3.081,3.0807,3.0801,3.0795,0.0,3.3816,3.5493,3.5919,0.0,3.59,3.5907,3.5896,3.5901,3.5907,3.5923,3.5994,3.5995,3.6003,3.597,3.5943,3.5908,3.5908,3.5948,3.5958,3.5909,3.5958,3.5958,3.5909,3.5894,3.5908,3.5908,3.5908,3.5908,3.5908,3.6571,3.7038,3.7194,3.8597,3.9415,3.9571,4.0448,4.0877,4.0877,4.1033,4.1103,4.1091,4.11,4.1097,4.1108,4.1108,4.1108,4.1108,4.1108,4.1108,4.1108,4.1108,4.1108,4.1108,4.1108,4.1108,4.1108,0.0,0.0,0.0,0.0,0.0,0.0,0.0,0.0,0.0,0.0,0.0,0.0,0.0,0.0,0.0,0.0,0.0,0.0,1.4697,0.0,0.0,1.8296,1.8585,1.8843,1.9019,1.9084,1.9182,1.9301,0.0,0.0,0.0,0.0,0.0,2.103,0.0,0.0,2.3949,2.4898,2.536,2.5492,2.5498,2.5518,2.5674,2.645,2.6786,2.698,2.7699,2.8573,2.9396,2.9415,2.9978,0.0,0.0,0.0,3.0804,3.0798,3.0794,3.0804,0.0,0.0,3.3827,0.0,3.5932,3.5894,0.0,0.0,3.5898,0.0,3.5955,3.5991,3.5996,3.6007,3.5971,3.5912,3.5904,3.5908,3.5908,3.5904,3.5909,3.5894,3.5904,3.5904,3.5894,3.5889,3.5908,3.5908,3.5908,3.5908,3.5908,3.6006,3.6415,3.7175,3.7428,3.7915,3.8675,3.9532,3.998,3.998,4.074,4.1097,4.11,4.11,4.11,4.1108,4.1108,4.1108,4.1108,4.1108,4.1108,4.1108,4.1108,4.1108,4.1108,4.1108,4.1108,4.1108,0.0,0.0,0.0,0.0,0.0,0.0,0.0,0.0,0.0,0.0,0.0,0.0,0.0,0.0,0.0,1.3729,1.386,1.4379,1.5463,1.6647,1.7574,1.8153,1.8452,1.8698,1.8932,1.9051,1.915,0.0,0.0,0.0,0.0,2.0033,2.0798,0.0,0.0,0.0,0.0,2.5159,2.5415,2.5492,2.5503,2.5815,2.6301,2.6689,2.7446,2.8346,2.8709,2.9396,3.014,3.0134,3.0374,3.071,3.0697,0.0,0.0,0.0,3.0789,3.1001,3.1981,3.2819,3.3823,0.0,3.5975,3.5955,3.5953,3.5951,3.5968,3.5962,3.5987,3.6009,3.6005,3.5977,3.5923,3.5899,3.5904,3.5908,3.5908,3.5899,3.5904,3.5889,3.5899,3.5904,3.5889,3.5908,3.5908,3.5908,3.5908,3.5908,3.5908,3.5908,3.6084,3.6454,3.6941,3.7389,3.7779,3.8636,3.9318,3.9805,4.0682,4.1097,4.1095,4.1095,4.1096,4.1101,4.1101,4.1104,4.1108,4.1108,4.1108,4.1108,4.1108,4.1108,4.1108,4.1108,4.1108,4.1108,0.0,0.0,0.0,0.0,0.0,0.0,0.0,0.0,0.0,0.0,0.0,0.0,0.0,0.0,0.0,0.0,1.447,1.5042,1.624,1.7156,1.776,1.8044,1.8333,1.8585,1.8843,1.9,0.0,0.0,0.0,0.0,1.9815,2.0711,2.1676,0.0,2.3455,0.0,0.0,0.0,0.0,0.0,2.5727,2.6241,2.6863,2.7298,2.8288,2.9447,2.9667,3.016,3.0691,3.0697,3.0704,3.0698,3.0691,3.0728,0.0,0.0,0.0,0.0,0.0,0.0,3.3737,3.5252,3.5818,3.5971,0.0,0.0,3.5978,0.0,3.597,3.597,3.5978,3.5939,3.5908,3.5909,3.5894,3.5908,3.5908,3.5899,3.5904,3.5889,3.5899,3.5904,3.5889,3.5908,3.5908,3.5908,3.5908,3.5908,3.5908,3.5908,3.5908,3.5908,3.6532,3.6863,3.6863,3.774,3.8714,3.9805,4.0467,4.0883,4.1109,4.1109,4.1106,4.1105,4.109,4.1097,4.1104,4.1108,4.1108,4.1108,4.1108,4.1108,4.1108,4.1108,4.1108,4.1108,0.0,0.0,0.0,0.0,0.0,0.0,0.0,0.0,0.0,0.0,0.0,0.0,0.0,1.3924,1.4257,1.498,1.5181,1.5716,1.6788,1.728,1.7641,1.7905,1.8225,0.0,1.8715,1.8914,0.0,0.0,0.0,0.0,2.0662,2.1593,2.2572,2.3549,2.3712,2.4372,2.5292,0.0,0.0,0.0,0.0,0.0,0.0,0.0,0.0,0.0,0.0,3.0652,3.0691,3.0697,3.0704,3.0691,3.0698,3.071,3.0703,0.0,0.0,0.0,0.0,3.2678,0.0,3.4447,3.5281,0.0,0.0,0.0,3.5914,3.5914,3.5914,3.5914,3.5914,3.5904,3.5904,3.5894,3.5908,3.5908,3.5908,3.5899,3.5904,3.5889,3.5899,3.5904,3.5889,3.5908,3.5908,3.5908,3.5908,3.5908,3.5908,3.5908,3.5908,3.5908,3.5947,3.5967,3.5967,3.6824,3.8129,3.9805,3.9844,4.0292,4.1091,4.1091,4.1103,4.11,4.1105,4.1094,4.1094,4.1104,4.1108,4.1108,4.1108,4.1108,4.1108,4.1108,4.1108,4.1108,0.0,0.0,0.0,0.0,0.0,0.0,0.0,0.0,0.0,0.0,0.0,0.0,0.0,1.4668,1.5031,1.5856,1.6253,1.6652,1.7118,1.7415,1.7704,1.8009,1.8225,1.8467,1.8752,1.8967,0.0,0.0,0.0,1.9779,2.0717,2.1667,2.2642,2.3625,2.4369,2.4943,2.537,2.5451,0.0,0.0,0.0,0.0,0.0,0.0,0.0,0.0,0.0,0.0,0.0,3.0697,3.0697,0.0,0.0,0.0,0.0,0.0,0.0,0.0,0.0,0.0,0.0,3.4378,3.5254,3.5897,3.5894,3.5894,3.5908,3.5908,3.5908,3.5908,3.5908,3.5894,3.5894,3.5889,3.5908,3.5908,3.5908,3.5894,3.5894,3.5889,3.5894,3.5894,3.5908,3.5908,3.5908,3.5908,3.5908,3.5908,3.5908,3.5908,3.5908,3.5908,3.5908,3.5908,3.5908,3.6766,3.7506,3.8149,3.9279,3.9961,4.0273,4.0838,4.1091,4.1103,4.1111,4.1105,4.1094,4.1104,4.1108,4.1108,4.1108,4.1108,4.1108,4.1108,4.1108,4.1108,0.0,0.0,0.0,0.0,0.0,0.0,0.0,0.0,0.0,0.0,0.0,0.0,0.0,0.0,1.5921,1.6602,1.6977,1.7272,1.7455,1.7595,1.7839,1.8159,1.8287,1.8506,1.8788,1.8984,0.0,0.0,0.0,0.0,0.0,2.2122,2.3117,2.41,2.4893,2.5292,0.0,0.0,0.0,2.6849,0.0,0.0,2.9434,0.0,0.0,0.0,0.0,0.0,0.0,0.0,0.0,0.0,0.0,0.0,0.0,0.0,0.0,0.0,3.141,0.0,0.0,0.0,0.0,3.5905,3.5903,3.5908,3.5908,3.5908,3.5908,3.5908,3.5908,3.5908,3.5908,3.5908,3.5908,3.5908,3.5908,3.5908,3.5908,3.5908,3.5908,3.5908,3.5908,3.5908,3.5908,3.5908,3.5908,0.0,3.5908,3.5908,3.5908,3.5908,3.5908,3.5908,3.5908,3.6473,3.6902,3.7214,3.8363,3.924,3.9825,4.0409,4.0818,4.1091,4.1095,4.1096,4.1109,4.1104,4.1108,4.1108,4.1108,4.1108,4.1108,4.1108,4.1108,4.1108,0.0,0.0,0.0,0.0,0.0,0.0,0.0,0.0,0.0,0.0,0.0,0.0,0.0,0.0,0.0,1.7191,1.7337,1.7542,1.7789,1.7861,1.8035,1.829,1.8428,1.8603,1.8789,1.8967,0.0,0.0,0.0,0.0,0.0,0.0,2.403,2.5006,2.5217,2.5341,2.5495,0.0,2.6773,2.7024,0.0,2.9426,2.9531,0.0,0.0,0.0,3.0698,3.0691,0.0,3.0697,0.0,0.0,0.0,0.0,0.0,0.0,0.0,0.0,0.0,0.0,0.0,0.0,0.0,0.0,3.5903,0.0,3.5908,3.5908,3.5908,3.5908,3.5908,3.5908,3.5908,3.5908,3.5908,3.5908,3.5908,3.5908,3.5908,3.5908,3.5908,3.5908,3.5908,3.5908,3.5908,3.5908,3.5908,3.5908,3.5908,3.5908,3.5908,3.5908,3.5908,3.5908,3.5908,3.5908,3.6317,3.7155,3.7194,3.809,3.9727,3.9766,4.0253,4.1052,4.1089,4.11,4.1096,4.1101,4.1108,4.1108,4.1108,4.1108,4.1108,4.1108,4.1108,4.1108,0.0,0.0,0.0,0.0,0.0,0.0,0.0,0.0,0.0,0.0,0.0,0.0,0.0,0.0,1.7368,1.7549,1.7726,1.7878,1.8027,1.8078,1.8229,1.8452,1.8528,1.8697,1.8949,1.9647,0.0,0.0,0.0,0.0,0.0,0.0,0.0,0.0,2.5198,2.5678,2.637,2.6608,0.0,2.871,2.9214,2.9788,0.0,0.0,0.0,0.0,0.0,3.0704,3.0691,0.0,3.0711,3.0704,0.0,0.0,0.0,0.0,0.0,0.0,3.069,0.0,0.0,0.0,0.0,0.0,0.0,0.0,3.5891,3.5891,3.5903,3.5908,3.5908,3.5908,3.5908,3.5908,3.5908,3.5908,3.5908,3.5908,3.5908,3.5908,3.5908,3.5908,3.5908,3.5908,3.5908,0.0,3.5908,3.5908,3.5908,3.5908,3.5908,3.5908,3.5908,3.5908,3.5908,3.5908,3.602,3.6261,3.6904,3.7443,3.7962,3.9162,3.985,4.0117,4.076,4.1064,4.11,4.1109,4.1101,4.1108,4.1108,4.1108,4.1108,4.1108,4.1108,4.1108,0.0,0.0,0.0,0.0,0.0,0.0,0.0,0.0,0.0,0.0,0.0,0.0,0.0,0.0,0.0,1.7849,1.7975,1.8121,1.8266,1.8293,1.8432,1.8661,1.9037,1.9381,1.9608,2.0509,0.0,0.0,0.0,0.0,0.0,0.0,0.0,0.0,0.0,0.0,0.0,0.0,0.0,0.0,2.9776,0.0,0.0,3.0697,3.0704,0.0,0.0,0.0,3.0704,3.0704,3.0698,0.0,0.0,0.0,0.0,0.0,0.0,0.0,0.0,0.0,0.0,0.0,0.0,0.0,3.5878,3.5911,3.5898,0.0,3.5905,3.5891,3.5891,3.5891,3.5891,3.5897,3.5903,3.5903,3.5908,3.5908,3.5908,3.5908,3.5908,3.5908,3.5908,3.5908,3.5908,3.5908,3.5908,3.5908,3.5908,3.5908,3.5908,3.5908,3.5908,3.5908,3.5908,3.5903,3.5891,3.5918,3.6384,3.6798,3.7199,3.8171,3.9015,3.9738,4.024,4.0688,4.1058,4.1056,4.1076,4.1097,4.1097,4.1097,4.1097,4.1097,4.1097,4.1094,0.0,0.0,0.0,0.0,0.0,0.0,0.0,0.0,0.0,0.0,0.0,0.0,0.0,0.0,0.0,0.0,1.8454,1.8557,1.8778,1.8816,1.8948,1.92,1.9957,2.0479,2.0659,2.1535,0.0,0.0,0.0,0.0,0.0,0.0,0.0,0.0,0.0,0.0,0.0,0.0,0.0,2.9602,3.0319,3.0634,0.0,0.0,3.0698,3.0698,3.0697,3.0703,3.0703,3.0703,3.0691,0.0,0.0,0.0,0.0,0.0,3.0637,0.0,0.0,0.0,0.0,0.0,0.0,0.0,3.5857,3.5884,3.5872,0.0,3.5898,3.5898,3.5898,3.5905,3.5905,3.5905,3.5905,3.5891,3.5908,3.5908,3.5908,3.5908,3.5908,3.5908,3.5908,3.5908,3.5908,3.5908,3.5908,3.5908,3.5908,3.5908,3.5908,3.5908,3.5908,3.5908,3.5908,3.5891,3.5892,3.5891,3.5826,3.619,3.6947,3.7025,3.7935,3.9399,3.9591,4.014,4.0863,4.0933,4.1026,4.1091,4.1091,4.1091,4.1091,4.1091,4.1091,4.1111,0.0,0.0,0.0,0.0,0.0,0.0,0.0,0.0,0.0,0.0,0.0,0.0,0.0,0.0,0.0,0.0,2.0563,2.0624,2.0745,2.0841,2.0989,2.115,2.1367,2.1559,2.1699,2.2564,0.0,0.0,0.0,0.0,0.0,0.0,0.0,0.0,0.0,0.0,0.0,0.0,0.0,3.0377,3.0543,0.0,3.0711,3.0691,3.0704,3.0697,3.0703,3.0728,3.0778,3.0728,3.0697,3.0691,0.0,0.0,0.0,3.0637,0.0,0.0,0.0,0.0,0.0,0.0,0.0,0.0,3.5718,3.5747,3.5745,0.0,3.5823,3.5838,3.5898,3.5905,3.5905,3.5905,3.5898,3.5891,3.5908,3.5908,3.5908,3.5908,3.5908,3.5908,3.5908,3.5908,3.5908,3.5908,3.5908,3.5908,3.5908,3.5908,3.5908,3.5908,3.5908,3.5903,3.5891,3.5898,3.5864,3.5821,3.5757,3.5776,3.591,3.6618,3.7152,3.7599,3.9015,3.9713,3.9908,4.0568,4.0902,4.1019,4.1019,4.105,4.11,4.1045,4.105,4.1095,0.0,0.0,0.0,0.0,0.0,0.0,0.0,0.0,0.0,0.0,0.0,0.0,0.0,0.0,0.0,0.0,0.0,0.0,0.0,0.0,2.1728,2.1847,2.2303,2.2619,2.2734,2.3589,0.0,0.0,0.0,0.0,0.0,0.0,0.0,0.0,0.0,0.0,0.0,0.0,3.0189,3.0602,3.0602,0.0,3.0704,3.0704,3.0691,3.0703,3.0739,3.0764,3.0784,3.0728,3.0697,0.0,0.0,3.0668,3.0637,0.0,3.0549,3.0568,0.0,0.0,0.0,3.3496,0.0,0.0,0.0,3.5678,3.5718,3.5737,3.5745,3.5763,3.5799,3.5826,3.5862,3.585,3.5878,3.5898,3.5897,3.5903,3.5908,3.5908,3.5908,3.5908,3.5908,3.5908,3.5908,3.5908,3.5908,3.5908,3.5908,3.5908,3.5908,3.5897,3.5897,3.5885,3.5846,3.585,3.5801,3.5708,3.5635,3.5581,3.5558,3.5994,3.6493,3.7003,3.7876,3.8728,3.9522,3.9898,4.0358,4.082,4.0876,4.0921,4.0957,4.0957,4.0957,4.0949,1.8878,0.0,0.0,0.0,0.0,0.0,0.0,0.0,0.0,0.0,0.0,0.0,0.0,0.0,0.0,0.0,0.0,0.0,0.0,0.0,0.0,2.2544,2.3244,2.3656,2.3785,2.4478,2.4907,0.0,0.0,0.0,0.0,0.0,0.0,0.0,0.0,0.0,0.0,0.0,0.0,3.061,0.0,3.0661,3.0697,3.0691,3.0703,3.0728,3.0774,3.0794,3.0784,3.0728,3.071,3.0691,3.0697,3.0642,0.0,0.0,0.0,0.0,0.0,0.0,0.0,0.0,0.0,3.5565,0.0,0.0,0.0,3.5678,3.5679,3.5699,3.5708,0.0,0.0,3.5801,0.0,0.0,0.0,3.5891,0.0,3.5908,3.5908,3.5908,3.5908,3.5908,3.5903,3.5903,3.5897,3.5878,3.5878,3.5872,3.5885,3.5872,3.5866,3.5833,3.5776,3.5765,3.5698,3.5585,3.5509,3.5457,3.5457,3.5457,3.5881,3.6626,3.6793,3.7643,3.8903,3.9166,3.9692,4.0342,4.0653,4.0779,4.0789,4.0849,4.0849,4.0809,1.9145,1.8949,0.0,0.0,0.0,0.0,0.0,0.0,0.0,0.0,0.0,0.0,0.0,0.0,0.0,0.0,0.0,0.0,2.4444,0.0,0.0,0.0,2.4639,2.4755,2.4815,2.493,2.5038,0.0,0.0,0.0,0.0,0.0,0.0,0.0,2.8666,0.0,0.0,0.0,3.0621,0.0,3.0692,3.0695,0.0,3.0697,3.0728,3.0784,3.0794,3.0794,3.0784,0.0,3.071,3.0691,0.0,3.0642,3.0593,3.0539,0.0,0.0,0.0,0.0,0.0,0.0,3.4765,0.0,0.0,0.0,3.5608,3.5607,0.0,3.5698,0.0,0.0,0.0,0.0,0.0,0.0,3.5811,3.5852,3.5898,3.5908,3.5908,3.5908,3.5908,3.5897,3.5911,3.5911,3.584,3.5818,3.5806,3.5803,3.5807,3.5807,3.5752,3.5726,3.5698,3.5648,3.5589,3.5509,3.5369,3.5311,3.5311,3.5311,3.5417,3.5614,3.6386,3.6829,3.7113,3.8593,3.9215,3.9372,4.0331,4.07,4.0718,4.0718,4.075,4.08,1.9971,2.0155,0.0,0.0,0.0,0.0,0.0,0.0,0.0,0.0,0.0,0.0,0.0,0.0,0.0,0.0,0.0,2.5012,0.0,0.0,0.0,0.0,0.0,0.0,2.5106,2.513,2.5413,2.6017,2.6009,0.0,0.0,0.0,0.0,0.0,2.9033,0.0,3.0081,0.0,3.0629,0.0,0.0,0.0,0.0,3.0697,3.0734,3.0794,3.0799,3.0769,3.0734,0.0,3.0704,0.0,0.0,0.0,0.0,0.0,0.0,0.0,0.0,0.0,0.0,0.0,0.0,0.0,3.5474,0.0,3.554,0.0,0.0,0.0,0.0,0.0,0.0,0.0,3.5718,0.0,0.0,0.0,3.5811,3.5891,0.0,0.0,3.5908,3.5897,3.5905,3.5892,3.5838,3.5788,3.5732,3.5735,3.5727,3.5737,3.5669,3.562,3.5577,3.5526,3.5451,3.5388,3.5335,3.5289,3.5289,3.5289,3.532,3.535,3.5733,3.6155,3.6642,3.7335,3.8183,3.9082,3.958,4.0096,4.0593,4.064,4.0673,4.0673,2.1305,0.0,0.0,0.0,0.0,0.0,0.0,0.0,0.0,0.0,0.0,0.0,2.461,2.4809,0.0,0.0,2.5194,2.537,0.0,0.0,2.5707,0.0,0.0,0.0,0.0,0.0,2.6258,0.0,0.0,0.0,0.0,0.0,0.0,0.0,0.0,2.9931,3.0604,0.0,3.0637,3.07,3.0697,3.0717,3.073,3.0722,3.0764,3.0799,3.0799,3.0769,3.0728,3.0703,3.0704,0.0,3.0697,0.0,0.0,0.0,0.0,0.0,3.384,0.0,0.0,0.0,0.0,0.0,0.0,0.0,0.0,0.0,0.0,0.0,0.0,0.0,0.0,0.0,0.0,3.5637,0.0,3.564,0.0,0.0,0.0,0.0,0.0,3.5866,3.5845,3.585,3.5773,3.5689,3.565,3.562,3.5618,3.5615,3.5562,3.5526,3.5477,3.5411,3.536,3.5285,3.5273,3.5277,3.5277,3.5277,3.5273,3.527,3.5258,3.5602,3.6157,3.6394,3.7234,3.8362,3.8856,3.9495,4.015,4.0466,4.0558,4.0573,2.331,2.2481,0.0,0.0,0.0,0.0,0.0,0.0,0.0,0.0,0.0,0.0,0.0,0.0,0.0,0.0,0.0,2.5851,2.6694,0.0,2.711,0.0,0.0,2.7769,0.0,0.0,0.0,0.0,0.0,0.0,0.0,0.0,0.0,0.0,0.0,3.0511,3.0604,3.0602,3.0637,3.07,3.0697,3.0736,3.0803,0.0,3.0794,3.0799,3.0799,0.0,0.0,3.0728,3.071,0.0,0.0,0.0,0.0,0.0,0.0,0.0,0.0,0.0,0.0,3.5496,0.0,0.0,0.0,0.0,3.5474,0.0,0.0,0.0,0.0,0.0,0.0,0.0,0.0,0.0,0.0,0.0,0.0,0.0,0.0,0.0,0.0,3.5736,3.5708,3.5708,3.5577,3.5507,3.5507,3.5445,3.5405,3.5405,3.5402,3.5412,3.5393,3.5339,3.5293,3.5312,3.5226,3.5209,3.5209,3.5209,3.5209,3.519,3.5209,3.5229,3.5305,3.6165,3.6547,3.6757,3.8381,3.9045,3.9262,4.0159,4.0495,4.0504,0.0,0.0,0.0,0.0,0.0,0.0,0.0,2.447,0.0,0.0,2.4936,0.0,0.0,2.5245,2.5354,0.0,0.0,2.6551,2.6859,2.7412,0.0,0.0,0.0,2.8006,0.0,0.0,0.0,0.0,0.0,0.0,0.0,0.0,0.0,0.0,0.0,3.055,0.0,0.0,0.0,0.0,0.0,3.0748,3.0808,0.0,3.0799,3.0799,3.0799,3.0794,0.0,3.0778,3.0748,3.0808,3.1391,3.1754,3.2195,3.334,3.4065,0.0,0.0,0.0,3.5574,3.5562,0.0,0.0,0.0,0.0,0.0,0.0,0.0,0.0,0.0,0.0,0.0,0.0,0.0,0.0,0.0,0.0,0.0,0.0,0.0,0.0,0.0,0.0,3.5629,3.5626,3.5558,3.5483,3.543,3.5355,3.534,3.534,3.5335,3.5324,3.5324,3.5277,3.5226,3.5226,3.5209,3.5209,3.5209,3.5209,3.5209,3.5209,3.5209,3.5209,3.5229,3.5515,3.5993,3.6566,3.712,3.7708,3.8427,3.9879,4.0463,4.0489,2.4875,0.0,0.0,0.0,0.0,0.0,0.0,0.0,0.0,0.0,2.5171,0.0,2.5751,0.0,2.6094,0.0,2.7036,2.7483,2.7799,2.8355,0.0,2.9013,2.9026,0.0,0.0,0.0,0.0,0.0,0.0,2.9894,0.0,0.0,0.0,0.0,0.0,3.055,3.0606,3.0595,3.0621,0.0,0.0,3.0734,0.0,0.0,3.0799,3.0799,0.0,3.0794,3.0789,3.0808,3.0973,3.1293,3.1831,3.2435,3.3155,3.427,3.4793,3.51,3.5627,3.5708,0.0,3.5669,3.5657,0.0,3.5477,0.0,0.0,0.0,0.0,0.0,0.0,0.0,0.0,0.0,0.0,0.0,0.0,3.5226,0.0,0.0,0.0,0.0,0.0,3.5495,3.5502,3.5496,3.5443,3.5407,3.5369,3.5304,3.527,3.527,3.5258,3.5261,3.5261,3.5226,3.5209,3.5209,3.5209,3.5209,3.5209,3.5209,3.5209,3.5209,3.5209,3.5209,3.5209,3.5209,3.5534,3.6069,3.6394,3.685,3.757,3.9306,4.0178,4.0489,0.0,0.0,0.0,0.0,2.4798,0.0,0.0,0.0,2.5236,0.0,2.5483,2.5859,2.6679,2.6883,2.7293,2.8126,2.8236,2.8622,2.9457,2.9546,0.0,0.0,3.071,3.0678,3.0618,0.0,0.0,0.0,0.0,0.0,0.0,0.0,0.0,0.0,3.051,0.0,3.0598,3.0606,3.0604,3.061,3.0672,3.0728,3.0803,3.0794,3.0799,3.0799,3.0799,3.0799,3.0799,3.0808,3.1373,3.2108,3.2071,3.3239,3.462,3.4659,3.5243,3.5905,3.5905,3.5845,3.5803,3.5799,3.5747,0.0,0.0,0.0,3.5446,0.0,0.0,0.0,0.0,0.0,0.0,0.0,0.0,0.0,0.0,0.0,0.0,0.0,0.0,0.0,0.0,3.53,3.53,3.53,3.5289,3.5277,0.0,3.5226,3.5209,3.5209,3.5209,3.5209,3.5209,3.5209,3.5209,3.5209,3.5209,3.5209,3.5209,3.5209,3.5209,3.5209,3.5209,3.5209,3.5209,3.5209,3.5209,3.5286,3.6126,3.6504,3.6802,3.8482,3.9676,4.045,2.508,2.5626,2.609,0.0,2.548,2.5258,0.0,0.0,0.0,0.0,2.7365,2.7518,2.7793,2.7858,2.7983,2.8259,2.887,0.0,0.0,0.0,0.0,3.0769,3.0774,3.074,3.0678,3.0671,3.0632,3.0576,0.0,0.0,3.0406,0.0,0.0,0.0,0.0,0.0,3.0598,3.0607,3.0595,3.061,3.0678,3.071,3.0728,0.0,3.0794,3.0799,3.0799,3.0799,3.0799,3.0799,3.1383,3.2201,3.2844,3.3755,3.4728,3.5371,3.5716,3.5898,3.5898,3.5885,3.5864,3.5803,3.5782,3.5737,0.0,0.0,0.0,0.0,0.0,0.0,0.0,0.0,0.0,0.0,0.0,0.0,0.0,0.0,0.0,3.4945,0.0,0.0,3.5138,3.5155,3.5155,3.5155,3.5138,3.5176,3.5215,0.0,3.5196,3.5209,3.5209,3.5209,3.5209,3.5209,3.5209,3.5209,3.5209,3.5209,3.5209,3.5209,3.5209,3.5209,3.5209,3.5209,3.5209,3.5209,3.5209,3.5229,3.5458,3.5965,3.6811,3.8546,3.9362,3.9681,2.6327,0.0,0.0,2.7142,0.0,0.0,2.7075,2.7215,0.0,2.7964,2.8106,0.0,2.8714,2.879,2.8964,2.9366,2.9838,0.0,3.0069,0.0,0.0,3.0798,3.0801,3.0778,3.0743,3.075,0.0,3.0649,0.0,0.0,3.0449,0.0,0.0,0.0,0.0,3.0559,3.0598,3.0597,3.0632,3.0645,3.0678,3.0704,0.0,3.0778,3.0794,3.0799,3.0799,3.0799,3.0857,3.1232,3.1953,3.2815,3.3648,3.4506,3.5265,3.5752,3.5903,3.5897,3.5897,3.5905,3.5892,3.5859,3.5815,3.5756,3.562,3.5562,3.5515,0.0,3.5335,3.527,0.0,0.0,0.0,0.0,0.0,0.0,0.0,0.0,0.0,0.0,3.4908,0.0,3.5,3.5054,3.5054,3.5054,3.5072,3.5108,3.5147,0.0,3.5198,3.5196,3.5193,3.5209,3.5209,3.5209,3.5209,3.5209,3.5209,3.5209,3.5209,3.5209,3.5209,3.5209,3.5209,3.5209,3.5209,3.5209,3.5209,3.5209,3.5209,3.5545,3.6197,3.7552,3.8577,3.9354,2.7904,0.0,0.0,0.0,0.0,0.0,0.0,2.8325,0.0,2.8435,0.0,2.8825,2.9593,2.9728,3.003,3.0735,0.0,3.0799,3.0794,3.0794,3.0794,3.0816,3.0816,3.0816,3.0816,3.0801,3.0769,0.0,0.0,0.0,0.0,0.0,0.0,0.0,0.0,0.0,0.0,3.0604,3.0637,3.07,3.0697,3.0704,3.0703,3.0759,3.0789,3.0799,3.0799,3.0799,3.0935,3.1817,3.2679,3.3531,3.435,3.5207,3.5908,3.5908,3.5908,3.5908,3.5908,3.5903,3.5911,3.5911,3.5872,3.5791,3.5727,3.5648,3.5577,3.5501,3.5412,3.5285,0.0,0.0,0.0,0.0,0.0,0.0,0.0,0.0,0.0,0.0,0.0,0.0,3.4908,3.4945,3.5001,3.5001,3.5038,3.5075,3.5092,0.0,3.52,3.52,3.5196,3.5209,3.5209,3.5209,3.5209,3.5209,3.5209,3.5209,3.5209,3.5209,3.5209,3.5209,3.5209,3.5209,3.5209,3.5209,3.5209,3.5209,3.5209,3.5239,3.5396,3.6159,3.749,3.8988,2.7987,0.0,0.0,0.0,0.0,3.027,3.0306,2.9716,2.9516,3.0233,3.0336,3.0392,3.056,3.0573,3.0657,3.0799,3.0799,0.0,0.0,0.0,0.0,3.0886,3.087,3.0873,3.0873,3.0831,3.0782,0.0,0.0,0.0,0.0,0.0,0.0,0.0,0.0,0.0,3.0595,3.0593,0.0,3.07,3.071,3.0698,3.0703,3.0703,3.0739,3.0799,3.0799,3.0799,3.0935,3.1817,3.2679,3.3531,3.435,3.5207,3.5908,3.5908,3.5908,3.5908,3.5908,3.5908,3.5903,3.5903,3.5898,3.5857,3.5735,3.5659,3.5581,3.5515,3.5446,3.5315,3.5138,0.0,0.0,0.0,0.0,0.0,0.0,0.0,0.0,0.0,0.0,3.4908,0.0,0.0,3.4927,3.4927,3.4927,3.4945,0.0,0.0,3.5147,0.0,3.5196,0.0,0.0,0.0,3.5209,3.5209,3.5209,3.5209,3.5209,3.5209,3.5209,3.5209,3.5209,3.5209,3.5209,3.5209,3.5209,3.5209,3.5209,3.5242,3.5327,3.5473,3.6228,3.7348,0.0,0.0,0.0,0.0,0.0,0.0,0.0,3.0438,3.0321,3.0754,3.081,3.0801,3.0804,3.0794,3.0799,3.0801,3.0801,3.0801,3.0801,3.0823,3.0866,3.0891,3.0895,3.0897,3.0897,3.0877,3.0831,3.0791,0.0,0.0,0.0,0.0,0.0,0.0,0.0,3.0595,0.0,0.0,0.0,3.0695,3.071,3.0691,3.0703,3.0703,3.0739,3.0799,3.0799,3.0799,3.0994,3.2323,3.3049,3.3609,3.4876,3.5558,3.5908,3.5908,3.5908,3.5908,3.5908,3.5908,3.5908,3.5908,3.5859,3.5818,3.5715,3.563,3.5538,3.5501,3.5417,3.5308,3.5143,3.5019,0.0,0.0,0.0,0.0,0.0,0.0,0.0,0.0,0.0,0.0,0.0,0.0,0.0,0.0,0.0,0.0,0.0,0.0,3.5129,0.0,0.0,0.0,3.5209,0.0,3.5209,3.5209,3.5209,3.5209,3.5209,3.5209,3.5209,3.5209,3.5209,3.5209,3.5209,3.5209,3.5209,3.5209,3.5209,3.5226,3.5293,3.5289,3.5603,3.6257,0.0,3.069,0.0,0.0,3.0769,0.0,3.0806,3.0798,3.0801,3.0798,3.0807,3.0794,3.0794,3.0796,3.0801,3.0801,3.0801,3.0801,3.0823,3.0866,3.0891,3.0895,3.0897,3.0898,3.0898,3.0898,3.0875,0.0,0.0,0.0,0.0,0.0,0.0,0.0,0.0,0.0,0.0,0.0,3.0695,3.069,3.069,3.0691,3.0703,3.0703,3.0739,3.0799,3.0799,3.0799,3.1072,3.281,3.3395,3.3687,3.5363,3.5908,3.5908,3.5908,3.5908,3.5908,3.5908,3.5908,3.5908,3.5908,3.5853,3.5784,3.5726,3.5599,3.5489,3.5455,3.5373,3.5248,3.5147,3.5075,0.0,0.0,0.0,0.0,0.0,0.0,0.0,0.0,0.0,0.0,3.4927,0.0,0.0,0.0,0.0,0.0,3.5001,0.0,0.0,0.0,0.0,3.5209,3.5209,0.0,3.5209,3.5209,3.5209,3.5209,3.5209,3.5209,3.5209,3.5209,3.5209,3.5209,3.5209,3.5209,3.5209,3.5209,3.5209,3.5226,3.5277,3.5293,3.5324,3.5595,0.0,0.0,0.0,0.0,0.0,0.0,3.0807,3.0796,3.0794,3.0801,3.0807,3.0794,3.0794,3.0796,3.0801,3.0801,3.0801,3.0823,3.0888,3.0907,3.0891,3.0897,3.0897,3.0898,3.0898,3.0898,3.0898,0.0,0.0,3.0774,0.0,0.0,0.0,0.0,0.0,0.0,0.0,3.07,3.0695,3.069,3.069,3.0691,3.0703,3.0703,3.0739,3.0799,3.0799,3.0799,3.1072,3.281,3.3395,3.3687,3.5363,3.5908,3.5908,3.5908,3.5908,3.5908,3.5908,3.5908,3.5908,3.5908,3.5853,3.5776,3.5727,3.5604,3.5457,3.5345,3.5261,3.5217,3.52,3.5129,3.5092,0.0,0.0,0.0,0.0,0.0,3.5092,3.5092,0.0,0.0,3.5001,3.5001,3.4983,0.0,3.4908,0.0,0.0,0.0,0.0,3.52,3.5196,3.5209,3.5209,3.5209,3.5209,3.5209,3.5209,3.5209,3.5209,3.5209,3.5209,3.5209,3.5209,3.5209,3.5209,3.5209,3.5209,3.5209,3.5209,3.5209,3.5209,3.5277,3.5293,3.5442,0.0,0.0,0.0,0.0,0.0,0.0,0.0,3.0829,3.0853,3.0814,3.0831,3.0868,3.0868,3.0866,3.0864,3.0864,3.0864,3.0866,3.0907,3.0892,3.0895,3.0897,3.0898,3.0898,3.0898,3.0898,3.0898,0.0,0.0,0.0,0.0,0.0,0.0,0.0,0.0,3.0629,3.07,3.0695,3.0703,3.069,3.069,3.0691,3.0703,3.0703,3.0739,3.0799,3.0799,3.0799,3.1072,3.281,3.3395,3.3687,3.5363,3.5908,3.5908,3.5908,3.5908,3.5908,3.5908,3.5908,3.5908,3.5908,3.5846,3.5779,3.5718,3.5574,3.5411,3.5311,3.5258,3.5196,3.52,3.5183,3.5147,3.5111,0.0,0.0,0.0,0.0,0.0,3.5164,0.0,3.5129,0.0,3.502,3.5001,3.4964,0.0,0.0,0.0,0.0,0.0,3.5196,0.0,3.5209,3.5209,3.5209,3.5209,3.5209,3.5209,3.5209,3.5209,3.5209,3.5209,3.5209,3.5209,3.5209,3.5209,3.5209,3.5209,3.5209,3.5209,3.5209,3.5209,3.5226,3.5261,3.5426,3.0789,0.0,3.0802,0.0,3.0796,3.0806,3.0795,3.0839,3.0859,3.08,3.084,3.0878,3.0896,3.0892,3.0889,3.0889,3.0889,3.0891,3.0891,3.0896,3.0897,3.0898,3.0898,0.0,3.0898,3.0898,3.0898,3.0898,3.0834,0.0,0.0,0.0,0.0,0.0,3.0593,3.0637,3.07,3.0703,3.069,3.069,3.069,3.0691,3.0703,3.0703,3.0739,3.0799,3.0799,3.0799,3.1072,3.281,3.3395,3.3687,3.5363,3.5908,3.5908,3.5908,3.5908,3.5908,3.5908,3.5908,3.5908,3.5908,3.5859,3.5782,3.5718,3.5543,3.5383,3.53,3.5223,3.5193,3.5198,3.5198,3.5179,3.5145,0.0,0.0,0.0,3.5212,0.0,0.0,3.5198,3.5181,3.5129,3.5092,3.5057,3.502,0.0,0.0,0.0,0.0,0.0,0.0,0.0,0.0,3.5209,3.5209,3.5209,3.5209,3.5209,3.5209,3.5209,3.5209,3.5209,3.5209,3.5209,3.5209,3.5209,3.5209,3.5209,3.5209,3.5209,3.5209,3.5209,3.5209,3.5226,3.5372,3.0798,3.0798,3.0804,3.0799,3.0806,3.0795,3.0801,3.08,3.0797,3.0797,3.0797,3.0839,3.0897,3.0896,3.0895,3.0895,3.0895,3.0895,3.0897,3.0897,3.0898,0.0,0.0,3.0898,3.0898,3.0898,3.0898,3.0898,0.0,0.0,3.0798,0.0,3.0593,3.0604,3.0593,3.0637,3.07,3.0703,3.069,3.069,3.069,3.0691,3.0703,3.0703,3.0739,3.0799,3.0799,3.0799,3.1072,3.281,3.3395,3.3687,3.5363,3.5908,3.5908,3.5908,3.5908,3.5908,3.5908,3.5908,3.5908,3.5908,3.5859,3.5782,3.5718,3.5543,3.535,3.5223,3.5209,3.5209,3.5209,3.5209,3.5209,3.5209,0.0,0.0,0.0,0.0,0.0,3.5209,3.5209,3.5212,3.52,3.52,0.0,0.0,0.0,0.0,0.0,0.0,0.0,3.5209,3.5209,0.0,3.5209,3.5209,3.5209,3.5209,3.5209,3.5209,3.5209,3.5209,3.5209,3.5209,3.5209,3.5209,3.5209,3.5209,3.5209,3.5209,3.5209,3.5209,3.5209,3.5209,3.5209,3.5209,3.0807,3.0807,3.0794,3.079,3.0797,3.0801,3.0797,3.0792,3.0806,3.0806,3.0832,3.0876,3.0898,3.0898,3.0897,0.0,3.0897,3.0897,0.0,3.0898,3.0898,3.0898,3.0898,3.0898,3.0898,3.0898,3.0898,3.0898,0.0,0.0,0.0,3.0691,3.0661,3.0665,3.0629,3.0637,3.07,3.0653,3.0653,3.0688,3.0688,3.0704,3.0703,3.0703,3.0739,3.0799,3.0799,3.0799,3.1072,3.281,3.3395,3.3687,3.5363,3.5908,3.5908,3.5908,3.5908,3.5908,3.5908,3.5908,3.5908,3.5908,3.5859,3.5782,3.5718,3.5507,3.5296,3.5207,3.5209,3.5209,3.5209,3.5209,3.5209,3.5209,3.5209,0.0,3.5209,0.0,3.5209,3.5209,3.5209,3.5193,3.5212,3.5198,0.0,0.0,0.0,0.0,0.0,0.0,0.0,0.0,3.5209,0.0,3.5209,3.5209,3.5209,3.5209,3.5209,3.5209,3.5209,3.5209,3.5209,3.5209,3.5209,3.5209,3.5209,3.5209,3.5209,3.5209,3.5209,3.5209,3.5209,3.5209,3.5209,3.5209,3.0838,3.0819,3.0804,3.0837,3.082,3.08,3.081,3.0804,3.0801,3.0801,3.0831,3.0875,3.0897,3.0898,0.0,3.0898,3.0898,3.0898,3.0898,3.0898,3.0898,3.0898,3.0898,3.0898,3.0898,3.0898,0.0,3.0898,3.0874,3.081,3.0706,3.0698,3.0695,3.0665,3.0637,3.0665,3.07,3.0653,3.0661,3.0695,3.0695,3.0704,3.0703,3.0703,3.0739,3.0799,3.0799,3.0799,3.1072,3.281,3.3395,3.3687,3.5363,3.5908,3.5908,3.5908,3.5908,3.5908,3.5908,3.5908,3.5908,3.5908,3.5859,3.5754,3.5629,3.5451,3.5285,3.5207,3.5209,3.5209,3.5209,3.5209,3.5209,3.5209,3.5209,3.5209,3.5209,0.0,3.5209,0.0,0.0,0.0,0.0,3.5196,3.5198,0.0,0.0,0.0,0.0,0.0,0.0,3.5209,3.5209,3.5209,3.5209,3.5209,3.5209,3.5209,3.5209,3.5209,3.5209,3.5209,3.5209,3.5209,3.5209,3.5209,3.5209,3.5209,3.5209,3.5209,3.5209,3.5209,3.5209,3.5209,3.5209,3.5209,3.0888,3.0845,3.0827,0.0,3.084,0.0,3.0804,3.0801,3.0801,3.0801,3.0792,3.0837,3.0897,3.0898,3.0898,3.0898,0.0,0.0,0.0,3.0898,3.0898,3.0898,3.0898,3.0898,3.0898,3.0898,3.0898,3.0898,3.0827,3.0774,3.0706,3.0704,3.0676,3.061,3.0673,3.07,3.07,3.0703,3.071,3.069,3.069,3.0691,3.0703,3.0703,3.0759,3.0799,3.0799,3.0799,3.1052,3.2732,3.3356,3.3687,3.5304,3.585,3.5908,3.5908,3.5908,3.5908,3.5908,3.5908,3.5908,3.5908,3.5852,3.5727,3.5457,3.5355,3.5285,3.5207,3.5209,3.5209,3.5209,3.5209,3.5209,3.5209,3.5209,3.5209,3.5209,3.5209,3.5209,0.0,0.0,0.0,3.5209,3.5209,3.5209,0.0,0.0,0.0,0.0,0.0,3.5198,3.5209,3.5209,3.5209,3.5209,3.5209,3.5209,3.5209,3.5209,3.5209,3.5209,3.5209,3.5209,3.5209,3.5209,3.5209,3.5209,3.5209,3.5209,3.5209,3.5209,3.5209,3.5209,3.5209,3.5209,3.5209,0.0,0.0,3.0873,3.0898,3.0839,3.0798,3.0804,3.0806,3.081,3.0793,3.0836,3.0878,3.0898,3.0898,3.0898,3.0898,3.0898,3.0898,3.0898,3.0898,3.0898,3.0898,3.0898,3.0898,3.0898,3.0898,3.0898,3.0896,3.0827,3.0781,3.0774,3.0728,3.0691,3.0676,3.0688,3.07,3.07,3.0645,3.0653,3.0707,3.0703,3.0691,3.0703,3.0753,3.0789,3.0799,3.0799,3.0799,3.0955,3.2031,3.2854,3.357,3.4583,3.5363,3.5908,3.5908,3.5908,3.5908,3.5908,3.5908,3.5908,3.5908,3.5818,3.5659,3.5445,3.5355,3.5285,3.5207,3.5209,3.5209,3.5209,3.5209,3.5209,3.5209,3.5209,3.5209,3.5209,3.5209,3.5209,0.0,3.5209,3.5209,3.5209,3.5209,3.5209,0.0,0.0,0.0,3.5209,3.5193,3.5193,3.5209,3.5209,3.5209,3.5209,3.5209,3.5209,3.5209,3.5209,3.5209,3.5209,3.5209,3.5209,3.5209,3.5209,3.5209,3.5209,3.5209,3.5209,3.5209,3.5209,3.5209,3.5209,3.5209,3.5209,3.5209,3.0892,3.0892,3.0895,3.0898,3.0878,3.0857,3.085,3.0852,3.0855,3.0857,3.0878,3.0898,3.0898,3.0898,3.0898,3.0898,3.0898,3.0898,3.0898,3.0898,3.0898,3.0898,3.0898,3.0898,3.0898,3.0898,3.0898,3.0895,3.0827,3.0804,3.0799,3.0734,3.071,3.0704,3.069,3.069,3.0697,3.0671,3.0671,3.0704,3.0691,3.071,3.0753,3.0784,3.0794,3.0799,3.0799,3.0799,3.0935,3.1817,3.2679,3.3531,3.435,3.5207,3.5908,3.5908,3.5908,3.5908,3.5908,3.5908,3.5883,3.5853,3.5779,3.5649,3.5445,3.5355,3.5285,3.5207,3.5209,3.5209,3.5209,3.5209,3.5209,3.5209,3.5209,3.5209,3.5209,3.5209,3.5209,3.5209,3.5209,3.5209,3.5209,3.5209,3.5209,3.5209,3.5209,0.0,3.5209,3.5209,3.5209,3.5209,3.5209,3.5209,3.5209,3.5209,3.5209,3.5209,3.5209,3.5209,3.5209,3.5209,3.5209,3.5209,3.5209,3.5209,3.5209,3.5209,3.5209,3.5209,3.5209,3.5209,3.5209,3.5209,3.5209,3.5209,3.0897,3.0896,3.0897,3.0898,3.0898,3.0898,3.0896,3.0897,3.0897,3.0897,3.0898,3.0898,3.0898,3.0898,3.0898,3.0897,3.0898,3.0898,3.0898,3.0898,3.0898,3.0898,3.0898,3.0898,3.0898,3.0898,3.0898,3.0895,3.0827,3.0807,3.0804,3.0739,3.0716,3.0691,3.0691,3.0704,3.0703,3.0703,3.0703,3.0703,3.0703,3.0753,3.0803,3.0808,3.0794,3.0799,3.0799,3.0799,3.0916,3.1641,3.2577,3.3512,3.4194,3.509,3.5908,3.5908,3.5908,3.5908,3.5908,3.5908,3.5878,3.5823,3.5745,3.5649,3.5457,3.5355,3.5285,3.5207,3.5209,3.5209,3.5209,3.5209,3.5209,3.5209,3.5209,3.5209,3.5209,0.0,3.5209,3.5209,3.5209,3.5209,3.5209,3.5209,3.5209,3.5209,3.5209,3.5209,3.5209,3.5209,3.5209,3.5209,3.5209,3.5209,3.5209,3.5209,3.5209,3.5209,3.5209,3.5209,3.5209,3.5209,3.5209,3.5209,3.5209,3.5209,3.5209,3.5209,3.5209,3.5209,3.5209,3.5209,3.5209,3.5209,3.5209,3.5209,3.0895,3.0896,3.0898,3.0898,3.0898,3.0898,3.0897,3.0898,3.0898,3.0898,3.0898,3.0898,3.0898,3.0898,3.0897,3.0897,3.0896,3.0896,3.0896,3.0896,3.0896,3.0896,3.0897,3.0897,3.0897,3.0898,3.0898,3.0897,3.0832,3.0796,3.0798,3.0794,3.0748,3.0691,3.0691,3.0704,3.0703,3.0703,3.0703,3.0703,3.0759,3.0784,3.0808,3.0794,3.0799,3.0799,3.0799,3.0799,3.0818,3.0955,3.207,3.3414,3.3551,3.4642,3.5908,3.5908,3.5908,3.5908,3.5908,3.5908,3.5878,3.5826,3.5743,3.5649,3.5521,3.5388,3.5285,3.5207,3.5209,3.5209,3.5209,3.5209,3.5209,3.5209,3.5209,3.5209,3.5209,0.0,3.5209,3.5209,3.5209,3.5209,3.5209,3.5209,3.5209,3.5209,3.5209,3.5209,3.5209,3.5209,3.5209,3.5209,3.5209,3.5209,3.5209,3.5209,3.5209,3.5209,3.5209,3.5209,3.5209,3.5209,3.5209,3.5209,3.5209,3.5209,3.5209,3.5209,3.5209,3.5209,3.5209,3.5209,3.5209,3.5209,3.5209,3.5209,3.0898,3.0898,3.0898,3.0898,3.0898,3.0898,3.0898,3.0898,3.0898,3.0898,3.0898,3.0898,3.0898,3.0897,3.0896,3.0894,3.0892,3.087,3.0849,3.0873,3.0895,3.0895,3.0895,3.0896,3.0897,3.0897,3.0898,3.0897,3.0835,3.0804,3.079,3.0808,3.0784,3.0742,3.0742,3.0753,3.0745,3.0745,3.0745,3.0764,3.0789,3.0794,3.0794,3.0799,3.0799,3.0799,3.0799,3.0799,3.0799,3.0799,3.1641,3.2776,3.3239,3.4233,3.5285,3.5752,3.5908,3.5908,3.5908,3.5908,3.5878,3.5833,3.5752,3.565,3.5526,3.543,3.5335,3.5277,3.5226,3.5209,3.5209,3.5209,3.5209,3.5209,3.5209,0.0,3.5209,3.5209,3.5209,3.5209,3.5209,3.5209,3.5209,3.5209,3.5209,3.5209,3.5209,3.5209,3.5209,3.5209,3.5209,3.5209,3.5209,3.5209,3.5209,3.5209,3.5209,3.5209,3.5209,3.5209,3.5209,3.5209,3.5209,3.5209,3.5209,3.5209,3.5209,3.5209,3.5209,3.5209,3.5209,3.5209,3.5209,3.5209,3.5209,3.5209,3.0898,3.0898,3.0898,3.0898,3.0898,3.0898,3.0898,3.0898,3.0898,3.0898,3.0898,3.0898,3.0897,3.0897,3.0895,3.0909,3.0886,3.0845,3.0801,3.0849,3.0873,3.0873,3.0892,3.0895,3.0897,3.0896,3.0898,3.0898,3.0836,3.0806,3.0798,3.0793,3.0794,3.0803,3.0803,3.0789,3.0799,3.0799,3.0799,3.0799,3.0799,3.0799,3.0799,3.0799,3.0799,3.0799,3.0799,3.0799,3.0799,3.0799,3.1388,3.225,3.3127,3.394,3.4778,3.5636,3.5908,3.5908,3.5908,3.5908,3.5883,3.584,3.5768,3.5679,3.5554,3.547,3.5383,3.5308,3.5261,3.5209,3.5209,3.5209,3.5209,3.5209,0.0,3.5209,0.0,3.5209,3.5209,3.5209,3.5209,3.5209,3.5209,3.5209,3.5209,3.5209,3.5209,3.5209,3.5209,3.5209,3.5209,3.5209,3.5209,3.5209,3.5209,3.5209,3.5209,3.5209,3.5209,3.5209,3.5209,3.5209,3.5209,3.5209,3.5209,3.5209,3.5209,3.5209,3.5209,3.5209,3.5209,3.5209,3.5209,3.5209,3.5209,3.5209,3.0897,3.0898,3.0898,3.0898,3.0898,3.0898,3.0898,3.0898,3.0898,3.0898,3.0898,3.0898,3.0897,3.0896,3.0894,3.0907,3.0845,3.0801,3.0801,3.0801,3.0801,3.0801,3.0866,3.0891,3.0895,3.0896,3.0898,3.0898,3.0835,3.0801,3.0798,3.0793,3.0794,3.0803,3.0803,3.0789,3.0799,3.0799,3.0799,3.0799,3.0799,3.0799,3.0799,3.0799,3.0799,3.0799,3.0799,3.0799,3.0799,3.0799,3.1388,3.225,3.3127,3.394,3.4778,3.5636,3.5908,3.5908,3.5908,3.5908,3.5903,3.5885,3.5811,3.5679,3.5599,3.5496,3.5383,3.5308,3.5261,3.5209,3.5209,3.5209,3.5209,3.5209,0.0,0.0,3.5209,3.5209,3.5209,3.5209,3.5209,3.5209,3.5209,3.5209,3.5209,3.5209,3.5209,3.5209,3.5209,3.5209,3.5209,3.5209,3.5209,3.5209,3.5209,3.5209,3.5209,3.5209,3.5209,3.5209,3.5209,3.5209,3.5209,3.5209,3.5209,3.5209,3.5209,3.5209,3.5209,3.5209,3.5209,3.5209,3.5209,3.5209,3.5209,3.5209,3.0898,3.0898,3.0898,3.0898,3.0898,3.0898,3.0898,3.0898,3.0898,3.0898,3.0898,3.0897,3.0896,3.0892,3.0889,3.0845,3.0801,3.0801,3.0801,3.0801,3.0801,3.0801,3.0823,3.0866,3.0891,3.0892,3.0896,3.0898,3.0837,3.0808,3.0807,3.0806,3.0808,3.0794,3.0794,3.0799,3.0799,3.0799,3.0799,3.0799,3.0799,3.0799,3.0799,3.0799,3.0799,3.0799,3.0799,3.0799,3.0799,3.0799,3.1388,3.225,3.3127,3.394,3.4778,3.5636,3.5908,3.5908,3.5908,3.5908,3.5903,3.5898,3.583,3.5726,3.5609,3.5502,3.5388,3.53,3.5258,3.5209,3.5209,3.5209,3.5209,3.5209,0.0,3.5209,3.5209,3.5209,3.5209,3.5209,3.5209,3.5209,3.5209,3.5209,3.5209,3.5209,3.5209,3.5209,3.5209,3.5209,3.5209,3.5209,3.5209,3.5209,3.5209,3.5209,3.5209,3.5209,3.5209,3.5209,3.5209,3.5209,3.5209,3.5209,3.5209,3.5209,3.5209,3.5209,3.5209,3.5209,3.5209,3.5209,3.5209,3.5209,3.5209,3.5209,3.0898,3.0898,3.0898,3.0898,3.0898,3.0898,3.0898,3.0898,3.0898,3.0898,3.0898,3.0896,3.0894,3.0909,3.0866,3.0801,3.0801,3.0801,3.0801,3.0801,3.0801,3.0801,3.0801,3.0823,3.0907,3.0891,3.0896,3.0879,3.0816,3.0804,3.0804,3.0806,3.0808,3.0799,3.0799,3.0799,3.0799,3.0799,3.0799,3.0799,3.0799,3.0799,3.0799,3.0799,3.0799,3.0799,3.0799,3.0799,3.0799,3.0799,3.1388,3.225,3.3127,3.4135,3.5129,3.5713,3.5908,3.5908,3.5908,3.5908,3.5903,3.5898,3.583,3.5745,3.5629,3.5502,3.5369,3.5315,3.5258,3.5209,3.5209,3.5209,3.5209,3.5209,3.5209,3.5209,3.5209,3.5209,3.5209,3.5209,3.5209,3.5209,3.5209,3.5209,3.5209,3.5209,3.5209,3.5209,3.5209,3.5209,3.5209,3.5209,3.5209,3.5209,3.5209,3.5209,3.5209,3.5209,3.5209,3.5209,3.5209,3.5209,3.5209,3.5209,3.5209,3.5209,3.5209,3.5209,3.5209,3.5209,3.5209,3.5209,3.5209,3.5209,3.5209,3.5209,3.0898,3.0898,3.0898,3.0898,3.0898,3.0898,3.0898,3.0898,3.0898,3.0897,3.0897,3.0896,3.0909,3.0907,3.0866,3.0801,3.0801,3.0801,3.0801,3.0801,3.0801,3.0801,3.0801,3.0823,3.0907,3.0895,3.0879,3.0797,3.0804,3.0804,3.0802,3.0808,3.0799,3.0799,3.0799,3.0799,3.0799,3.0799,3.0799,3.0799,3.0799,3.0799,3.0799,3.0799,3.0799,3.0799,3.0799,3.0799,3.0799,3.0799,3.1388,3.227,3.3147,3.4564,3.5908,3.5908,3.5908,3.5908,3.5908,3.5908,3.5908,3.5891,3.5791,3.5688,3.5609,3.5496,3.5383,3.5308,3.5261,3.5209,3.5209,3.5209,3.5209,3.5209,3.5209,3.5209,3.5209,3.5209,3.5209,3.5209,3.5209,3.5209,3.5209,3.5209,3.5209,3.5209,3.5209,3.5209,3.5209,3.5209,3.5209,3.5209,3.5209,3.5209,3.5209,3.5209,3.5209,3.5209,3.5209,3.5209,3.5209,3.5209,3.5209,3.5209,3.5209,3.5209,3.5209,3.5209,3.5209,3.5209,3.5209,3.5209,3.5209,3.5209,3.5209,3.5209,3.0898,3.0898,3.0898,3.0898,3.0898,3.0898,3.0898,3.0898,3.0898,3.0897,3.0896,3.0894,3.0909,3.0864,3.0823,3.0801,3.0801,3.0801,3.0801,3.0845,3.0866,3.0866,3.0866,3.0868,3.0834,3.0839,3.0818,3.0792,3.0794,3.0798,3.0802,3.0808,3.0799,3.0799,3.0799,3.0799,3.0799,3.0799,3.0799,3.0799,3.0799,3.0799,3.0799,3.0799,3.0799,3.0799,3.0799,3.0799,3.0896,3.1505,3.2284,3.3259,3.47,3.5499,3.5908,3.5908,3.5908,3.5908,3.5908,3.5908,3.5883,3.584,3.5749,3.5679,3.5554,3.547,3.5383,3.5308,3.5261,3.5209,3.5209,3.5209,3.5209,3.5209,3.5209,3.5209,3.5209,3.5209,3.5209,3.5209,3.5209,3.5209,3.5209,3.5209,3.5209,3.5209,3.5209,3.5209,3.5209,3.5209,3.5209,3.5209,3.5209,3.5209,3.5209,3.5209,3.5209,3.5209,3.5209,3.5209,3.5209,3.5209,3.5209,3.5209,3.5209,3.5209,3.5209,3.5209,3.5209,3.5209,3.5209,3.5209,3.5209,3.5209,3.5209,3.5209,3.0898,3.0898,3.0898,3.0898,3.0898,3.0898,3.0898,3.0898,3.0898,3.0897,3.0894,3.0891,3.0866,3.0823,3.0801,3.0801,3.0801,3.0801,3.0843,3.0849,3.0853,3.0856,3.0857,3.0839,3.08,3.08,3.0793,3.0799,3.0801,3.0806,3.0793,3.0804,3.0799,3.0799,3.0799,3.0799,3.0799,3.0799,3.0799,3.0799,3.0799,3.0799,3.0799,3.0799,3.0799,3.0799,3.0799,3.0799,3.0935,3.1817,3.2893,3.4116,3.546,3.5908,3.5908,3.5908,3.5908,3.5908,3.5908,3.5908,3.5878,3.5818,3.5743,3.566,3.5538,3.543,3.5335,3.5258,3.5226,3.5209,3.5209,3.5209,3.5209,3.5209,3.5209,3.5209,3.5209,3.5209,3.5209,3.5209,3.5209,3.5209,3.5209,3.5209,3.5209,3.5209,3.5209,3.5209,3.5209,3.5209,3.5209,3.5209,3.5209,3.5209,3.5209,3.5209,3.5209,3.5209,3.5209,3.5209,3.5209,3.5209,3.5209,3.5209,3.5209,3.5209,3.5209,3.5209,3.5209,3.5209,3.5209,3.5209,3.5209,3.5209,3.5209,3.5209,3.0898,3.0898,3.0898,3.0898,3.0898,3.0898,3.0898,3.0898,3.0897,3.0894,3.0891,3.0866,3.0801,3.0801,3.0801,3.0801,3.0801,3.0825,3.0909,3.0835,3.08,3.0801,3.0798,3.0796,3.0798,3.0792,3.0799,3.0798,3.0806,3.0793,3.0799,3.0799,3.0799,3.0799,3.0799,3.0799,3.0799,3.0799,3.0799,3.0799,3.0799,3.0799,3.0799,3.0799,3.0799,3.0799,3.0799,3.0857,3.1057,3.2012,3.3395,3.4856,3.5655,3.5908,3.5908,3.5908,3.5908,3.5908,3.5908,3.5908,3.5872,3.5815,3.5736,3.5669,3.5521,3.5402,3.5285,3.5207,3.5209,3.5209,3.5209,3.5209,3.5209,3.5209,3.5209,3.5209,3.5209,3.5209,3.5209,3.5209,3.5209,3.5209,3.5209,3.5209,3.5209,3.5209,3.5209,3.5209,3.5209,3.5209,3.5209,3.5209,3.5209,3.5209,3.5209,3.5209,3.5209,3.5209,3.5209,3.5209,3.5209,3.5209,3.5209,3.5209,3.5209,3.5209,3.5209,3.5209,3.5209,3.5209,3.5209,3.5209,3.5209,3.5209,3.5209,3.5209,3.0898,3.0898,3.0898,3.0898,3.0898,3.0898,3.0898,3.0897,3.0896,3.0891,3.0909,3.0866,3.0801,3.0801,3.0823,3.0866,3.087,3.0874,3.0896,3.084,3.08,3.0798,3.0808,3.0796,3.0791,3.0807,3.0801,3.0806,3.0793,3.0804,3.0799,3.0799,3.0799,3.0799,3.0799,3.0799,3.0799,3.0799,3.0799,3.0799,3.0799,3.0799,3.0799,3.0799,3.0799,3.0799,3.0799,3.1232,3.2051,3.3551,3.4739,3.5655,3.583,3.5908,3.5908,3.5908,3.5908,3.5908,3.5908,3.5903,3.5879,3.5815,3.5747,3.5637,3.5464,3.5355,3.5285,3.5207,3.5209,3.5209,3.5209,3.5209,3.5209,3.5209,3.5209,3.5209,3.5209,3.5209,3.5209,3.5209,3.5209,3.5209,3.5209,3.5209,3.5209,3.5209,3.5209,3.5209,3.5209,3.5209,3.5209,3.5209,3.5209,3.5209,3.5209,3.5209,3.5209,3.5209,3.5209,3.5209,3.5209,3.5209,3.5209,3.5209,3.5209,3.5209,3.5209,3.5209,3.5209,3.5209,3.5209,3.5209,3.5209,3.5209,3.5209,3.5209,3.0898,3.0898,3.0898,3.0898,3.0898,3.0898,3.0897,3.0897,3.0895,3.0909,3.0866,3.0843,3.0801,3.0823,3.0866,3.0892,3.0876,3.0859,3.0859,3.0817,3.079,3.0804,3.0807,3.0794,3.0802,3.0802,3.0798,3.0793,3.0804,3.0799,3.0799,3.0799,3.0799,3.0799,3.0799,3.0799,3.0799,3.0799,3.0799,3.0799,3.0799,3.0799,3.0799,3.0799,3.0799,3.0857,3.1271,3.2226,3.3434,3.4291,3.5187,3.5908,3.5908,3.5908,3.5908,3.5908,3.5908,3.5908,3.5903,3.5905,3.5878,3.5782,3.5708,3.5623,3.5432,3.5355,3.5285,3.5207,3.5209,3.5209,3.5209,3.5209,3.5209,3.5209,3.5209,3.5209,3.5209,3.5209,3.5209,3.5209,3.5209,3.5209,3.5209,3.5209,3.5209,3.5209,3.5209,3.5209,3.5209,3.5209,3.5209,3.5209,3.5209,3.5209,3.5209,3.5209,3.5209,3.5209,3.5209,3.5209,3.5209,3.5209,3.5209,3.5209,3.5209,3.5209,3.5209,3.5209,3.5209,3.5209,3.5209,3.5209,3.5209,3.5209,3.5209,3.5209,3.0898,3.0898,3.0898,3.0898,3.0898,3.0898,3.0897,3.0896,3.0894,3.0909,3.0847,3.0823,3.0823,3.087,3.0875,3.0878,3.082,3.0799,3.0795,3.0804,3.0791,3.0798,3.0806,3.0793,3.0799,3.0799,3.0799,3.0799,3.0799,3.0799,3.0799,3.0799,3.0799,3.0799,3.0799,3.0799,3.0799,3.0799,3.0799,3.0799,3.0799,3.0799,3.0799,3.0799,3.0896,3.1115,3.1836,3.3181,3.4622,3.4778,3.5304,3.5908,3.5908,3.5908,3.5908,3.5908,3.5908,3.5903,3.5905,3.5885,3.585,3.5718,3.5637,3.5546,3.5405,3.534,3.5285,3.5207,3.5209,3.5209,3.5209,3.5209,3.5209,3.5209,3.5209,3.5209,3.5209,3.5209,3.5209,3.5209,3.5209,3.5209,3.5209,3.5209,3.5209,3.5209,3.5209,3.5209,3.5209,3.5209,3.5209,3.5209,3.5209,3.5209,3.5209,3.5209,3.5209,3.5209,3.5209,3.5209,3.5209,3.5209,3.5209,3.5209,3.5209,3.5209,3.5209,3.5209,3.5209,3.5209,3.5209,3.5209,3.5209,3.5209,3.5209,3.5209,3.0898,3.0898,3.0898,3.0898,3.0898,3.0898,3.0897,3.0897,3.0896,3.0894,3.0894,3.0892,3.0892,3.0839,3.082,3.0818,3.0811,3.0804,3.0796,3.0807,3.0798,3.0806,3.0793,3.0804,3.0799,3.0799,3.0799,3.0799,3.0799,3.0799,3.0799,3.0799,3.0799,3.0799,3.0799,3.0799,3.0799,3.0799,3.0799,3.0799,3.0799,3.0799,3.0799,3.0799,3.1271,3.1934,3.2055,3.3181,3.472,3.546,3.5791,3.5908,3.5908,3.5908,3.5908,3.5908,3.5903,3.5905,3.5911,3.5862,3.5775,3.5639,3.555,3.547,3.534,3.5304,3.5277,3.5209,3.5209,3.5209,3.5209,3.5209,3.5209,3.5209,3.5209,3.5209,3.5209,3.5209,3.5209,3.5209,3.5209,3.5209,3.5209,3.5209,3.5209,3.5209,3.5209,3.5209,3.5209,3.5209,3.5209,3.5209,3.5209,3.5209,3.5209,3.5209,3.5209,3.5209,3.5209,3.5209,3.5209,3.5209,3.5209,3.5209,3.5209,3.5209,3.5209,3.5209,3.5209,3.5209,3.5209,3.5209,3.5209,3.5209,3.5209,3.5209,3.0898,3.0898,3.0898,3.0898,3.0898,3.0898,3.0898,3.0898,3.0898,3.0859,3.084,3.084,3.084,3.0817,3.0808,3.0801,3.0807,3.0798,3.0806,3.0802,3.0798,3.0789,3.0804,3.0799,3.0799,3.0799,3.0799,3.0799,3.0799,3.0799,3.0799,3.0799,3.0799,3.0799,3.0799,3.0799,3.0799,3.0799,3.0799,3.0799,3.0799,3.0799,3.0857,3.1349,3.1778,3.2231,3.3161,3.4272,3.5382,3.5772,3.5908,3.5908,3.5908,3.5908,3.5908,3.5897,3.5905,3.5885,3.5842,3.5775,3.5658,3.5581,3.547,3.5374,3.532,3.5258,3.5245,3.5209,3.5209,3.5209,3.5209,3.5209,3.5209,3.5209,3.5209,3.5209,3.5209,3.5209,3.5209,3.5209,3.5209,3.5209,3.5209,3.5209,3.5209,3.5209,3.5209,3.5209,3.5209,3.5209,3.5209,3.5209,3.5209,3.5209,3.5209,3.5209,3.5209,3.5209,3.5209,3.5209,3.5209,3.5209,3.5209,3.5209,3.5209,3.5209,3.5209,3.5209,3.5209,3.5209,3.5209,3.5209,3.5209,3.5209,3.5209,3.5209]}]]